| time (UTC) | temp F | wind direction | speed MPH | gust MPH | rain 1hr in | rain 24hr in | rain mn in | humidity % | barometer mb |
| 20260831215742 | 80 | 246 | 1.0 | 4.0 | 0.00 | 0.22 | 0.02 | 84 | 1015.0 |
| 20260831215633 | 80 | 237 | 1.0 | 4.0 | 0.00 | 0.22 | 0.02 | 84 | 1015.1 |
| 20260831215525 | 80 | 225 | 2.0 | 4.0 | 0.00 | 0.22 | 0.02 | 84 | 1015.1 |
| 20260831215440 | 81 | 248 | 2.0 | 4.0 | 0.00 | 0.22 | 0.02 | 84 | 1015.1 |
| 20260831215333 | 81 | 244 | 3.0 | 4.0 | 0.00 | 0.22 | 0.02 | 83 | 1015.2 |
| 20260831215225 | 81 | 239 | 3.0 | 4.0 | 0.00 | 0.22 | 0.02 | 83 | 1015.2 |
| 20260831215137 | 81 | 241 | 2.0 | 4.0 | 0.00 | 0.22 | 0.02 | 83 | 1015.3 |
| 20260831215027 | 81 | 240 | 3.0 | 4.0 | 0.00 | 0.22 | 0.02 | 83 | 1015.3 |
| 20260831214940 | 81 | 239 | 3.0 | 4.0 | 0.00 | 0.22 | 0.02 | 83 | 1015.3 |
| 20260831214832 | 81 | 239 | 3.0 | 4.0 | 0.00 | 0.22 | 0.02 | 83 | 1015.3 |
| 20260831214744 | 81 | 242 | 2.0 | 4.0 | 0.00 | 0.22 | 0.02 | 82 | 1015.3 |
| 20260831214644 | 81 | 306 | 2.0 | 3.0 | 0.00 | 0.22 | 0.02 | 82 | 1015.3 |
| 20260831214540 | 81 | 305 | 1.0 | 3.0 | 0.00 | 0.22 | 0.02 | 82 | 1015.4 |
| 20260831214431 | 81 | 306 | 1.0 | 3.0 | 0.00 | 0.22 | 0.02 | 82 | 1015.4 |
| 20260831214323 | 81 | 305 | 1.0 | 3.0 | 0.00 | 0.22 | 0.02 | 82 | 1015.3 |
| 20260831214235 | 81 | 305 | 1.0 | 3.0 | 0.00 | 0.22 | 0.02 | 82 | 1015.4 |
| 20260831214127 | 82 | 305 | 1.0 | 3.0 | 0.00 | 0.22 | 0.02 | 82 | 1015.4 |
| 20260831214037 | 82 | 305 | 1.0 | 3.0 | 0.00 | 0.22 | 0.02 | 82 | 1015.3 |
| 20260831213931 | 82 | 305 | 1.0 | 3.0 | 0.00 | 0.22 | 0.02 | 81 | 1015.3 |
| 20260831213842 | 82 | 305 | 1.0 | 2.0 | 0.00 | 0.22 | 0.02 | 81 | 1015.2 |
| 20260831213755 | 82 | 178 | 1.0 | 2.0 | 0.00 | 0.22 | 0.02 | 81 | 1015.2 |
| 20260831213711 | 82 | 190 | 1.0 | 2.0 | 0.00 | 0.22 | 0.02 | 81 | 1015.3 |
| 20260831213603 | 82 | 190 | 1.0 | 2.0 | 0.00 | 0.22 | 0.02 | 81 | 1015.3 |
| 20260831213454 | 82 | 190 | 1.0 | 3.0 | 0.00 | 0.22 | 0.02 | 81 | 1015.3 |
| 20260831213346 | 82 | 190 | 1.0 | 3.0 | 0.00 | 0.22 | 0.02 | 80 | 1015.2 |
| 20260831213256 | 82 | 265 | 1.0 | 3.0 | 0.00 | 0.22 | 0.02 | 80 | 1015.2 |
| 20260831213158 | 82 | 242 | 1.0 | 4.0 | 0.00 | 0.22 | 0.02 | 80 | 1015.2 |
| 20260831213030 | 82 | 235 | 1.0 | 6.0 | 0.00 | 0.22 | 0.02 | 80 | 1015.0 |
| 20260831212941 | 82 | 240 | 1.0 | 6.0 | 0.00 | 0.22 | 0.02 | 80 | 1015.0 |
| 20260831212854 | 82 | 232 | 1.0 | 6.0 | 0.00 | 0.22 | 0.02 | 79 | 1015.0 |
| 20260831212744 | 82 | 243 | 1.0 | 6.0 | 0.00 | 0.22 | 0.02 | 79 | 1014.9 |
| 20260831212635 | 82 | 217 | 2.0 | 6.0 | 0.00 | 0.22 | 0.02 | 79 | 1014.8 |
| 20260831212547 | 82 | 235 | 1.0 | 6.0 | 0.00 | 0.22 | 0.02 | 79 | 1014.6 |
| 20260831212443 | 82 | 154 | 1.0 | 6.0 | 0.00 | 0.22 | 0.02 | 79 | 1014.6 |
| 20260831212355 | 82 | 187 | 2.0 | 6.0 | 0.00 | 0.22 | 0.02 | 79 | 1014.6 |
| 20260831212226 | 82 | 151 | 2.0 | 6.0 | 0.00 | 0.22 | 0.02 | 79 | 1014.5 |
| 20260831212138 | 82 | 144 | 1.0 | 6.0 | 0.00 | 0.22 | 0.02 | 79 | 1014.4 |
| 20260831212029 | 82 | 140 | 1.0 | 4.0 | 0.00 | 0.22 | 0.02 | 79 | 1014.4 |
| 20260831211941 | 83 | 110 | 1.0 | 9.0 | 0.00 | 0.22 | 0.02 | 78 | 1014.4 |
| 20260831211833 | 83 | 201 | 1.0 | 9.0 | 0.00 | 0.22 | 0.02 | 78 | 1014.4 |
| 20260831211725 | 83 | 187 | 2.0 | 9.0 | 0.00 | 0.22 | 0.02 | 78 | 1014.5 |
| 20260831211646 | 83 | 242 | 2.0 | 9.0 | 0.00 | 0.22 | 0.02 | 78 | 1014.4 |
| 20260831211540 | 83 | 191 | 2.0 | 9.0 | 0.00 | 0.22 | 0.02 | 78 | 1014.3 |
| 20260831211432 | 83 | 153 | 2.0 | 9.0 | 0.00 | 0.22 | 0.02 | 78 | 1014.3 |
| 20260831211324 | 83 | 167 | 3.0 | 9.0 | 0.00 | 0.22 | 0.02 | 78 | 1014.2 |
| 20260831211236 | 83 | 192 | 3.0 | 9.0 | 0.00 | 0.22 | 0.02 | 78 | 1014.1 |
| 20260831211128 | 83 | 165 | 3.0 | 9.0 | 0.00 | 0.22 | 0.02 | 78 | 1014.1 |
| 20260831211040 | 83 | 165 | 2.0 | 5.0 | 0.00 | 0.22 | 0.02 | 78 | 1014.1 |
| 20260831210933 | 83 | 154 | 2.0 | 4.0 | 0.00 | 0.22 | 0.02 | 78 | 1014.1 |
| 20260831210844 | 83 | 155 | 2.0 | 5.0 | 0.00 | 0.22 | 0.02 | 78 | 1014.1 |
| 20260831210737 | 83 | 161 | 2.0 | 5.0 | 0.00 | 0.22 | 0.02 | 78 | 1014.2 |
| 20260831210634 | 83 | 153 | 2.0 | 5.0 | 0.00 | 0.22 | 0.02 | 78 | 1014.1 |
| 20260831210526 | 83 | 148 | 2.0 | 5.0 | 0.00 | 0.22 | 0.02 | 78 | 1014.2 |
| 20260831210438 | 83 | 170 | 2.0 | 5.0 | 0.00 | 0.22 | 0.02 | 77 | 1014.2 |
| 20260831210330 | 83 | 262 | 2.0 | 5.0 | 0.00 | 0.22 | 0.02 | 77 | 1014.2 |
| 20260831210240 | 83 | 167 | 2.0 | 5.0 | 0.00 | 0.24 | 0.02 | 77 | 1014.2 |
| 20260831210201 | 83 | 160 | 2.0 | 5.0 | 0.00 | 0.24 | 0.02 | 77 | 1014.2 |
| 20260831210033 | 83 | 266 | 2.0 | 5.0 | 0.00 | 0.24 | 0.02 | 77 | 1014.1 |
| 20260831205924 | 83 | 163 | 2.0 | 6.0 | 0.00 | 0.24 | 0.02 | 77 | 1014.2 |
| 20260831205839 | 83 | 253 | 1.0 | 6.0 | 0.00 | 0.24 | 0.02 | 77 | 1014.1 |
| 20260831205731 | 84 | 159 | 1.0 | 6.0 | 0.00 | 0.24 | 0.02 | 77 | 1014.2 |
| 20260831205642 | 84 | 148 | 1.0 | 6.0 | 0.00 | 0.24 | 0.02 | 77 | 1014.2 |
| 20260831205533 | 84 | 164 | 1.0 | 6.0 | 0.00 | 0.24 | 0.02 | 77 | 1014.2 |
| 20260831205424 | 84 | 133 | 1.0 | 6.0 | 0.00 | 0.24 | 0.02 | 77 | 1014.2 |
| 20260831205336 | 84 | 163 | 2.0 | 6.0 | 0.00 | 0.24 | 0.02 | 77 | 1014.1 |
| 20260831205228 | 84 | 142 | 3.0 | 6.0 | 0.00 | 0.24 | 0.02 | 77 | 1014.2 |
| 20260831205140 | 84 | 256 | 3.0 | 6.0 | 0.00 | 0.24 | 0.02 | 76 | 1014.2 |
| 20260831205036 | 84 | 159 | 2.0 | 4.0 | 0.00 | 0.24 | 0.02 | 77 | 1014.2 |
| 20260831204928 | 84 | 160 | 2.0 | 4.0 | 0.00 | 0.24 | 0.02 | 77 | 1014.1 |
| 20260831204839 | 84 | 242 | 1.0 | 4.0 | 0.00 | 0.24 | 0.02 | 77 | 1014.2 |
| 20260831204730 | 84 | 153 | 1.0 | 3.0 | 0.00 | 0.24 | 0.02 | 77 | 1014.3 |
| 20260831204652 | 84 | 153 | 1.0 | 3.0 | 0.00 | 0.24 | 0.02 | 77 | 1014.3 |
| 20260831204524 | 84 | 242 | 1.0 | 3.0 | 0.00 | 0.24 | 0.02 | 76 | 1014.3 |
| 20260831204436 | 84 | 183 | 1.0 | 3.0 | 0.00 | 0.24 | 0.02 | 76 | 1014.2 |
| 20260831204328 | 84 | 134 | 1.0 | 5.0 | 0.00 | 0.24 | 0.02 | 76 | 1014.2 |
| 20260831204224 | 84 | 338 | 1.0 | 5.0 | 0.00 | 0.24 | 0.02 | 76 | 1014.2 |
| 20260831204135 | 84 | 103 | 0.0 | 5.0 | 0.00 | 0.24 | 0.02 | 76 | 1014.3 |
| 20260831204027 | 84 | 179 | 0.0 | 5.0 | 0.00 | 0.24 | 0.02 | 76 | 1014.3 |
| 20260831203939 | 84 | 179 | 0.0 | 5.0 | 0.00 | 0.24 | 0.02 | 76 | 1014.2 |
| 20260831203831 | 84 | 134 | 1.0 | 5.0 | 0.00 | 0.24 | 0.02 | 76 | 1014.3 |
| 20260831203724 | 84 | 134 | 2.0 | 5.0 | 0.00 | 0.24 | 0.02 | 75 | 1014.4 |
| 20260831203635 | 84 | 170 | 2.0 | 5.0 | 0.00 | 0.24 | 0.02 | 75 | 1014.2 |
| 20260831203525 | 84 | 236 | 1.0 | 6.0 | 0.00 | 0.24 | 0.02 | 75 | 1014.2 |
| 20260831203437 | 85 | 232 | 1.0 | 5.0 | 0.00 | 0.24 | 0.02 | 75 | 1014.2 |
| 20260831203334 | 85 | 241 | 2.0 | 5.0 | 0.00 | 0.24 | 0.02 | 75 | 1014.2 |
| 20260831203245 | 85 | 207 | 2.0 | 8.0 | 0.00 | 0.24 | 0.02 | 75 | 1014.1 |
| 20260831203207 | 85 | 263 | 2.0 | 8.0 | 0.00 | 0.24 | 0.02 | 75 | 1014.1 |
| 20260831203038 | 85 | 236 | 2.0 | 8.0 | 0.00 | 0.24 | 0.02 | 75 | 1014.1 |
| 20260831202949 | 85 | 250 | 2.0 | 8.0 | 0.00 | 0.24 | 0.02 | 74 | 1014.0 |
| 20260831202901 | 85 | 165 | 2.0 | 8.0 | 0.00 | 0.24 | 0.02 | 74 | 1014.0 |
| 20260831202732 | 85 | 155 | 1.0 | 8.0 | 0.00 | 0.24 | 0.02 | 74 | 1014.1 |
| 20260831202625 | 85 | 188 | 2.0 | 8.0 | 0.00 | 0.24 | 0.02 | 74 | 1014.1 |
| 20260831202536 | 85 | 67 | 3.0 | 8.0 | 0.00 | 0.24 | 0.02 | 73 | 1014.1 |
| 20260831202432 | 85 | 205 | 3.0 | 7.0 | 0.00 | 0.24 | 0.02 | 73 | 1014.1 |
| 20260831202324 | 85 | 159 | 3.0 | 7.0 | 0.00 | 0.24 | 0.02 | 73 | 1014.2 |
| 20260831202237 | 85 | 289 | 3.0 | 7.0 | 0.00 | 0.24 | 0.02 | 72 | 1014.1 |
| 20260831202128 | 85 | 90 | 2.0 | 7.0 | 0.00 | 0.24 | 0.02 | 72 | 1014.2 |
| 20260831202039 | 85 | 122 | 2.0 | 7.0 | 0.00 | 0.24 | 0.02 | 73 | 1014.3 |
| 20260831201931 | 85 | 168 | 2.0 | 7.0 | 0.00 | 0.24 | 0.02 | 73 | 1014.3 |
| 20260831201843 | 85 | 12 | 2.0 | 7.0 | 0.00 | 0.24 | 0.02 | 72 | 1014.3 |
| 20260831201756 | 85 | 195 | 4.0 | 7.0 | 0.00 | 0.24 | 0.02 | 72 | 1014.2 |
| 20260831201657 | 85 | 274 | 4.0 | 7.0 | 0.00 | 0.24 | 0.02 | 71 | 1014.2 |
| 20260831201532 | 86 | 161 | 3.0 | 8.0 | 0.00 | 0.24 | 0.02 | 72 | 1014.4 |
| 20260831201423 | 86 | 217 | 4.0 | 8.0 | 0.00 | 0.24 | 0.02 | 72 | 1014.4 |
| 20260831201336 | 86 | 297 | 3.0 | 8.0 | 0.00 | 0.24 | 0.02 | 71 | 1014.4 |
| 20260831201229 | 86 | 245 | 2.0 | 8.0 | 0.00 | 0.24 | 0.02 | 72 | 1014.4 |
| 20260831201141 | 86 | 134 | 3.0 | 8.0 | 0.00 | 0.24 | 0.02 | 72 | 1014.3 |
| 20260831201052 | 86 | 153 | 3.0 | 8.0 | 0.00 | 0.24 | 0.02 | 72 | 1014.3 |
| 20260831200942 | 86 | 254 | 3.0 | 8.0 | 0.00 | 0.24 | 0.02 | 72 | 1014.2 |
| 20260831200834 | 86 | 269 | 3.0 | 8.0 | 0.00 | 0.24 | 0.02 | 71 | 1014.3 |
| 20260831200746 | 86 | 165 | 2.0 | 9.0 | 0.00 | 0.24 | 0.02 | 72 | 1014.4 |
| 20260831200658 | 86 | 279 | 3.0 | 9.0 | 0.00 | 0.24 | 0.02 | 72 | 1014.4 |
| 20260831200553 | 86 | 113 | 4.0 | 9.0 | 0.00 | 0.24 | 0.02 | 71 | 1014.4 |
| 20260831200505 | 86 | 248 | 3.0 | 9.0 | 0.00 | 0.24 | 0.02 | 71 | 1014.5 |
| 20260831200356 | 86 | 250 | 4.0 | 8.0 | 0.00 | 0.24 | 0.02 | 72 | 1014.5 |
| 20260831200224 | 86 | 152 | 4.0 | 8.0 | 0.00 | 0.24 | 0.02 | 71 | 1014.6 |
| 20260831200147 | 86 | 107 | 4.0 | 7.0 | 0.00 | 0.24 | 0.02 | 71 | 1014.5 |
| 20260831200039 | 86 | 162 | 3.0 | 8.0 | 0.00 | 0.24 | 0.02 | 72 | 1014.6 |
| 20260831195931 | 85 | 271 | 3.0 | 9.0 | 0.00 | 0.24 | 0.02 | 72 | 1014.6 |
| 20260831195823 | 85 | 273 | 3.0 | 9.0 | 0.00 | 0.24 | 0.02 | 74 | 1014.6 |
| 20260831195735 | 85 | 256 | 3.0 | 9.0 | 0.00 | 0.24 | 0.02 | 73 | 1014.6 |
| 20260831195631 | 85 | 143 | 3.0 | 9.0 | 0.00 | 0.24 | 0.02 | 73 | 1014.5 |
| 20260831195543 | 85 | 136 | 3.0 | 9.0 | 0.00 | 0.24 | 0.02 | 73 | 1014.4 |
| 20260831195454 | 85 | 144 | 2.0 | 9.0 | 0.00 | 0.24 | 0.02 | 73 | 1014.4 |
| 20260831195405 | 85 | 136 | 3.0 | 9.0 | 0.00 | 0.24 | 0.02 | 72 | 1014.5 |
| 20260831195256 | 85 | 231 | 4.0 | 9.0 | 0.00 | 0.24 | 0.02 | 72 | 1014.5 |
| 20260831195207 | 85 | 197 | 5.0 | 9.0 | 0.00 | 0.24 | 0.02 | 72 | 1014.5 |
| 20260831195058 | 85 | 157 | 3.0 | 8.0 | 0.00 | 0.24 | 0.02 | 72 | 1014.5 |
| 20260831194928 | 85 | 90 | 2.0 | 8.0 | 0.00 | 0.24 | 0.02 | 73 | 1014.6 |
| 20260831194841 | 85 | 148 | 2.0 | 8.0 | 0.00 | 0.24 | 0.02 | 73 | 1014.6 |
| 20260831194734 | 85 | 249 | 2.0 | 8.0 | 0.00 | 0.24 | 0.02 | 73 | 1014.6 |
| 20260831194656 | 85 | 157 | 2.0 | 8.0 | 0.00 | 0.24 | 0.02 | 73 | 1014.6 |
| 20260831194532 | 85 | 119 | 3.0 | 8.0 | 0.00 | 0.24 | 0.02 | 72 | 1014.6 |
| 20260831194423 | 85 | 355 | 4.0 | 8.0 | 0.00 | 0.24 | 0.02 | 72 | 1014.6 |
| 20260831194335 | 85 | 258 | 3.0 | 10.0 | 0.00 | 0.24 | 0.02 | 73 | 1014.6 |
| 20260831194246 | 85 | 184 | 2.0 | 10.0 | 0.00 | 0.24 | 0.02 | 74 | 1014.7 |
| 20260831194138 | 85 | 203 | 2.0 | 10.0 | 0.00 | 0.24 | 0.02 | 73 | 1014.7 |
| 20260831194049 | 85 | 204 | 2.0 | 10.0 | 0.00 | 0.24 | 0.02 | 73 | 1014.8 |
| 20260831194001 | 84 | 215 | 3.0 | 10.0 | 0.00 | 0.24 | 0.02 | 73 | 1014.6 |
| 20260831193833 | 84 | 112 | 2.0 | 10.0 | 0.00 | 0.24 | 0.02 | 74 | 1014.6 |
| 20260831193745 | 84 | 154 | 3.0 | 10.0 | 0.00 | 0.24 | 0.02 | 74 | 1014.7 |
| 20260831193657 | 84 | 151 | 3.0 | 10.0 | 0.00 | 0.24 | 0.02 | 74 | 1014.8 |
| 20260831193531 | 84 | 178 | 4.0 | 10.0 | 0.00 | 0.24 | 0.02 | 73 | 1014.8 |
| 20260831193424 | 84 | 162 | 4.0 | 10.0 | 0.00 | 0.24 | 0.02 | 73 | 1014.8 |
| 20260831193335 | 84 | 117 | 3.0 | 10.0 | 0.00 | 0.24 | 0.02 | 74 | 1014.8 |
| 20260831193225 | 84 | 188 | 3.0 | 10.0 | 0.00 | 0.24 | 0.02 | 75 | 1014.8 |
| 20260831193147 | 84 | 110 | 3.0 | 10.0 | 0.00 | 0.24 | 0.02 | 74 | 1014.9 |
| 20260831193039 | 84 | 157 | 4.0 | 12.0 | 0.00 | 0.24 | 0.02 | 74 | 1014.9 |
| 20260831192931 | 84 | 180 | 4.0 | 12.0 | 0.00 | 0.24 | 0.02 | 74 | 1014.9 |
| 20260831192842 | 84 | 163 | 3.0 | 12.0 | 0.00 | 0.24 | 0.02 | 74 | 1014.9 |
| 20260831192739 | 84 | 192 | 2.0 | 12.0 | 0.00 | 0.24 | 0.02 | 74 | 1014.9 |
| 20260831192652 | 84 | 157 | 3.0 | 12.0 | 0.00 | 0.24 | 0.02 | 74 | 1014.9 |
| 20260831192542 | 84 | 247 | 5.0 | 12.0 | 0.00 | 0.24 | 0.02 | 73 | 1014.9 |
| 20260831192432 | 84 | 199 | 5.0 | 12.0 | 0.00 | 0.24 | 0.02 | 73 | 1014.9 |
| 20260831192324 | 84 | 149 | 4.0 | 12.0 | 0.00 | 0.24 | 0.02 | 73 | 1014.9 |
| 20260831192235 | 84 | 137 | 4.0 | 12.0 | 0.00 | 0.24 | 0.02 | 74 | 1015.0 |
| 20260831192147 | 84 | 144 | 3.0 | 11.0 | 0.00 | 0.24 | 0.02 | 75 | 1014.9 |
| 20260831192059 | 83 | 137 | 2.0 | 11.0 | 0.00 | 0.24 | 0.02 | 75 | 1015.0 |
| 20260831191932 | 83 | 148 | 3.0 | 11.0 | 0.00 | 0.24 | 0.02 | 74 | 1015.1 |
| 20260831191828 | 83 | 167 | 4.0 | 11.0 | 0.00 | 0.24 | 0.02 | 75 | 1015.0 |
| 20260831191740 | 83 | 133 | 3.0 | 8.0 | 0.00 | 0.24 | 0.02 | 75 | 1015.0 |
| 20260831191703 | 83 | 151 | 3.0 | 8.0 | 0.00 | 0.24 | 0.02 | 75 | 1015.0 |
| 20260831191534 | 83 | 166 | 1.0 | 9.0 | 0.00 | 0.24 | 0.02 | 76 | 1015.1 |
| 20260831191425 | 83 | 106 | 2.0 | 9.0 | 0.00 | 0.24 | 0.02 | 76 | 1015.0 |
| 20260831191337 | 83 | 271 | 3.0 | 9.0 | 0.00 | 0.24 | 0.02 | 76 | 1015.1 |
| 20260831191227 | 83 | 202 | 3.0 | 9.0 | 0.00 | 0.24 | 0.02 | 75 | 1015.1 |
| 20260831191140 | 83 | 98 | 3.0 | 9.0 | 0.00 | 0.24 | 0.02 | 75 | 1015.1 |
| 20260831191031 | 83 | 159 | 4.0 | 10.0 | 0.00 | 0.24 | 0.02 | 74 | 1015.1 |
| 20260831190927 | 83 | 148 | 5.0 | 10.0 | 0.00 | 0.24 | 0.02 | 75 | 1015.2 |
| 20260831190839 | 83 | 255 | 4.0 | 10.0 | 0.00 | 0.24 | 0.02 | 75 | 1015.2 |
| 20260831190730 | 82 | 126 | 4.0 | 10.0 | 0.00 | 0.24 | 0.02 | 75 | 1015.2 |
| 20260831190622 | 82 | 157 | 4.0 | 10.0 | 0.00 | 0.24 | 0.02 | 76 | 1015.2 |
| 20260831190534 | 82 | 172 | 4.0 | 10.0 | 0.00 | 0.24 | 0.02 | 76 | 1015.1 |
| 20260831190425 | 82 | 142 | 3.0 | 10.0 | 0.00 | 0.24 | 0.02 | 77 | 1015.2 |
| 20260831190336 | 82 | 181 | 4.0 | 10.0 | 0.00 | 0.24 | 0.02 | 77 | 1015.2 |
| 20260831190227 | 82 | 249 | 4.0 | 10.0 | 0.00 | 0.24 | 0.02 | 77 | 1015.2 |
| 20260831190152 | 82 | 179 | 3.0 | 8.0 | 0.00 | 0.24 | 0.02 | 78 | 1015.2 |
| 20260831190044 | 82 | 148 | 2.0 | 7.0 | 0.00 | 0.24 | 0.02 | 78 | 1015.2 |
| 20260831185935 | 82 | 170 | 2.0 | 7.0 | 0.00 | 0.24 | 0.02 | 79 | 1015.2 |
| 20260831185828 | 82 | 112 | 3.0 | 7.0 | 0.00 | 0.24 | 0.02 | 79 | 1015.3 |
| 20260831185741 | 81 | 237 | 3.0 | 7.0 | 0.00 | 0.24 | 0.02 | 78 | 1015.3 |
| 20260831185632 | 81 | 148 | 3.0 | 7.0 | 0.00 | 0.24 | 0.02 | 79 | 1015.3 |
| 20260831185524 | 81 | 164 | 3.0 | 10.0 | 0.00 | 0.24 | 0.02 | 79 | 1015.3 |
| 20260831185435 | 81 | 123 | 3.0 | 10.0 | 0.00 | 0.24 | 0.02 | 79 | 1015.4 |
| 20260831185327 | 81 | 145 | 2.0 | 10.0 | 0.00 | 0.24 | 0.02 | 79 | 1015.4 |
| 20260831185223 | 81 | 181 | 3.0 | 10.0 | 0.00 | 0.24 | 0.02 | 79 | 1015.4 |
| 20260831185135 | 81 | 158 | 2.0 | 10.0 | 0.00 | 0.24 | 0.02 | 79 | 1015.4 |
| 20260831185027 | 81 | 159 | 2.0 | 10.0 | 0.00 | 0.24 | 0.02 | 80 | 1015.3 |
| 20260831184940 | 81 | 256 | 3.0 | 10.0 | 0.00 | 0.24 | 0.02 | 80 | 1015.3 |
| 20260831184832 | 80 | 170 | 4.0 | 10.0 | 0.00 | 0.24 | 0.02 | 78 | 1015.4 |
| 20260831184725 | 80 | 196 | 4.0 | 14.0 | 0.00 | 0.24 | 0.02 | 79 | 1015.4 |
| 20260831184647 | 80 | 159 | 4.0 | 14.0 | 0.00 | 0.24 | 0.02 | 79 | 1015.4 |
| 20260831184538 | 80 | 150 | 5.0 | 14.0 | 0.00 | 0.24 | 0.02 | 78 | 1015.4 |
| 20260831184433 | 80 | 144 | 4.0 | 14.0 | 0.00 | 0.24 | 0.02 | 79 | 1015.4 |
| 20260831184325 | 80 | 173 | 3.0 | 14.0 | 0.00 | 0.24 | 0.02 | 79 | 1015.5 |
| 20260831184236 | 80 | 156 | 3.0 | 14.0 | 0.00 | 0.24 | 0.02 | 80 | 1015.5 |
| 20260831184127 | 80 | 117 | 4.0 | 14.0 | 0.00 | 0.24 | 0.02 | 79 | 1015.5 |
| 20260831184038 | 80 | 116 | 5.0 | 14.0 | 0.00 | 0.24 | 0.02 | 79 | 1015.5 |
| 20260831183950 | 80 | 196 | 6.0 | 14.0 | 0.00 | 0.24 | 0.02 | 77 | 1015.5 |
| 20260831183902 | 80 | 157 | 5.0 | 14.0 | 0.00 | 0.24 | 0.02 | 78 | 1015.5 |
| 20260831183732 | 80 | 180 | 4.0 | 9.0 | 0.00 | 0.24 | 0.02 | 78 | 1015.7 |
| 20260831183623 | 80 | 207 | 4.0 | 9.0 | 0.00 | 0.24 | 0.02 | 78 | 1015.6 |
| 20260831183539 | 80 | 152 | 4.0 | 9.0 | 0.00 | 0.24 | 0.02 | 79 | 1015.6 |
| 20260831183430 | 80 | 196 | 4.0 | 9.0 | 0.00 | 0.24 | 0.02 | 79 | 1015.6 |
| 20260831183341 | 80 | 178 | 4.0 | 9.0 | 0.00 | 0.24 | 0.02 | 78 | 1015.7 |
| 20260831183231 | 80 | 144 | 3.0 | 7.0 | 0.00 | 0.24 | 0.02 | 79 | 1015.7 |
| 20260831183155 | 80 | 165 | 3.0 | 7.0 | 0.00 | 0.24 | 0.02 | 79 | 1015.7 |
| 20260831183046 | 80 | 172 | 3.0 | 8.0 | 0.00 | 0.24 | 0.02 | 79 | 1015.7 |
| 20260831182935 | 80 | 155 | 3.0 | 8.0 | 0.00 | 0.24 | 0.02 | 79 | 1015.6 |
| 20260831182827 | 80 | 229 | 3.0 | 9.0 | 0.00 | 0.24 | 0.02 | 79 | 1015.7 |
| 20260831182739 | 80 | 169 | 4.0 | 9.0 | 0.00 | 0.24 | 0.02 | 78 | 1015.6 |
| 20260831182636 | 80 | 176 | 3.0 | 9.0 | 0.00 | 0.24 | 0.02 | 79 | 1015.7 |
| 20260831182528 | 80 | 174 | 2.0 | 9.0 | 0.00 | 0.24 | 0.02 | 81 | 1015.7 |
| 20260831182440 | 80 | 156 | 2.0 | 9.0 | 0.00 | 0.24 | 0.02 | 81 | 1015.6 |
| 20260831182332 | 80 | 117 | 2.0 | 10.0 | 0.00 | 0.24 | 0.02 | 82 | 1015.7 |
| 20260831182245 | 80 | 143 | 2.0 | 10.0 | 0.00 | 0.24 | 0.02 | 82 | 1015.8 |
| 20260831182157 | 80 | 157 | 2.0 | 10.0 | 0.00 | 0.24 | 0.02 | 82 | 1015.6 |
| 20260831182028 | 80 | 198 | 3.0 | 10.0 | 0.00 | 0.24 | 0.02 | 82 | 1015.6 |
| 20260831181939 | 80 | 157 | 3.0 | 10.0 | 0.00 | 0.24 | 0.02 | 82 | 1015.7 |
| 20260831181851 | 79 | 173 | 3.0 | 10.0 | 0.00 | 0.24 | 0.02 | 81 | 1015.6 |
| 20260831181742 | 79 | 182 | 3.0 | 10.0 | 0.00 | 0.24 | 0.02 | 82 | 1015.8 |
| 20260831181708 | 79 | 166 | 3.0 | 10.0 | 0.00 | 0.24 | 0.02 | 82 | 1015.8 |
| 20260831181559 | 79 | 165 | 3.0 | 10.0 | 0.00 | 0.24 | 0.02 | 81 | 1015.6 |
| 20260831181511 | 79 | 136 | 3.0 | 10.0 | 0.00 | 0.24 | 0.02 | 82 | 1015.7 |
| 20260831181403 | 79 | 135 | 4.0 | 10.0 | 0.00 | 0.24 | 0.02 | 81 | 1015.7 |
| 20260831181255 | 79 | 175 | 4.0 | 10.0 | 0.00 | 0.24 | 0.02 | 81 | 1015.8 |
| 20260831181126 | 79 | 183 | 4.0 | 11.0 | 0.00 | 0.24 | 0.02 | 82 | 1015.8 |
| 20260831181039 | 79 | 166 | 5.0 | 11.0 | 0.00 | 0.24 | 0.02 | 82 | 1015.7 |
| 20260831180930 | 79 | 171 | 4.0 | 11.0 | 0.00 | 0.24 | 0.02 | 83 | 1015.8 |
| 20260831180842 | 79 | 217 | 3.0 | 12.0 | 0.00 | 0.24 | 0.02 | 83 | 1015.7 |
| 20260831180753 | 78 | 149 | 4.0 | 12.0 | 0.00 | 0.24 | 0.02 | 83 | 1015.7 |
| 20260831180627 | 78 | 153 | 5.0 | 12.0 | 0.00 | 0.24 | 0.02 | 82 | 1015.8 |
| 20260831180540 | 78 | 189 | 6.0 | 12.0 | 0.00 | 0.24 | 0.02 | 82 | 1015.7 |
| 20260831180451 | 78 | 147 | 6.0 | 12.0 | 0.00 | 0.24 | 0.02 | 82 | 1015.6 |
| 20260831180342 | 78 | 155 | 6.0 | 12.0 | 0.00 | 0.24 | 0.02 | 82 | 1015.7 |
| 20260831180233 | 78 | 146 | 6.0 | 12.0 | 0.00 | 0.24 | 0.02 | 82 | 1015.7 |
| 20260831180155 | 78 | 147 | 7.0 | 12.0 | 0.00 | 0.24 | 0.02 | 83 | 1015.7 |
| 20260831180027 | 78 | 152 | 6.0 | 12.0 | 0.00 | 0.24 | 0.02 | 83 | 1015.8 |
| 20260831175939 | 78 | 155 | 6.0 | 11.0 | 0.00 | 0.24 | 0.02 | 82 | 1015.8 |
| 20260831175830 | 78 | 178 | 6.0 | 11.0 | 0.00 | 0.24 | 0.02 | 82 | 1015.9 |
| 20260831175741 | 78 | 152 | 6.0 | 11.0 | 0.00 | 0.24 | 0.02 | 83 | 1015.8 |
| 20260831175658 | 78 | 139 | 5.0 | 11.0 | 0.00 | 0.24 | 0.02 | 83 | 1015.9 |
| 20260831175548 | 78 | 148 | 4.0 | 11.0 | 0.00 | 0.24 | 0.02 | 83 | 1015.9 |
| 20260831175438 | 77 | 152 | 3.0 | 10.0 | 0.00 | 0.24 | 0.02 | 83 | 1016.0 |
| 20260831175331 | 77 | 159 | 5.0 | 10.0 | 0.00 | 0.24 | 0.02 | 84 | 1015.8 |
| 20260831175242 | 77 | 194 | 6.0 | 12.0 | 0.00 | 0.24 | 0.02 | 84 | 1015.9 |
| 20260831175133 | 77 | 133 | 5.0 | 12.0 | 0.00 | 0.24 | 0.02 | 83 | 1015.9 |
| 20260831175026 | 77 | 150 | 4.0 | 12.0 | 0.00 | 0.24 | 0.02 | 83 | 1015.9 |
| 20260831174937 | 77 | 132 | 3.0 | 12.0 | 0.00 | 0.24 | 0.02 | 83 | 1016.0 |
| 20260831174829 | 77 | 169 | 3.0 | 12.0 | 0.00 | 0.24 | 0.02 | 83 | 1016.0 |
| 20260831174724 | 77 | 155 | 4.0 | 12.0 | 0.00 | 0.24 | 0.02 | 83 | 1015.9 |
| 20260831174646 | 77 | 156 | 4.0 | 12.0 | 0.00 | 0.24 | 0.02 | 83 | 1016.0 |
| 20260831174537 | 77 | 224 | 4.0 | 12.0 | 0.00 | 0.24 | 0.02 | 83 | 1016.0 |
| 20260831174427 | 77 | 152 | 5.0 | 12.0 | 0.00 | 0.24 | 0.02 | 83 | 1016.0 |
| 20260831174339 | 77 | 153 | 5.0 | 12.0 | 0.00 | 0.24 | 0.02 | 84 | 1016.0 |
| 20260831174251 | 77 | 175 | 4.0 | 12.0 | 0.00 | 0.24 | 0.02 | 83 | 1016.1 |
| 20260831174142 | 77 | 159 | 4.0 | 12.0 | 0.00 | 0.24 | 0.02 | 83 | 1016.1 |
| 20260831174034 | 77 | 115 | 5.0 | 12.0 | 0.00 | 0.24 | 0.02 | 83 | 1016.2 |
| 20260831173945 | 77 | 151 | 5.0 | 12.0 | 0.00 | 0.24 | 0.02 | 83 | 1016.2 |
| 20260831173857 | 77 | 146 | 5.0 | 11.0 | 0.00 | 0.24 | 0.02 | 83 | 1016.3 |
| 20260831173752 | 77 | 187 | 5.0 | 11.0 | 0.00 | 0.24 | 0.02 | 83 | 1016.4 |
| 20260831173642 | 77 | 146 | 3.0 | 11.0 | 0.00 | 0.24 | 0.02 | 83 | 1016.4 |
| 20260831173554 | 77 | 143 | 3.0 | 11.0 | 0.00 | 0.24 | 0.02 | 83 | 1016.4 |
| 20260831173425 | 77 | 146 | 3.0 | 11.0 | 0.00 | 0.24 | 0.02 | 83 | 1016.4 |
| 20260831173338 | 77 | 128 | 3.0 | 11.0 | 0.00 | 0.24 | 0.02 | 83 | 1016.4 |
| 20260831173248 | 77 | 204 | 3.0 | 11.0 | 0.00 | 0.24 | 0.02 | 83 | 1016.4 |
| 20260831173210 | 77 | 147 | 2.0 | 11.0 | 0.00 | 0.24 | 0.02 | 83 | 1016.4 |
| 20260831173101 | 77 | 119 | 4.0 | 11.0 | 0.00 | 0.24 | 0.02 | 83 | 1016.5 |
| 20260831172933 | 77 | 178 | 3.0 | 11.0 | 0.00 | 0.24 | 0.02 | 83 | 1016.5 |
| 20260831172844 | 77 | 144 | 1.0 | 10.0 | 0.00 | 0.24 | 0.02 | 84 | 1016.4 |
| 20260831172756 | 77 | 162 | 2.0 | 10.0 | 0.00 | 0.24 | 0.02 | 83 | 1016.5 |
| 20260831172632 | 77 | 109 | 3.0 | 10.0 | 0.00 | 0.24 | 0.02 | 84 | 1016.5 |
| 20260831172523 | 77 | 150 | 2.0 | 8.0 | 0.00 | 0.24 | 0.02 | 84 | 1016.6 |
| 20260831172436 | 77 | 169 | 3.0 | 8.0 | 0.00 | 0.24 | 0.02 | 84 | 1016.6 |
| 20260831172329 | 77 | 141 | 4.0 | 8.0 | 0.00 | 0.24 | 0.02 | 84 | 1016.6 |
| 20260831172241 | 76 | 222 | 3.0 | 7.0 | 0.00 | 0.24 | 0.02 | 84 | 1016.5 |
| 20260831172152 | 76 | 152 | 4.0 | 8.0 | 0.00 | 0.24 | 0.02 | 84 | 1016.5 |
| 20260831172103 | 76 | 184 | 3.0 | 8.0 | 0.00 | 0.24 | 0.02 | 84 | 1016.5 |
| 20260831171934 | 76 | 288 | 3.0 | 8.0 | 0.00 | 0.24 | 0.02 | 85 | 1016.6 |
| 20260831171831 | 76 | 162 | 3.0 | 9.0 | 0.00 | 0.24 | 0.02 | 84 | 1016.6 |
| 20260831171723 | 76 | 150 | 3.0 | 9.0 | 0.00 | 0.24 | 0.02 | 84 | 1016.6 |
| 20260831171645 | 76 | 213 | 3.0 | 9.0 | 0.00 | 0.24 | 0.02 | 84 | 1016.6 |
| 20260831171536 | 76 | 163 | 3.0 | 9.0 | 0.00 | 0.24 | 0.02 | 84 | 1016.6 |
| 20260831171449 | 76 | 169 | 4.0 | 9.0 | 0.00 | 0.24 | 0.02 | 84 | 1016.6 |
| 20260831171341 | 76 | 159 | 4.0 | 9.0 | 0.00 | 0.24 | 0.02 | 84 | 1016.6 |
| 20260831171233 | 76 | 178 | 3.0 | 9.0 | 0.00 | 0.24 | 0.02 | 84 | 1016.6 |
| 20260831171124 | 76 | 172 | 3.0 | 9.0 | 0.00 | 0.24 | 0.02 | 84 | 1016.7 |
| 20260831171035 | 76 | 146 | 3.0 | 9.0 | 0.00 | 0.24 | 0.02 | 84 | 1016.7 |
| 20260831170930 | 76 | 140 | 4.0 | 9.0 | 0.00 | 0.24 | 0.02 | 84 | 1016.8 |
| 20260831170842 | 76 | 155 | 4.0 | 9.0 | 0.00 | 0.24 | 0.02 | 84 | 1016.8 |
| 20260831170755 | 76 | 158 | 3.0 | 8.0 | 0.00 | 0.24 | 0.02 | 84 | 1016.8 |
| 20260831170623 | 76 | 145 | 2.0 | 8.0 | 0.00 | 0.24 | 0.02 | 84 | 1016.9 |
| 20260831170535 | 76 | 158 | 2.0 | 8.0 | 0.00 | 0.24 | 0.02 | 85 | 1016.9 |
| 20260831170447 | 76 | 161 | 3.0 | 8.0 | 0.00 | 0.24 | 0.02 | 85 | 1016.9 |
| 20260831170401 | 76 | 291 | 2.0 | 8.0 | 0.00 | 0.24 | 0.02 | 85 | 1016.9 |
| 20260831170311 | 76 | 150 | 2.0 | 9.0 | 0.00 | 0.24 | 0.02 | 85 | 1016.9 |
| 20260831170213 | 76 | 155 | 2.0 | 9.0 | 0.00 | 0.24 | 0.02 | 85 | 1016.9 |
| 20260831170042 | 76 | 173 | 1.0 | 9.0 | 0.00 | 0.24 | 0.02 | 85 | 1017.0 |
| 20260831165954 | 76 | 249 | 2.0 | 9.0 | 0.00 | 0.24 | 0.02 | 85 | 1017.0 |
| 20260831165845 | 76 | 219 | 4.0 | 9.0 | 0.00 | 0.24 | 0.02 | 85 | 1017.0 |
| 20260831165756 | 76 | 155 | 3.0 | 9.0 | 0.00 | 0.24 | 0.02 | 85 | 1017.0 |
| 20260831165630 | 76 | 164 | 3.0 | 9.0 | 0.00 | 0.24 | 0.02 | 85 | 1016.9 |
| 20260831165523 | 76 | 161 | 4.0 | 9.0 | 0.00 | 0.24 | 0.02 | 85 | 1016.8 |
| 20260831165435 | 76 | 168 | 3.0 | 9.0 | 0.00 | 0.24 | 0.02 | 85 | 1016.9 |
| 20260831165347 | 76 | 161 | 3.0 | 9.0 | 0.00 | 0.24 | 0.02 | 85 | 1016.9 |
| 20260831165258 | 76 | 172 | 4.0 | 9.0 | 0.00 | 0.24 | 0.02 | 85 | 1016.9 |
| 20260831165149 | 76 | 182 | 2.0 | 10.0 | 0.00 | 0.24 | 0.02 | 86 | 1017.0 |
| 20260831165040 | 76 | 153 | 3.0 | 10.0 | 0.00 | 0.24 | 0.02 | 86 | 1017.0 |
| 20260831164932 | 76 | 153 | 3.0 | 10.0 | 0.00 | 0.24 | 0.02 | 86 | 1017.0 |
| 20260831164823 | 76 | 148 | 2.0 | 10.0 | 0.00 | 0.24 | 0.02 | 87 | 1017.0 |
| 20260831164739 | 75 | 144 | 1.0 | 10.0 | 0.00 | 0.24 | 0.02 | 87 | 1017.1 |
| 20260831164702 | 75 | 182 | 2.0 | 10.0 | 0.00 | 0.24 | 0.02 | 86 | 1017.1 |
| 20260831164533 | 75 | 159 | 3.0 | 10.0 | 0.00 | 0.24 | 0.02 | 87 | 1016.9 |
| 20260831164425 | 75 | 250 | 4.0 | 10.0 | 0.00 | 0.24 | 0.02 | 86 | 1016.9 |
| 20260831164336 | 75 | 154 | 5.0 | 10.0 | 0.00 | 0.24 | 0.02 | 86 | 1016.7 |
| 20260831164247 | 75 | 141 | 4.0 | 10.0 | 0.00 | 0.24 | 0.02 | 86 | 1016.8 |
| 20260831164200 | 75 | 151 | 3.0 | 9.0 | 0.00 | 0.24 | 0.02 | 87 | 1016.7 |
| 20260831164052 | 75 | 165 | 3.0 | 9.0 | 0.00 | 0.24 | 0.02 | 87 | 1016.9 |
| 20260831163942 | 75 | 147 | 3.0 | 9.0 | 0.00 | 0.24 | 0.02 | 87 | 1016.9 |
| 20260831163854 | 75 | 199 | 3.0 | 9.0 | 0.00 | 0.24 | 0.02 | 87 | 1016.8 |
| 20260831163728 | 75 | 155 | 2.0 | 7.0 | 0.00 | 0.24 | 0.02 | 87 | 1017.0 |
| 20260831163641 | 75 | 159 | 2.0 | 7.0 | 0.00 | 0.24 | 0.02 | 87 | 1017.0 |
| 20260831163533 | 75 | 159 | 3.0 | 6.0 | 0.00 | 0.24 | 0.02 | 87 | 1017.0 |
| 20260831163425 | 75 | 157 | 3.0 | 6.0 | 0.00 | 0.24 | 0.02 | 87 | 1016.9 |
| 20260831163337 | 75 | 155 | 3.0 | 6.0 | 0.00 | 0.24 | 0.02 | 87 | 1017.0 |
| 20260831163248 | 75 | 167 | 2.0 | 6.0 | 0.00 | 0.24 | 0.02 | 87 | 1016.9 |
| 20260831163148 | 75 | 153 | 2.0 | 6.0 | 0.00 | 0.24 | 0.02 | 87 | 1016.9 |
| 20260831163039 | 75 | 148 | 3.0 | 6.0 | 0.00 | 0.24 | 0.02 | 87 | 1016.9 |
| 20260831162932 | 74 | 157 | 2.0 | 5.0 | 0.00 | 0.24 | 0.02 | 87 | 1017.0 |
| 20260831162843 | 75 | 175 | 2.0 | 7.0 | 0.00 | 0.24 | 0.02 | 87 | 1017.0 |
| 20260831162759 | 74 | 140 | 2.0 | 7.0 | 0.00 | 0.24 | 0.02 | 87 | 1017.0 |
| 20260831162710 | 75 | 169 | 2.0 | 7.0 | 0.00 | 0.24 | 0.02 | 87 | 1017.1 |
| 20260831162540 | 74 | 173 | 1.0 | 7.0 | 0.00 | 0.24 | 0.02 | 88 | 1017.0 |
| 20260831162430 | 74 | 172 | 1.0 | 7.0 | 0.00 | 0.24 | 0.02 | 88 | 1017.1 |
| 20260831162323 | 74 | 141 | 1.0 | 7.0 | 0.00 | 0.24 | 0.02 | 89 | 1017.1 |
| 20260831162236 | 74 | 153 | 2.0 | 7.0 | 0.00 | 0.24 | 0.02 | 88 | 1017.1 |
| 20260831162126 | 74 | 153 | 3.0 | 7.0 | 0.00 | 0.24 | 0.02 | 88 | 1017.1 |
| 20260831162039 | 74 | 152 | 2.0 | 6.0 | 0.00 | 0.24 | 0.02 | 88 | 1017.1 |
| 20260831161932 | 74 | 152 | 2.0 | 6.0 | 0.00 | 0.24 | 0.02 | 88 | 1017.0 |
| 20260831161828 | 74 | 153 | 1.0 | 6.0 | 0.00 | 0.24 | 0.02 | 88 | 1017.1 |
| 20260831161739 | 74 | 148 | 1.0 | 6.0 | 0.00 | 0.24 | 0.02 | 88 | 1017.1 |
| 20260831161703 | 74 | 261 | 0.0 | 6.0 | 0.00 | 0.24 | 0.02 | 88 | 1017.1 |
| 20260831161533 | 74 | 159 | 2.0 | 6.0 | 0.01 | 0.24 | 0.02 | 87 | 1017.0 |
| 20260831161425 | 74 | 155 | 3.0 | 6.0 | 0.01 | 0.24 | 0.02 | 88 | 1017.0 |
| 20260831161336 | 74 | 152 | 1.0 | 4.0 | 0.01 | 0.24 | 0.02 | 88 | 1017.1 |
| 20260831161248 | 74 | 169 | 1.0 | 4.0 | 0.01 | 0.24 | 0.02 | 88 | 1017.1 |
| 20260831161137 | 74 | 196 | 1.0 | 3.0 | 0.01 | 0.24 | 0.02 | 88 | 1017.1 |
| 20260831161029 | 74 | 196 | 1.0 | 3.0 | 0.01 | 0.24 | 0.02 | 88 | 1017.1 |
| 20260831160926 | 74 | 228 | 0.0 | 3.0 | 0.01 | 0.24 | 0.02 | 88 | 1017.1 |
| 20260831160839 | 74 | 228 | 1.0 | 3.0 | 0.01 | 0.24 | 0.02 | 88 | 1017.1 |
| 20260831160731 | 74 | 228 | 1.0 | 3.0 | 0.01 | 0.24 | 0.02 | 88 | 1017.0 |
| 20260831160642 | 74 | 228 | 1.0 | 5.0 | 0.01 | 0.24 | 0.02 | 89 | 1017.1 |
| 20260831160554 | 74 | 224 | 1.0 | 5.0 | 0.01 | 0.24 | 0.02 | 89 | 1017.0 |
| 20260831160425 | 74 | 135 | 1.0 | 5.0 | 0.01 | 0.24 | 0.02 | 89 | 1017.1 |
| 20260831160338 | 74 | 247 | 0.0 | 5.0 | 0.01 | 0.24 | 0.02 | 89 | 1017.0 |
| 20260831160228 | 74 | 159 | 1.0 | 5.0 | 0.01 | 0.26 | 0.02 | 89 | 1017.0 |
| 20260831160151 | 74 | 159 | 1.0 | 5.0 | 0.01 | 0.26 | 0.02 | 89 | 1017.0 |
| 20260831160026 | 74 | 148 | 0.0 | 5.0 | 0.01 | 0.26 | 0.02 | 89 | 1017.0 |
| 20260831155938 | 74 | 182 | 0.0 | 6.0 | 0.01 | 0.26 | 0.02 | 89 | 1017.1 |
| 20260831155850 | 73 | 182 | 0.0 | 6.0 | 0.01 | 0.26 | 0.02 | 90 | 1017.1 |
| 20260831155801 | 73 | 187 | 0.0 | 6.0 | 0.01 | 0.26 | 0.02 | 90 | 1017.1 |
| 20260831155632 | 73 | 128 | 0.0 | 6.0 | 0.01 | 0.26 | 0.02 | 90 | 1017.0 |
| 20260831155523 | 73 | 128 | 0.0 | 6.0 | 0.01 | 0.26 | 0.02 | 90 | 1017.0 |
| 20260831155436 | 73 | 128 | 0.0 | 6.0 | 0.01 | 0.26 | 0.02 | 90 | 1017.0 |
| 20260831155348 | 73 | 128 | 1.0 | 6.0 | 0.01 | 0.26 | 0.02 | 90 | 1017.0 |
| 20260831155239 | 73 | 128 | 1.0 | 6.0 | 0.01 | 0.26 | 0.02 | 90 | 1017.0 |
| 20260831155131 | 73 | 126 | 0.0 | 5.0 | 0.01 | 0.26 | 0.02 | 90 | 1017.0 |
| 20260831155027 | 73 | 165 | 1.0 | 4.0 | 0.01 | 0.26 | 0.02 | 90 | 1017.1 |
| 20260831154939 | 73 | 165 | 1.0 | 4.0 | 0.01 | 0.26 | 0.02 | 90 | 1017.0 |
| 20260831154827 | 73 | 148 | 1.0 | 4.0 | 0.01 | 0.26 | 0.02 | 90 | 1017.0 |
| 20260831154740 | 73 | 153 | 1.0 | 3.0 | 0.01 | 0.26 | 0.02 | 90 | 1017.1 |
| 20260831154703 | 73 | 126 | 1.0 | 2.0 | 0.01 | 0.26 | 0.02 | 90 | 1017.1 |
| 20260831154534 | 73 | 157 | 0.0 | 2.0 | 0.01 | 0.26 | 0.02 | 90 | 1017.1 |
| 20260831154425 | 72 | 157 | 1.0 | 2.0 | 0.01 | 0.26 | 0.02 | 90 | 1017.0 |
| 20260831154336 | 72 | 157 | 1.0 | 2.0 | 0.01 | 0.26 | 0.02 | 90 | 1017.0 |
| 20260831154233 | 72 | 172 | 0.0 | 2.0 | 0.01 | 0.26 | 0.02 | 90 | 1017.1 |
| 20260831154145 | 72 | 172 | 0.0 | 2.0 | 0.01 | 0.26 | 0.02 | 90 | 1017.1 |
| 20260831154036 | 72 | 172 | 0.0 | 2.0 | 0.01 | 0.26 | 0.02 | 90 | 1017.2 |
| 20260831153929 | 72 | 172 | 0.0 | 2.0 | 0.01 | 0.26 | 0.02 | 90 | 1017.2 |
| 20260831153840 | 72 | 172 | 0.0 | 2.0 | 0.01 | 0.26 | 0.02 | 90 | 1017.2 |
| 20260831153732 | 72 | 172 | 0.0 | 2.0 | 0.01 | 0.26 | 0.02 | 90 | 1017.2 |
| 20260831153623 | 72 | 172 | 0.0 | 2.0 | 0.01 | 0.26 | 0.02 | 90 | 1017.2 |
| 20260831153536 | 72 | 172 | 0.0 | 3.0 | 0.01 | 0.26 | 0.02 | 90 | 1017.2 |
| 20260831153448 | 72 | 172 | 0.0 | 3.0 | 0.01 | 0.26 | 0.02 | 90 | 1017.1 |
| 20260831153400 | 72 | 172 | 1.0 | 3.0 | 0.01 | 0.26 | 0.02 | 90 | 1017.1 |
| 20260831153316 | 72 | 172 | 0.0 | 3.0 | 0.01 | 0.26 | 0.02 | 90 | 1017.0 |
| 20260831153217 | 72 | 172 | 0.0 | 3.0 | 0.01 | 0.26 | 0.02 | 90 | 1017.0 |
| 20260831153024 | 72 | 172 | 1.0 | 3.0 | 0.01 | 0.26 | 0.02 | 90 | 1017.1 |
| 20260831152937 | 72 | 172 | 1.0 | 3.0 | 0.01 | 0.26 | 0.02 | 90 | 1017.1 |
| 20260831152829 | 72 | 172 | 1.0 | 4.0 | 0.01 | 0.26 | 0.02 | 90 | 1017.2 |
| 20260831152741 | 72 | 172 | 0.0 | 4.0 | 0.01 | 0.26 | 0.02 | 90 | 1017.1 |
| 20260831152653 | 72 | 173 | 0.0 | 0.0 | 0.01 | 0.26 | 0.02 | 90 | 1017.1 |
| 20260831152524 | 72 | 173 | 0.0 | 0.0 | 0.01 | 0.26 | 0.02 | 90 | 1017.1 |
| 20260831152437 | 72 | 173 | 0.0 | 2.0 | 0.01 | 0.26 | 0.02 | 90 | 1017.1 |
| 20260831152347 | 72 | 173 | 0.0 | 2.0 | 0.01 | 0.26 | 0.02 | 90 | 1017.1 |
| 20260831152242 | 72 | 159 | 0.0 | 2.0 | 0.01 | 0.26 | 0.02 | 90 | 1017.2 |
| 20260831152134 | 72 | 250 | 0.0 | 3.0 | 0.01 | 0.26 | 0.02 | 89 | 1017.2 |
| 20260831152044 | 72 | 256 | 0.0 | 4.0 | 0.01 | 0.26 | 0.02 | 89 | 1017.1 |
| 20260831151934 | 72 | 242 | 0.0 | 4.0 | 0.01 | 0.26 | 0.02 | 90 | 1017.0 |
| 20260831151827 | 72 | 244 | 0.0 | 4.0 | 0.01 | 0.26 | 0.02 | 90 | 1017.0 |
| 20260831151740 | 72 | 224 | 0.0 | 4.0 | 0.01 | 0.26 | 0.02 | 89 | 1016.9 |
| 20260831151703 | 72 | 246 | 1.0 | 4.0 | 0.00 | 0.25 | 0.01 | 90 | 1016.9 |
| 20260831151534 | 72 | 147 | 1.0 | 4.0 | 0.00 | 0.25 | 0.01 | 89 | 1016.8 |
| 20260831151426 | 72 | 119 | 1.0 | 4.0 | 0.00 | 0.25 | 0.01 | 89 | 1016.7 |
| 20260831151322 | 72 | 122 | 2.0 | 4.0 | 0.00 | 0.25 | 0.01 | 89 | 1016.8 |
| 20260831151233 | 72 | 167 | 2.0 | 4.0 | 0.00 | 0.25 | 0.01 | 89 | 1016.8 |
| 20260831151145 | 72 | 153 | 2.0 | 5.0 | 0.00 | 0.25 | 0.01 | 89 | 1016.8 |
| 20260831151057 | 72 | 167 | 2.0 | 3.0 | 0.00 | 0.25 | 0.01 | 89 | 1016.8 |
| 20260831151009 | 72 | 184 | 1.0 | 3.0 | 0.00 | 0.25 | 0.01 | 89 | 1016.9 |
| 20260831150900 | 72 | 267 | 0.0 | 4.0 | 0.00 | 0.25 | 0.01 | 89 | 1017.1 |
| 20260831150731 | 72 | 211 | 0.0 | 4.0 | 0.00 | 0.25 | 0.01 | 89 | 1017.2 |
| 20260831150642 | 72 | 317 | 0.0 | 4.0 | 0.00 | 0.25 | 0.01 | 89 | 1017.2 |
| 20260831150533 | 72 | 91 | 1.0 | 5.0 | 0.00 | 0.25 | 0.01 | 89 | 1017.2 |
| 20260831150425 | 72 | 273 | 1.0 | 5.0 | 0.00 | 0.25 | 0.01 | 89 | 1017.5 |
| 20260831150341 | 72 | 231 | 1.0 | 5.0 | 0.00 | 0.25 | 0.01 | 89 | 1017.5 |
| 20260831150231 | 72 | 282 | 2.0 | 5.0 | 0.00 | 0.38 | 0.01 | 89 | 1017.5 |
| 20260831150154 | 72 | 251 | 2.0 | 5.0 | 0.00 | 0.38 | 0.01 | 89 | 1017.5 |
| 20260831150024 | 72 | 244 | 2.0 | 5.0 | 0.00 | 0.38 | 0.01 | 89 | 1017.5 |
| 20260831145936 | 72 | 244 | 3.0 | 8.0 | 0.00 | 0.38 | 0.01 | 89 | 1017.6 |
| 20260831145828 | 72 | 245 | 3.0 | 8.0 | 0.00 | 0.38 | 0.01 | 89 | 1017.5 |
| 20260831145741 | 72 | 242 | 3.0 | 8.0 | 0.00 | 0.38 | 0.01 | 89 | 1017.5 |
| 20260831145633 | 72 | 255 | 2.0 | 8.0 | 0.00 | 0.38 | 0.01 | 89 | 1017.5 |
| 20260831145527 | 72 | 198 | 2.0 | 8.0 | 0.00 | 0.38 | 0.01 | 89 | 1017.5 |
| 20260831145440 | 72 | 219 | 2.0 | 8.0 | 0.00 | 0.38 | 0.01 | 89 | 1017.5 |
| 20260831145331 | 72 | 244 | 3.0 | 8.0 | 0.00 | 0.38 | 0.01 | 89 | 1017.5 |
| 20260831145223 | 72 | 258 | 4.0 | 8.0 | 0.00 | 0.38 | 0.01 | 90 | 1017.4 |
| 20260831145134 | 72 | 210 | 3.0 | 7.0 | 0.00 | 0.38 | 0.01 | 90 | 1017.5 |
| 20260831145025 | 72 | 272 | 1.0 | 4.0 | 0.00 | 0.38 | 0.01 | 90 | 1017.4 |
| 20260831144938 | 72 | 223 | 2.0 | 4.0 | 0.00 | 0.38 | 0.01 | 90 | 1017.4 |
| 20260831144830 | 72 | 229 | 2.0 | 4.0 | 0.00 | 0.38 | 0.01 | 90 | 1017.3 |
| 20260831144726 | 72 | 245 | 2.0 | 4.0 | 0.01 | 0.38 | 0.01 | 90 | 1017.3 |
| 20260831144648 | 72 | 246 | 2.0 | 4.0 | 0.01 | 0.38 | 0.01 | 90 | 1017.4 |
| 20260831144540 | 72 | 267 | 2.0 | 4.0 | 0.01 | 0.38 | 0.01 | 90 | 1017.4 |
| 20260831144431 | 72 | 253 | 2.0 | 4.0 | 0.01 | 0.38 | 0.01 | 90 | 1017.4 |
| 20260831144324 | 72 | 232 | 2.0 | 4.0 | 0.01 | 0.38 | 0.01 | 90 | 1017.3 |
| 20260831144239 | 72 | 238 | 1.0 | 6.0 | 0.01 | 0.38 | 0.01 | 90 | 1017.3 |
| 20260831144147 | 72 | 221 | 0.0 | 6.0 | 0.01 | 0.38 | 0.01 | 90 | 1017.3 |
| 20260831144059 | 72 | 215 | 1.0 | 6.0 | 0.01 | 0.38 | 0.01 | 90 | 1017.3 |
| 20260831143930 | 72 | 266 | 2.0 | 6.0 | 0.01 | 0.38 | 0.01 | 90 | 1017.3 |
| 20260831143826 | 72 | 191 | 2.0 | 6.0 | 0.01 | 0.38 | 0.01 | 90 | 1017.3 |
| 20260831143737 | 72 | 257 | 2.0 | 6.0 | 0.01 | 0.38 | 0.01 | 90 | 1017.3 |
| 20260831143630 | 72 | 251 | 3.0 | 6.0 | 0.01 | 0.38 | 0.01 | 90 | 1017.4 |
| 20260831143542 | 72 | 225 | 3.0 | 6.0 | 0.01 | 0.38 | 0.01 | 91 | 1017.3 |
| 20260831143433 | 72 | 242 | 2.0 | 7.0 | 0.01 | 0.38 | 0.01 | 91 | 1017.4 |
| 20260831143342 | 72 | 223 | 2.0 | 7.0 | 0.01 | 0.38 | 0.01 | 91 | 1017.4 |
| 20260831143242 | 72 | 274 | 2.0 | 7.0 | 0.01 | 0.38 | 0.01 | 91 | 1017.5 |
| 20260831143143 | 72 | 259 | 2.0 | 7.0 | 0.01 | 0.38 | 0.01 | 91 | 1017.4 |
| 20260831143034 | 72 | 238 | 2.0 | 7.0 | 0.01 | 0.38 | 0.01 | 91 | 1017.3 |
| 20260831142947 | 72 | 258 | 3.0 | 7.0 | 0.01 | 0.38 | 0.01 | 91 | 1017.2 |
| 20260831142842 | 71 | 234 | 3.0 | 7.0 | 0.01 | 0.38 | 0.01 | 91 | 1017.3 |
| 20260831142754 | 71 | 241 | 4.0 | 7.0 | 0.01 | 0.38 | 0.01 | 91 | 1017.2 |
| 20260831142624 | 71 | 234 | 3.0 | 7.0 | 0.01 | 0.38 | 0.01 | 91 | 1017.3 |
| 20260831142536 | 71 | 262 | 2.0 | 5.0 | 0.01 | 0.38 | 0.01 | 91 | 1017.2 |
| 20260831142427 | 71 | 273 | 1.0 | 5.0 | 0.01 | 0.38 | 0.01 | 91 | 1017.1 |
| 20260831142340 | 71 | 116 | 1.0 | 5.0 | 0.01 | 0.38 | 0.01 | 91 | 1017.1 |
| 20260831142232 | 71 | 271 | 2.0 | 5.0 | 0.01 | 0.38 | 0.01 | 91 | 1017.1 |
| 20260831142144 | 71 | 240 | 2.0 | 5.0 | 0.01 | 0.38 | 0.01 | 91 | 1017.1 |
| 20260831142035 | 71 | 180 | 2.0 | 5.0 | 0.01 | 0.38 | 0.01 | 91 | 1017.1 |
| 20260831141947 | 71 | 218 | 2.0 | 5.0 | 0.01 | 0.38 | 0.01 | 91 | 1017.1 |
| 20260831141842 | 71 | 348 | 2.0 | 5.0 | 0.01 | 0.38 | 0.01 | 91 | 1017.1 |
| 20260831141754 | 71 | 232 | 3.0 | 7.0 | 0.01 | 0.38 | 0.01 | 91 | 1017.2 |
| 20260831141655 | 71 | 244 | 3.0 | 7.0 | 0.01 | 0.38 | 0.01 | 91 | 1017.2 |
| 20260831141526 | 71 | 248 | 3.0 | 7.0 | 0.01 | 0.38 | 0.01 | 91 | 1017.2 |
| 20260831141439 | 71 | 198 | 3.0 | 7.0 | 0.01 | 0.38 | 0.01 | 91 | 1017.3 |
| 20260831141331 | 71 | 259 | 2.0 | 7.0 | 0.01 | 0.38 | 0.01 | 91 | 1017.2 |
| 20260831141223 | 71 | 232 | 1.0 | 7.0 | 0.01 | 0.38 | 0.01 | 91 | 1017.1 |
| 20260831141135 | 71 | 196 | 3.0 | 7.0 | 0.01 | 0.38 | 0.01 | 91 | 1017.2 |
| 20260831141046 | 71 | 222 | 3.0 | 7.0 | 0.01 | 0.38 | 0.01 | 91 | 1017.2 |
| 20260831140936 | 71 | 228 | 2.0 | 4.0 | 0.01 | 0.38 | 0.01 | 91 | 1017.2 |
| 20260831140833 | 71 | 234 | 2.0 | 4.0 | 0.01 | 0.38 | 0.01 | 91 | 1017.1 |
| 20260831140723 | 71 | 259 | 2.0 | 4.0 | 0.01 | 0.38 | 0.01 | 91 | 1017.1 |
| 20260831140635 | 71 | 234 | 2.0 | 4.0 | 0.01 | 0.38 | 0.01 | 91 | 1017.1 |
| 20260831140526 | 71 | 240 | 2.0 | 4.0 | 0.01 | 0.38 | 0.01 | 91 | 1017.1 |
| 20260831140438 | 71 | 249 | 2.0 | 3.0 | 0.01 | 0.38 | 0.01 | 91 | 1017.1 |
| 20260831140329 | 71 | 229 | 0.0 | 3.0 | 0.01 | 0.38 | 0.01 | 91 | 1017.1 |
| 20260831140239 | 71 | 332 | 0.0 | 7.0 | 0.01 | 0.44 | 0.01 | 91 | 1017.1 |
| 20260831140201 | 71 | 219 | 0.0 | 7.0 | 0.01 | 0.44 | 0.01 | 91 | 1017.1 |
| 20260831140036 | 71 | 234 | 1.0 | 7.0 | 0.01 | 0.44 | 0.01 | 91 | 1017.1 |
| 20260831135927 | 71 | 234 | 1.0 | 7.0 | 0.01 | 0.44 | 0.01 | 91 | 1017.1 |
| 20260831135839 | 71 | 229 | 1.0 | 7.0 | 0.01 | 0.44 | 0.01 | 91 | 1017.2 |
| 20260831135731 | 71 | 227 | 0.0 | 7.0 | 0.01 | 0.44 | 0.01 | 91 | 1017.1 |
| 20260831135623 | 71 | 227 | 1.0 | 7.0 | 0.01 | 0.44 | 0.01 | 91 | 1017.2 |
| 20260831135536 | 71 | 227 | 2.0 | 7.0 | 0.01 | 0.44 | 0.01 | 90 | 1017.2 |
| 20260831135428 | 71 | 235 | 3.0 | 7.0 | 0.01 | 0.44 | 0.01 | 90 | 1017.2 |
| 20260831135339 | 71 | 221 | 2.0 | 4.0 | 0.01 | 0.44 | 0.01 | 90 | 1017.2 |
| 20260831135235 | 71 | 237 | 2.0 | 4.0 | 0.01 | 0.44 | 0.01 | 90 | 1017.2 |
| 20260831135146 | 71 | 237 | 2.0 | 4.0 | 0.01 | 0.44 | 0.01 | 90 | 1017.1 |
| 20260831135100 | 71 | 237 | 1.0 | 4.0 | 0.01 | 0.44 | 0.01 | 90 | 1017.2 |
| 20260831134931 | 71 | 229 | 1.0 | 4.0 | 0.01 | 0.44 | 0.01 | 90 | 1017.1 |
| 20260831134824 | 71 | 193 | 2.0 | 4.0 | 0.01 | 0.44 | 0.01 | 90 | 1017.3 |
| 20260831134736 | 71 | 154 | 1.0 | 4.0 | 0.00 | 0.43 | 0.00 | 90 | 1017.3 |
| 20260831134658 | 71 | 194 | 1.0 | 4.0 | 0.00 | 0.43 | 0.00 | 90 | 1017.3 |
| 20260831134549 | 71 | 167 | 0.0 | 3.0 | 0.00 | 0.43 | 0.00 | 90 | 1017.3 |
| 20260831134502 | 71 | 167 | 1.0 | 3.0 | 0.00 | 0.43 | 0.00 | 90 | 1017.4 |
| 20260831134354 | 71 | 244 | 1.0 | 3.0 | 0.00 | 0.43 | 0.00 | 90 | 1017.4 |
| 20260831134307 | 71 | 217 | 1.0 | 3.0 | 0.00 | 0.43 | 0.00 | 90 | 1017.3 |
| 20260831134202 | 71 | 223 | 0.0 | 2.0 | 0.00 | 0.43 | 0.00 | 90 | 1017.3 |
| 20260831134034 | 71 | 235 | 0.0 | 2.0 | 0.00 | 0.43 | 0.00 | 90 | 1017.3 |
| 20260831133925 | 71 | 235 | 0.0 | 2.0 | 0.00 | 0.43 | 0.00 | 90 | 1017.3 |
| 20260831133837 | 71 | 235 | 0.0 | 1.0 | 0.00 | 0.43 | 0.00 | 90 | 1017.2 |
| 20260831133729 | 71 | 234 | 0.0 | 3.0 | 0.00 | 0.43 | 0.00 | 90 | 1017.2 |
| 20260831133641 | 71 | 161 | 0.0 | 3.0 | 0.00 | 0.43 | 0.00 | 90 | 1017.1 |
| 20260831133534 | 71 | 237 | 0.0 | 3.0 | 0.00 | 0.43 | 0.00 | 90 | 1017.2 |
| 20260831133445 | 71 | 237 | 0.0 | 3.0 | 0.00 | 0.43 | 0.00 | 90 | 1017.3 |
| 20260831133357 | 71 | 237 | 0.0 | 3.0 | 0.00 | 0.43 | 0.00 | 90 | 1017.2 |
| 20260831133255 | 72 | 237 | 0.0 | 3.0 | 0.00 | 0.43 | 0.00 | 90 | 1017.2 |
| 20260831133217 | 72 | 237 | 0.0 | 3.0 | 0.00 | 0.43 | 0.00 | 90 | 1017.2 |
| 20260831133026 | 72 | 217 | 1.0 | 3.0 | 0.00 | 0.43 | 0.00 | 90 | 1017.2 |
| 20260831132938 | 72 | 234 | 1.0 | 3.0 | 0.00 | 0.43 | 0.00 | 90 | 1017.2 |
| 20260831132850 | 71 | 250 | 1.0 | 4.0 | 0.00 | 0.43 | 0.00 | 90 | 1017.2 |
| 20260831132802 | 72 | 250 | 2.0 | 4.0 | 0.00 | 0.43 | 0.00 | 90 | 1017.2 |
| 20260831132653 | 72 | 250 | 1.0 | 4.0 | 0.00 | 0.43 | 0.00 | 90 | 1017.2 |
| 20260831132524 | 71 | 209 | 0.0 | 4.0 | 0.00 | 0.43 | 0.00 | 90 | 1017.1 |
| 20260831132437 | 71 | 169 | 1.0 | 4.0 | 0.00 | 0.43 | 0.00 | 90 | 1017.1 |
| 20260831132327 | 71 | 144 | 1.0 | 4.0 | 0.00 | 0.43 | 0.00 | 90 | 1017.2 |
| 20260831132224 | 71 | 274 | 2.0 | 4.0 | 0.00 | 0.43 | 0.00 | 90 | 1017.2 |
| 20260831132136 | 71 | 285 | 2.0 | 4.0 | 0.00 | 0.43 | 0.00 | 90 | 1017.2 |
| 20260831132029 | 71 | 280 | 1.0 | 4.0 | 0.00 | 0.43 | 0.00 | 90 | 1017.2 |
| 20260831131922 | 71 | 139 | 0.0 | 2.0 | 0.00 | 0.43 | 0.00 | 90 | 1017.1 |
| 20260831131835 | 71 | 153 | 0.0 | 0.0 | 0.00 | 0.43 | 0.00 | 90 | 1017.2 |
| 20260831131747 | 71 | 204 | 0.0 | 0.0 | 0.00 | 0.43 | 0.00 | 90 | 1017.2 |
| 20260831131708 | 71 | 211 | 0.0 | 0.0 | 0.00 | 0.43 | 0.00 | 90 | 1017.2 |
| 20260831131559 | 71 | 211 | 0.0 | 0.0 | 0.00 | 0.43 | 0.00 | 90 | 1017.2 |
| 20260831131430 | 71 | 211 | 0.0 | 0.0 | 0.00 | 0.43 | 0.00 | 90 | 1017.2 |
| 20260831131325 | 71 | 211 | 0.0 | 0.0 | 0.00 | 0.43 | 0.00 | 90 | 1017.3 |
| 20260831131238 | 71 | 221 | 0.0 | 0.0 | 0.00 | 0.43 | 0.00 | 90 | 1017.4 |
| 20260831131150 | 71 | 221 | 0.0 | 0.0 | 0.00 | 0.43 | 0.00 | 90 | 1017.4 |
| 20260831131102 | 71 | 221 | 0.0 | 0.0 | 0.00 | 0.43 | 0.00 | 90 | 1017.3 |
| 20260831130933 | 71 | 221 | 0.0 | 0.0 | 0.00 | 0.43 | 0.00 | 90 | 1017.3 |
| 20260831130826 | 71 | 221 | 0.0 | 0.0 | 0.00 | 0.43 | 0.00 | 90 | 1017.3 |
| 20260831130738 | 71 | 221 | 0.0 | 0.0 | 0.00 | 0.43 | 0.00 | 90 | 1017.2 |
| 20260831130651 | 71 | 221 | 0.0 | 0.0 | 0.00 | 0.43 | 0.00 | 90 | 1017.1 |
| 20260831130542 | 71 | 221 | 0.0 | 0.0 | 0.00 | 0.43 | 0.00 | 90 | 1017.2 |
| 20260831130438 | 71 | 221 | 0.0 | 0.0 | 0.00 | 0.43 | 0.00 | 90 | 1017.1 |
| 20260831130350 | 71 | 221 | 0.0 | 0.0 | 0.00 | 0.43 | 0.00 | 91 | 1017.1 |
| 20260831130302 | 71 | 221 | 0.0 | 0.0 | 0.00 | 0.43 | 0.00 | 91 | 1017.2 |
| 20260831130223 | 71 | 221 | 0.0 | 0.0 | 0.00 | 0.43 | 0.00 | 91 | 1017.1 |
| 20260831130034 | 71 | 221 | 0.0 | 0.0 | 0.00 | 0.43 | 0.00 | 91 | 1017.1 |
| 20260831125925 | 71 | 221 | 0.0 | 0.0 | 0.00 | 0.43 | 0.00 | 91 | 1017.1 |
| 20260831125837 | 71 | 221 | 0.0 | 0.0 | 0.00 | 0.43 | 0.00 | 90 | 1017.1 |
| 20260831125749 | 71 | 221 | 0.0 | 0.0 | 0.00 | 0.43 | 0.00 | 91 | 1017.1 |
| 20260831125640 | 71 | 221 | 0.0 | 0.0 | 0.00 | 0.43 | 0.00 | 91 | 1017.0 |
| 20260831125533 | 71 | 115 | 0.0 | 0.0 | 0.00 | 0.43 | 0.00 | 91 | 1017.1 |
| 20260831125429 | 71 | 115 | 0.0 | 0.0 | 0.00 | 0.43 | 0.00 | 91 | 1017.1 |
| 20260831125341 | 71 | 115 | 0.0 | 0.0 | 0.00 | 0.43 | 0.00 | 91 | 1017.0 |
| 20260831125233 | 71 | 115 | 0.0 | 0.0 | 0.00 | 0.43 | 0.00 | 91 | 1017.1 |
| 20260831125124 | 71 | 115 | 0.0 | 0.0 | 0.00 | 0.43 | 0.00 | 91 | 1017.2 |
| 20260831125035 | 71 | 115 | 0.0 | 0.0 | 0.00 | 0.43 | 0.00 | 91 | 1017.1 |
| 20260831124926 | 71 | 115 | 0.0 | 0.0 | 0.00 | 0.43 | 0.00 | 91 | 1017.2 |
| 20260831124838 | 71 | 115 | 0.0 | 0.0 | 0.00 | 0.43 | 0.00 | 91 | 1017.2 |
| 20260831124729 | 71 | 115 | 0.0 | 0.0 | 0.00 | 0.43 | 0.00 | 91 | 1017.1 |
| 20260831124655 | 71 | 115 | 0.0 | 0.0 | 0.00 | 0.43 | 0.00 | 91 | 1017.1 |
| 20260831124547 | 71 | 115 | 0.0 | 0.0 | 0.00 | 0.43 | 0.00 | 91 | 1017.1 |
| 20260831124439 | 71 | 115 | 0.0 | 0.0 | 0.00 | 0.43 | 0.00 | 91 | 1017.0 |
| 20260831124330 | 71 | 115 | 0.0 | 0.0 | 0.00 | 0.43 | 0.00 | 91 | 1017.1 |
| 20260831124242 | 71 | 115 | 0.0 | 0.0 | 0.00 | 0.43 | 0.00 | 91 | 1017.1 |
| 20260831124155 | 71 | 115 | 0.0 | 0.0 | 0.00 | 0.43 | 0.00 | 91 | 1017.0 |
| 20260831124027 | 71 | 115 | 0.0 | 0.0 | 0.00 | 0.43 | 0.00 | 91 | 1017.1 |
| 20260831123938 | 71 | 115 | 0.0 | 0.0 | 0.00 | 0.43 | 0.00 | 91 | 1017.1 |
| 20260831123830 | 71 | 146 | 0.0 | 0.0 | 0.00 | 0.43 | 0.00 | 91 | 1017.1 |
| 20260831123726 | 71 | 153 | 0.0 | 0.0 | 0.00 | 0.43 | 0.00 | 91 | 1017.1 |
| 20260831123638 | 71 | 153 | 0.0 | 0.0 | 0.00 | 0.43 | 0.00 | 91 | 1017.1 |
| 20260831123530 | 71 | 153 | 0.0 | 0.0 | 0.00 | 0.43 | 0.00 | 91 | 1017.1 |
| 20260831123442 | 71 | 153 | 0.0 | 0.0 | 0.00 | 0.43 | 0.00 | 91 | 1017.0 |
| 20260831123353 | 71 | 153 | 0.0 | 0.0 | 0.00 | 0.43 | 0.00 | 91 | 1017.1 |
| 20260831123243 | 71 | 153 | 0.0 | 0.0 | 0.00 | 0.43 | 0.00 | 91 | 1017.1 |
| 20260831123204 | 71 | 153 | 0.0 | 0.0 | 0.00 | 0.43 | 0.00 | 91 | 1017.0 |
| 20260831123034 | 71 | 153 | 0.0 | 0.0 | 0.00 | 0.43 | 0.00 | 91 | 1017.1 |
| 20260831122947 | 71 | 153 | 0.0 | 0.0 | 0.00 | 0.43 | 0.00 | 91 | 1017.0 |
| 20260831122838 | 71 | 153 | 0.0 | 0.0 | 0.00 | 0.43 | 0.00 | 91 | 1017.0 |
| 20260831122750 | 71 | 153 | 0.0 | 0.0 | 0.00 | 0.43 | 0.00 | 91 | 1017.0 |
| 20260831122701 | 71 | 153 | 0.0 | 0.0 | 0.00 | 0.43 | 0.00 | 91 | 1016.9 |
| 20260831122557 | 71 | 153 | 0.0 | 0.0 | 0.00 | 0.43 | 0.00 | 91 | 1017.0 |
| 20260831122428 | 71 | 153 | 0.0 | 0.0 | 0.00 | 0.43 | 0.00 | 91 | 1017.0 |
| 20260831122341 | 71 | 153 | 0.0 | 0.0 | 0.00 | 0.43 | 0.00 | 91 | 1016.9 |
| 20260831122253 | 71 | 153 | 0.0 | 0.0 | 0.00 | 0.43 | 0.00 | 91 | 1016.9 |
| 20260831122206 | 71 | 153 | 0.0 | 0.0 | 0.00 | 0.43 | 0.00 | 91 | 1016.9 |
| 20260831122118 | 71 | 153 | 0.0 | 0.0 | 0.00 | 0.43 | 0.00 | 91 | 1016.9 |
| 20260831122031 | 71 | 153 | 0.0 | 0.0 | 0.00 | 0.43 | 0.00 | 91 | 1016.9 |
| 20260831121901 | 71 | 153 | 0.0 | 0.0 | 0.00 | 0.43 | 0.00 | 91 | 1016.9 |
| 20260831121813 | 71 | 153 | 0.0 | 0.0 | 0.00 | 0.43 | 0.00 | 91 | 1017.0 |
| 20260831121714 | 71 | 153 | 0.0 | 0.0 | 0.00 | 0.43 | 0.00 | 91 | 1016.8 |
| 20260831121544 | 71 | 153 | 0.0 | 0.0 | 0.00 | 0.43 | 0.00 | 91 | 1016.8 |
| 20260831121435 | 71 | 153 | 0.0 | 0.0 | 0.00 | 0.43 | 0.00 | 91 | 1016.8 |
| 20260831121331 | 71 | 153 | 0.0 | 0.0 | 0.00 | 0.43 | 0.00 | 91 | 1016.9 |
| 20260831121223 | 71 | 153 | 0.0 | 0.0 | 0.00 | 0.43 | 0.00 | 91 | 1016.9 |
| 20260831121134 | 71 | 153 | 0.0 | 0.0 | 0.00 | 0.43 | 0.00 | 91 | 1016.8 |
| 20260831121027 | 71 | 153 | 0.0 | 0.0 | 0.00 | 0.43 | 0.00 | 91 | 1016.8 |
| 20260831120940 | 71 | 153 | 0.0 | 0.0 | 0.00 | 0.43 | 0.00 | 91 | 1016.8 |
| 20260831120832 | 72 | 153 | 0.0 | 0.0 | 0.00 | 0.43 | 0.00 | 91 | 1016.7 |
| 20260831120724 | 71 | 153 | 0.0 | 0.0 | 0.00 | 0.43 | 0.00 | 91 | 1016.7 |
| 20260831120636 | 72 | 153 | 0.0 | 0.0 | 0.00 | 0.43 | 0.00 | 91 | 1016.8 |
| 20260831120553 | 72 | 153 | 0.0 | 0.0 | 0.00 | 0.43 | 0.00 | 91 | 1016.8 |
| 20260831120424 | 72 | 153 | 0.0 | 5.0 | 0.00 | 0.43 | 0.00 | 91 | 1016.7 |
| 20260831120337 | 72 | 153 | 0.0 | 5.0 | 0.00 | 0.43 | 0.00 | 91 | 1016.7 |
| 20260831120228 | 72 | 153 | 0.0 | 5.0 | 0.00 | 0.43 | 0.00 | 90 | 1016.6 |
| 20260831120151 | 72 | 153 | 0.0 | 5.0 | 0.00 | 0.43 | 0.00 | 91 | 1016.6 |
| 20260831120043 | 72 | 153 | 0.0 | 5.0 | 0.00 | 0.43 | 0.00 | 90 | 1016.6 |
| 20260831115956 | 72 | 153 | 0.0 | 5.0 | 0.00 | 0.43 | 0.00 | 91 | 1016.5 |
| 20260831115826 | 71 | 153 | 0.0 | 5.0 | 0.00 | 0.43 | 0.00 | 90 | 1016.5 |
| 20260831115738 | 71 | 153 | 0.0 | 5.0 | 0.00 | 0.43 | 0.00 | 90 | 1016.5 |
| 20260831115634 | 71 | 153 | 0.0 | 5.0 | 0.00 | 0.43 | 0.00 | 90 | 1016.4 |
| 20260831115546 | 71 | 153 | 1.0 | 5.0 | 0.00 | 0.43 | 0.00 | 91 | 1016.3 |
| 20260831115436 | 71 | 153 | 1.0 | 5.0 | 0.00 | 0.43 | 0.00 | 91 | 1016.4 |
| 20260831115329 | 71 | 146 | 1.0 | 4.0 | 0.00 | 0.43 | 0.00 | 91 | 1016.4 |
| 20260831115240 | 71 | 173 | 1.0 | 4.0 | 0.00 | 0.43 | 0.00 | 91 | 1016.2 |
| 20260831115132 | 71 | 150 | 1.0 | 6.0 | 0.00 | 0.43 | 0.00 | 91 | 1016.3 |
| 20260831115024 | 71 | 152 | 0.0 | 6.0 | 0.00 | 0.43 | 0.00 | 91 | 1016.2 |
| 20260831114935 | 71 | 144 | 0.0 | 6.0 | 0.00 | 0.43 | 0.00 | 91 | 1016.3 |
| 20260831114828 | 71 | 144 | 1.0 | 6.0 | 0.00 | 0.43 | 0.00 | 91 | 1016.2 |
| 20260831114724 | 71 | 143 | 1.0 | 6.0 | 0.00 | 0.43 | 0.00 | 91 | 1016.2 |
| 20260831114647 | 71 | 159 | 1.0 | 6.0 | 0.00 | 0.43 | 0.00 | 91 | 1016.1 |
| 20260831114537 | 71 | 159 | 1.0 | 6.0 | 0.00 | 0.43 | 0.00 | 91 | 1016.2 |
| 20260831114427 | 71 | 151 | 3.0 | 6.0 | 0.00 | 0.43 | 0.00 | 91 | 1016.1 |
| 20260831114339 | 71 | 149 | 2.0 | 5.0 | 0.00 | 0.43 | 0.00 | 91 | 1016.0 |
| 20260831114232 | 71 | 151 | 1.0 | 5.0 | 0.00 | 0.43 | 0.00 | 91 | 1016.2 |
| 20260831114124 | 71 | 151 | 1.0 | 5.0 | 0.00 | 0.43 | 0.00 | 91 | 1016.1 |
| 20260831114035 | 71 | 151 | 1.0 | 5.0 | 0.00 | 0.43 | 0.00 | 91 | 1016.1 |
| 20260831113932 | 71 | 190 | 0.0 | 4.0 | 0.00 | 0.43 | 0.00 | 91 | 1016.1 |
| 20260831113823 | 71 | 142 | 0.0 | 4.0 | 0.00 | 0.43 | 0.00 | 91 | 1016.2 |
| 20260831113735 | 71 | 142 | 0.0 | 4.0 | 0.00 | 0.43 | 0.00 | 91 | 1016.1 |
| 20260831113647 | 71 | 177 | 1.0 | 4.0 | 0.00 | 0.43 | 0.00 | 91 | 1016.1 |
| 20260831113559 | 71 | 177 | 1.0 | 4.0 | 0.00 | 0.43 | 0.00 | 91 | 1016.1 |
| 20260831113512 | 71 | 146 | 2.0 | 4.0 | 0.00 | 0.43 | 0.00 | 91 | 1016.0 |
| 20260831113404 | 71 | 153 | 1.0 | 5.0 | 0.00 | 0.43 | 0.00 | 91 | 1016.0 |
| 20260831113242 | 71 | 174 | 1.0 | 5.0 | 0.00 | 0.43 | 0.00 | 91 | 1016.1 |
| 20260831113144 | 71 | 159 | 1.0 | 5.0 | 0.00 | 0.43 | 0.00 | 91 | 1016.1 |
| 20260831113035 | 71 | 159 | 1.0 | 5.0 | 0.00 | 0.43 | 0.00 | 91 | 1016.0 |
| 20260831112927 | 71 | 153 | 1.0 | 5.0 | 0.00 | 0.43 | 0.00 | 92 | 1016.0 |
| 20260831112842 | 71 | 149 | 1.0 | 5.0 | 0.00 | 0.43 | 0.00 | 92 | 1016.0 |
| 20260831112734 | 71 | 153 | 1.0 | 5.0 | 0.00 | 0.43 | 0.00 | 92 | 1016.0 |
| 20260831112626 | 71 | 153 | 2.0 | 5.0 | 0.00 | 0.43 | 0.00 | 92 | 1016.0 |
| 20260831112536 | 71 | 152 | 2.0 | 4.0 | 0.00 | 0.43 | 0.00 | 92 | 1016.0 |
| 20260831112429 | 71 | 160 | 1.0 | 3.0 | 0.00 | 0.43 | 0.00 | 92 | 1016.0 |
| 20260831112341 | 71 | 167 | 1.0 | 3.0 | 0.00 | 0.43 | 0.00 | 92 | 1016.1 |
| 20260831112233 | 71 | 149 | 1.0 | 5.0 | 0.00 | 0.43 | 0.00 | 92 | 1016.1 |
| 20260831112124 | 71 | 165 | 1.0 | 5.0 | 0.00 | 0.43 | 0.00 | 92 | 1016.1 |
| 20260831112041 | 71 | 158 | 0.0 | 5.0 | 0.00 | 0.43 | 0.00 | 92 | 1016.0 |
| 20260831111934 | 71 | 143 | 1.0 | 5.0 | 0.00 | 0.43 | 0.00 | 92 | 1016.0 |
| 20260831111826 | 71 | 167 | 2.0 | 5.0 | 0.00 | 0.43 | 0.00 | 92 | 1016.1 |
| 20260831111738 | 71 | 163 | 2.0 | 5.0 | 0.00 | 0.43 | 0.00 | 92 | 1016.0 |
| 20260831111701 | 71 | 154 | 1.0 | 5.0 | 0.00 | 0.43 | 0.00 | 92 | 1016.0 |
| 20260831111551 | 71 | 157 | 1.0 | 5.0 | 0.00 | 0.43 | 0.00 | 93 | 1016.0 |
| 20260831111423 | 70 | 165 | 2.0 | 5.0 | 0.00 | 0.43 | 0.00 | 93 | 1016.0 |
| 20260831111334 | 70 | 219 | 1.0 | 5.0 | 0.00 | 0.43 | 0.00 | 93 | 1016.0 |
| 20260831111227 | 70 | 157 | 1.0 | 4.0 | 0.00 | 0.43 | 0.00 | 93 | 1016.1 |
| 20260831111123 | 70 | 150 | 1.0 | 4.0 | 0.00 | 0.43 | 0.00 | 93 | 1016.0 |
| 20260831111036 | 70 | 208 | 2.0 | 4.0 | 0.00 | 0.43 | 0.00 | 93 | 1016.0 |
| 20260831110928 | 70 | 142 | 1.0 | 3.0 | 0.00 | 0.43 | 0.00 | 93 | 1016.1 |
| 20260831110841 | 70 | 214 | 1.0 | 3.0 | 0.00 | 0.43 | 0.00 | 93 | 1016.0 |
| 20260831110752 | 70 | 158 | 1.0 | 3.0 | 0.00 | 0.43 | 0.00 | 93 | 1016.0 |
| 20260831110641 | 70 | 158 | 0.0 | 3.0 | 0.00 | 0.43 | 0.00 | 93 | 1016.0 |
| 20260831110553 | 70 | 150 | 0.0 | 0.0 | 0.00 | 0.43 | 0.00 | 93 | 1016.0 |
| 20260831110424 | 70 | 150 | 0.0 | 1.0 | 0.00 | 0.43 | 0.00 | 93 | 1016.0 |
| 20260831110337 | 70 | 150 | 0.0 | 2.0 | 0.00 | 0.43 | 0.00 | 93 | 1016.0 |
| 20260831110231 | 70 | 149 | 0.0 | 3.0 | 0.00 | 0.43 | 0.00 | 93 | 1016.0 |
| 20260831110155 | 70 | 196 | 0.0 | 3.0 | 0.00 | 0.43 | 0.00 | 93 | 1016.0 |
| 20260831110026 | 70 | 184 | 0.0 | 3.0 | 0.00 | 0.43 | 0.00 | 93 | 1016.0 |
| 20260831105938 | 70 | 184 | 0.0 | 3.0 | 0.00 | 0.43 | 0.00 | 93 | 1016.0 |
| 20260831105830 | 71 | 173 | 0.0 | 3.0 | 0.00 | 0.43 | 0.00 | 93 | 1016.0 |
| 20260831105742 | 70 | 173 | 0.0 | 3.0 | 0.00 | 0.43 | 0.00 | 93 | 1016.0 |
| 20260831105634 | 70 | 179 | 1.0 | 3.0 | 0.00 | 0.43 | 0.00 | 93 | 1015.9 |
| 20260831105546 | 70 | 176 | 1.0 | 3.0 | 0.00 | 0.43 | 0.00 | 93 | 1016.0 |
| 20260831105459 | 70 | 184 | 1.0 | 3.0 | 0.00 | 0.43 | 0.00 | 93 | 1016.0 |
| 20260831105334 | 70 | 186 | 1.0 | 3.0 | 0.00 | 0.43 | 0.00 | 93 | 1015.9 |
| 20260831105226 | 70 | 192 | 1.0 | 4.0 | 0.00 | 0.43 | 0.00 | 93 | 1015.9 |
| 20260831105139 | 70 | 159 | 1.0 | 3.0 | 0.00 | 0.43 | 0.00 | 93 | 1015.8 |
| 20260831105051 | 70 | 187 | 0.0 | 3.0 | 0.00 | 0.43 | 0.00 | 93 | 1015.9 |
| 20260831104923 | 70 | 154 | 0.0 | 2.0 | 0.00 | 0.43 | 0.00 | 93 | 1015.9 |
| 20260831104835 | 70 | 154 | 0.0 | 3.0 | 0.00 | 0.43 | 0.00 | 93 | 1015.9 |
| 20260831104728 | 70 | 154 | 1.0 | 4.0 | 0.00 | 0.43 | 0.00 | 93 | 1015.9 |
| 20260831104650 | 70 | 154 | 1.0 | 4.0 | 0.00 | 0.43 | 0.00 | 93 | 1015.9 |
| 20260831104541 | 70 | 178 | 0.0 | 4.0 | 0.00 | 0.43 | 0.00 | 93 | 1016.0 |
| 20260831104436 | 70 | 146 | 0.0 | 4.0 | 0.00 | 0.43 | 0.00 | 93 | 1015.9 |
| 20260831104348 | 70 | 146 | 0.0 | 4.0 | 0.00 | 0.43 | 0.00 | 93 | 1016.0 |
| 20260831104300 | 70 | 146 | 1.0 | 4.0 | 0.00 | 0.43 | 0.00 | 93 | 1016.0 |
| 20260831104212 | 70 | 146 | 1.0 | 4.0 | 0.00 | 0.43 | 0.00 | 93 | 1016.0 |
| 20260831104102 | 70 | 146 | 1.0 | 4.0 | 0.00 | 0.43 | 0.00 | 93 | 1016.0 |
| 20260831103953 | 70 | 146 | 0.0 | 3.0 | 0.00 | 0.43 | 0.00 | 93 | 1016.0 |
| 20260831103825 | 70 | 146 | 0.0 | 3.0 | 0.00 | 0.43 | 0.00 | 93 | 1016.0 |
| 20260831103737 | 70 | 145 | 0.0 | 3.0 | 0.00 | 0.43 | 0.00 | 93 | 1015.9 |
| 20260831103629 | 70 | 145 | 0.0 | 3.0 | 0.00 | 0.43 | 0.00 | 93 | 1015.9 |
| 20260831103541 | 70 | 145 | 1.0 | 3.0 | 0.00 | 0.43 | 0.00 | 93 | 1015.9 |
| 20260831103454 | 70 | 151 | 1.0 | 3.0 | 0.00 | 0.43 | 0.00 | 93 | 1016.0 |
| 20260831103328 | 70 | 151 | 0.0 | 3.0 | 0.00 | 0.43 | 0.00 | 93 | 1016.0 |
| 20260831103237 | 70 | 151 | 0.0 | 3.0 | 0.00 | 0.43 | 0.00 | 93 | 1016.0 |
| 20260831103200 | 70 | 151 | 0.0 | 3.0 | 0.00 | 0.43 | 0.00 | 93 | 1016.0 |
| 20260831103031 | 70 | 151 | 0.0 | 3.0 | 0.00 | 0.43 | 0.00 | 93 | 1016.1 |
| 20260831102942 | 70 | 151 | 0.0 | 5.0 | 0.00 | 0.43 | 0.00 | 93 | 1016.1 |
| 20260831102833 | 70 | 151 | 1.0 | 5.0 | 0.00 | 0.43 | 0.00 | 93 | 1016.0 |
| 20260831102724 | 71 | 151 | 1.0 | 5.0 | 0.00 | 0.43 | 0.00 | 93 | 1016.1 |
| 20260831102635 | 70 | 151 | 1.0 | 5.0 | 0.00 | 0.43 | 0.00 | 93 | 1016.1 |
| 20260831102530 | 70 | 151 | 1.0 | 5.0 | 0.00 | 0.43 | 0.00 | 93 | 1016.1 |
| 20260831102442 | 70 | 151 | 1.0 | 5.0 | 0.00 | 0.43 | 0.00 | 93 | 1016.1 |
| 20260831102354 | 70 | 150 | 1.0 | 5.0 | 0.00 | 0.43 | 0.00 | 93 | 1016.1 |
| 20260831102224 | 70 | 149 | 1.0 | 5.0 | 0.00 | 0.43 | 0.00 | 93 | 1016.2 |
| 20260831102135 | 70 | 149 | 0.0 | 2.0 | 0.00 | 0.43 | 0.00 | 93 | 1016.1 |
| 20260831102027 | 71 | 149 | 0.0 | 2.0 | 0.00 | 0.43 | 0.00 | 93 | 1016.2 |
| 20260831101940 | 71 | 149 | 0.0 | 2.0 | 0.00 | 0.43 | 0.00 | 93 | 1016.0 |
| 20260831101832 | 71 | 149 | 0.0 | 2.0 | 0.00 | 0.43 | 0.00 | 93 | 1016.2 |
| 20260831101723 | 71 | 149 | 0.0 | 3.0 | 0.00 | 0.43 | 0.00 | 93 | 1016.1 |
| 20260831101649 | 71 | 149 | 0.0 | 3.0 | 0.00 | 0.43 | 0.00 | 93 | 1016.1 |
| 20260831101541 | 71 | 149 | 0.0 | 3.0 | 0.00 | 0.43 | 0.00 | 93 | 1016.1 |
| 20260831101432 | 71 | 149 | 0.0 | 3.0 | 0.00 | 0.43 | 0.00 | 93 | 1016.1 |
| 20260831101344 | 71 | 149 | 1.0 | 4.0 | 0.00 | 0.43 | 0.00 | 93 | 1016.1 |
| 20260831101235 | 71 | 149 | 0.0 | 4.0 | 0.00 | 0.43 | 0.00 | 93 | 1016.1 |
| 20260831101146 | 71 | 172 | 0.0 | 4.0 | 0.00 | 0.43 | 0.00 | 93 | 1016.1 |
| 20260831101038 | 71 | 158 | 1.0 | 4.0 | 0.00 | 0.43 | 0.00 | 93 | 1016.0 |
| 20260831100929 | 71 | 158 | 1.0 | 4.0 | 0.00 | 0.43 | 0.00 | 93 | 1016.0 |
| 20260831100841 | 71 | 156 | 1.0 | 4.0 | 0.00 | 0.43 | 0.00 | 93 | 1016.0 |
| 20260831100733 | 71 | 156 | 1.0 | 4.0 | 0.00 | 0.43 | 0.00 | 93 | 1016.0 |
| 20260831100629 | 71 | 136 | 1.0 | 4.0 | 0.00 | 0.43 | 0.00 | 93 | 1016.0 |
| 20260831100542 | 71 | 153 | 1.0 | 4.0 | 0.00 | 0.43 | 0.00 | 93 | 1016.0 |
| 20260831100434 | 71 | 189 | 1.0 | 3.0 | 0.00 | 0.43 | 0.00 | 93 | 1016.0 |
| 20260831100345 | 71 | 155 | 1.0 | 4.0 | 0.00 | 0.43 | 0.00 | 93 | 1016.0 |
| 20260831100235 | 71 | 171 | 0.0 | 4.0 | 0.00 | 0.43 | 0.00 | 93 | 1016.0 |
| 20260831100158 | 71 | 171 | 1.0 | 5.0 | 0.00 | 0.43 | 0.00 | 93 | 1016.0 |
| 20260831100029 | 71 | 171 | 1.0 | 5.0 | 0.00 | 0.43 | 0.00 | 93 | 1016.0 |
| 20260831095941 | 71 | 144 | 1.0 | 5.0 | 0.00 | 0.43 | 0.00 | 93 | 1016.0 |
| 20260831095832 | 71 | 144 | 2.0 | 5.0 | 0.00 | 0.43 | 0.00 | 93 | 1016.0 |
| 20260831095728 | 71 | 152 | 2.0 | 5.0 | 0.00 | 0.43 | 0.00 | 93 | 1016.0 |
| 20260831095641 | 71 | 151 | 2.0 | 5.0 | 0.00 | 0.43 | 0.00 | 93 | 1016.0 |
| 20260831095552 | 71 | 151 | 2.0 | 5.0 | 0.00 | 0.43 | 0.00 | 93 | 1016.0 |
| 20260831095503 | 71 | 153 | 1.0 | 5.0 | 0.00 | 0.43 | 0.00 | 93 | 1016.0 |
| 20260831095354 | 71 | 137 | 0.0 | 4.0 | 0.00 | 0.43 | 0.00 | 93 | 1016.0 |
| 20260831095225 | 71 | 209 | 0.0 | 4.0 | 0.00 | 0.43 | 0.00 | 93 | 1016.0 |
| 20260831095138 | 71 | 209 | 1.0 | 4.0 | 0.00 | 0.43 | 0.00 | 93 | 1016.0 |
| 20260831095029 | 71 | 171 | 1.0 | 4.0 | 0.00 | 0.43 | 0.00 | 93 | 1015.9 |
| 20260831094940 | 71 | 171 | 1.0 | 4.0 | 0.00 | 0.43 | 0.00 | 93 | 1016.0 |
| 20260831094836 | 71 | 171 | 1.0 | 4.0 | 0.00 | 0.43 | 0.00 | 93 | 1016.0 |
| 20260831094729 | 71 | 171 | 1.0 | 4.0 | 0.00 | 0.43 | 0.00 | 93 | 1016.0 |
| 20260831094650 | 71 | 171 | 0.0 | 5.0 | 0.00 | 0.43 | 0.00 | 93 | 1016.0 |
| 20260831094522 | 71 | 167 | 0.0 | 5.0 | 0.00 | 0.43 | 0.00 | 93 | 1016.1 |
| 20260831094435 | 71 | 171 | 0.0 | 5.0 | 0.00 | 0.43 | 0.00 | 93 | 1016.1 |
| 20260831094346 | 71 | 171 | 0.0 | 5.0 | 0.00 | 0.43 | 0.00 | 93 | 1016.1 |
| 20260831094258 | 71 | 171 | 0.0 | 5.0 | 0.00 | 0.43 | 0.00 | 93 | 1016.1 |
| 20260831094148 | 71 | 171 | 0.0 | 5.0 | 0.00 | 0.43 | 0.00 | 93 | 1016.1 |
| 20260831094100 | 71 | 171 | 0.0 | 5.0 | 0.00 | 0.43 | 0.00 | 93 | 1016.2 |
| 20260831093930 | 71 | 171 | 1.0 | 5.0 | 0.00 | 0.43 | 0.00 | 93 | 1016.1 |
| 20260831093825 | 71 | 141 | 1.0 | 5.0 | 0.00 | 0.43 | 0.00 | 93 | 1016.0 |
| 20260831093737 | 71 | 157 | 0.0 | 6.0 | 0.00 | 0.43 | 0.00 | 93 | 1016.1 |
| 20260831093648 | 71 | 157 | 1.0 | 6.0 | 0.00 | 0.43 | 0.00 | 93 | 1016.0 |
| 20260831093538 | 71 | 157 | 2.0 | 6.0 | 0.00 | 0.43 | 0.00 | 93 | 1016.1 |
| 20260831093430 | 71 | 151 | 2.0 | 7.0 | 0.00 | 0.43 | 0.00 | 93 | 1016.0 |
| 20260831093341 | 71 | 142 | 2.0 | 7.0 | 0.00 | 0.43 | 0.00 | 93 | 1016.0 |
| 20260831093230 | 71 | 148 | 2.0 | 7.0 | 0.00 | 0.43 | 0.00 | 93 | 1016.0 |
| 20260831093152 | 71 | 151 | 2.0 | 7.0 | 0.00 | 0.43 | 0.00 | 93 | 1016.0 |
| 20260831093042 | 71 | 166 | 3.0 | 7.0 | 0.00 | 0.43 | 0.00 | 93 | 1016.0 |
| 20260831092934 | 71 | 149 | 3.0 | 7.0 | 0.00 | 0.43 | 0.00 | 93 | 1015.9 |
| 20260831092830 | 71 | 167 | 3.0 | 7.0 | 0.00 | 0.43 | 0.00 | 93 | 1015.9 |
| 20260831092722 | 71 | 155 | 3.0 | 7.0 | 0.00 | 0.43 | 0.00 | 93 | 1015.9 |
| 20260831092634 | 71 | 153 | 3.0 | 7.0 | 0.00 | 0.43 | 0.00 | 93 | 1015.9 |
| 20260831092526 | 71 | 153 | 2.0 | 5.0 | 0.00 | 0.43 | 0.00 | 93 | 1016.0 |
| 20260831092439 | 71 | 159 | 2.0 | 5.0 | 0.00 | 0.43 | 0.00 | 93 | 1016.0 |
| 20260831092330 | 71 | 155 | 2.0 | 5.0 | 0.00 | 0.43 | 0.00 | 93 | 1016.0 |
| 20260831092242 | 71 | 148 | 2.0 | 5.0 | 0.00 | 0.43 | 0.00 | 93 | 1016.0 |
| 20260831092133 | 71 | 142 | 1.0 | 5.0 | 0.00 | 0.43 | 0.00 | 93 | 1016.0 |
| 20260831092029 | 71 | 148 | 2.0 | 5.0 | 0.00 | 0.43 | 0.00 | 93 | 1016.0 |
| 20260831091942 | 71 | 147 | 2.0 | 5.0 | 0.00 | 0.43 | 0.00 | 93 | 1016.0 |
| 20260831091834 | 71 | 144 | 2.0 | 5.0 | 0.00 | 0.43 | 0.00 | 93 | 1016.0 |
| 20260831091746 | 71 | 148 | 2.0 | 5.0 | 0.00 | 0.43 | 0.00 | 93 | 1016.1 |
| 20260831091647 | 71 | 148 | 2.0 | 5.0 | 0.00 | 0.43 | 0.00 | 93 | 1016.1 |
| 20260831091539 | 71 | 148 | 2.0 | 5.0 | 0.00 | 0.43 | 0.00 | 93 | 1016.1 |
| 20260831091431 | 71 | 151 | 2.0 | 5.0 | 0.00 | 0.43 | 0.00 | 93 | 1016.1 |
| 20260831091342 | 71 | 152 | 2.0 | 5.0 | 0.00 | 0.43 | 0.00 | 93 | 1016.1 |
| 20260831091235 | 71 | 152 | 2.0 | 5.0 | 0.00 | 0.43 | 0.00 | 93 | 1016.2 |
| 20260831091147 | 71 | 165 | 2.0 | 5.0 | 0.00 | 0.43 | 0.00 | 93 | 1016.1 |
| 20260831091101 | 71 | 153 | 2.0 | 5.0 | 0.00 | 0.43 | 0.00 | 93 | 1016.1 |
| 20260831090932 | 71 | 154 | 2.0 | 5.0 | 0.00 | 0.43 | 0.00 | 93 | 1016.2 |
| 20260831090843 | 71 | 157 | 1.0 | 5.0 | 0.00 | 0.43 | 0.00 | 92 | 1016.2 |
| 20260831090734 | 71 | 157 | 2.0 | 5.0 | 0.00 | 0.43 | 0.00 | 92 | 1016.2 |
| 20260831090647 | 71 | 157 | 2.0 | 5.0 | 0.00 | 0.43 | 0.00 | 92 | 1016.2 |
| 20260831090558 | 71 | 169 | 3.0 | 5.0 | 0.00 | 0.43 | 0.00 | 92 | 1016.2 |
| 20260831090448 | 71 | 167 | 3.0 | 5.0 | 0.00 | 0.43 | 0.00 | 92 | 1016.3 |
| 20260831090400 | 71 | 167 | 1.0 | 4.0 | 0.00 | 0.43 | 0.00 | 92 | 1016.2 |
| 20260831090250 | 71 | 165 | 1.0 | 3.0 | 0.00 | 0.44 | 0.00 | 93 | 1016.2 |
| 20260831090153 | 71 | 165 | 1.0 | 5.0 | 0.00 | 0.44 | 0.00 | 93 | 1016.2 |
| 20260831090023 | 71 | 165 | 0.0 | 6.0 | 0.00 | 0.44 | 0.00 | 92 | 1016.2 |
| 20260831085939 | 71 | 165 | 0.0 | 6.0 | 0.00 | 0.44 | 0.00 | 93 | 1016.2 |
| 20260831085831 | 71 | 165 | 0.0 | 6.0 | 0.00 | 0.44 | 0.00 | 93 | 1016.2 |
| 20260831085723 | 71 | 165 | 1.0 | 6.0 | 0.00 | 0.44 | 0.00 | 93 | 1016.2 |
| 20260831085634 | 71 | 180 | 1.0 | 6.0 | 0.00 | 0.44 | 0.00 | 93 | 1016.2 |
| 20260831085527 | 71 | 155 | 1.0 | 6.0 | 0.00 | 0.44 | 0.00 | 93 | 1016.1 |
| 20260831085439 | 71 | 155 | 2.0 | 6.0 | 0.00 | 0.44 | 0.00 | 93 | 1016.0 |
| 20260831085351 | 71 | 155 | 2.0 | 6.0 | 0.00 | 0.44 | 0.00 | 93 | 1016.1 |
| 20260831085242 | 71 | 155 | 2.0 | 6.0 | 0.00 | 0.44 | 0.00 | 93 | 1016.1 |
| 20260831085133 | 71 | 157 | 1.0 | 5.0 | 0.00 | 0.44 | 0.00 | 93 | 1016.0 |
| 20260831085048 | 71 | 157 | 1.0 | 5.0 | 0.00 | 0.44 | 0.00 | 93 | 1016.0 |
| 20260831085001 | 71 | 157 | 1.0 | 5.0 | 0.00 | 0.44 | 0.00 | 93 | 1016.0 |
| 20260831084852 | 71 | 157 | 2.0 | 5.0 | 0.00 | 0.44 | 0.00 | 92 | 1016.1 |
| 20260831084744 | 71 | 157 | 2.0 | 5.0 | 0.00 | 0.44 | 0.00 | 92 | 1016.1 |
| 20260831084705 | 72 | 141 | 2.0 | 5.0 | 0.00 | 0.44 | 0.00 | 93 | 1016.1 |
| 20260831084557 | 71 | 154 | 2.0 | 6.0 | 0.00 | 0.44 | 0.00 | 93 | 1016.1 |
| 20260831084429 | 71 | 154 | 2.0 | 5.0 | 0.00 | 0.44 | 0.00 | 93 | 1016.1 |
| 20260831084341 | 71 | 148 | 2.0 | 5.0 | 0.00 | 0.44 | 0.00 | 93 | 1016.0 |
| 20260831084253 | 71 | 159 | 2.0 | 5.0 | 0.00 | 0.44 | 0.00 | 93 | 1016.1 |
| 20260831084125 | 71 | 150 | 2.0 | 5.0 | 0.00 | 0.44 | 0.00 | 92 | 1016.0 |
| 20260831084036 | 71 | 150 | 2.0 | 5.0 | 0.00 | 0.44 | 0.00 | 92 | 1016.1 |
| 20260831083931 | 71 | 150 | 2.0 | 6.0 | 0.00 | 0.44 | 0.00 | 92 | 1016.1 |
| 20260831083824 | 71 | 150 | 2.0 | 6.0 | 0.00 | 0.44 | 0.00 | 92 | 1016.0 |
| 20260831083736 | 71 | 150 | 2.0 | 6.0 | 0.00 | 0.44 | 0.00 | 92 | 1016.1 |
| 20260831083627 | 71 | 150 | 2.0 | 6.0 | 0.00 | 0.44 | 0.00 | 93 | 1016.1 |
| 20260831083540 | 71 | 150 | 1.0 | 6.0 | 0.00 | 0.44 | 0.00 | 93 | 1016.1 |
| 20260831083432 | 71 | 150 | 1.0 | 6.0 | 0.00 | 0.44 | 0.00 | 93 | 1016.2 |
| 20260831083345 | 71 | 150 | 1.0 | 6.0 | 0.00 | 0.44 | 0.00 | 92 | 1016.2 |
| 20260831083233 | 71 | 150 | 2.0 | 6.0 | 0.00 | 0.44 | 0.00 | 92 | 1016.2 |
| 20260831083156 | 71 | 150 | 2.0 | 6.0 | 0.00 | 0.44 | 0.00 | 92 | 1016.2 |
| 20260831083031 | 71 | 150 | 1.0 | 5.0 | 0.00 | 0.44 | 0.00 | 92 | 1016.1 |
| 20260831082924 | 71 | 150 | 1.0 | 5.0 | 0.00 | 0.44 | 0.00 | 92 | 1016.2 |
| 20260831082835 | 71 | 148 | 0.0 | 3.0 | 0.00 | 0.44 | 0.00 | 92 | 1016.1 |
| 20260831082728 | 71 | 148 | 1.0 | 3.0 | 0.00 | 0.44 | 0.00 | 92 | 1016.0 |
| 20260831082640 | 71 | 148 | 1.0 | 3.0 | 0.00 | 0.44 | 0.00 | 92 | 1016.1 |
| 20260831082532 | 71 | 148 | 0.0 | 3.0 | 0.00 | 0.44 | 0.00 | 92 | 1016.0 |
| 20260831082423 | 71 | 152 | 0.0 | 3.0 | 0.00 | 0.44 | 0.00 | 92 | 1016.0 |
| 20260831082335 | 71 | 156 | 0.0 | 3.0 | 0.00 | 0.44 | 0.00 | 92 | 1016.1 |
| 20260831082230 | 71 | 171 | 0.0 | 3.0 | 0.00 | 0.44 | 0.00 | 92 | 1016.0 |
| 20260831082142 | 71 | 171 | 1.0 | 3.0 | 0.00 | 0.44 | 0.00 | 92 | 1016.1 |
| 20260831082035 | 71 | 137 | 1.0 | 3.0 | 0.00 | 0.44 | 0.00 | 92 | 1016.1 |
| 20260831081926 | 71 | 180 | 1.0 | 5.0 | 0.00 | 0.44 | 0.00 | 92 | 1016.1 |
| 20260831081838 | 71 | 180 | 1.0 | 5.0 | 0.00 | 0.44 | 0.00 | 92 | 1016.0 |
| 20260831081730 | 72 | 180 | 1.0 | 5.0 | 0.00 | 0.44 | 0.00 | 92 | 1016.0 |
| 20260831081654 | 72 | 180 | 1.0 | 5.0 | 0.00 | 0.44 | 0.00 | 92 | 1016.0 |
| 20260831081526 | 71 | 180 | 1.0 | 5.0 | 0.00 | 0.44 | 0.00 | 92 | 1016.0 |
| 20260831081423 | 71 | 155 | 1.0 | 5.0 | 0.00 | 0.44 | 0.00 | 92 | 1016.0 |
| 20260831081335 | 71 | 155 | 1.0 | 5.0 | 0.00 | 0.44 | 0.00 | 92 | 1016.0 |
| 20260831081248 | 71 | 152 | 1.0 | 5.0 | 0.00 | 0.44 | 0.00 | 92 | 1016.1 |
| 20260831081139 | 71 | 152 | 1.0 | 5.0 | 0.00 | 0.44 | 0.00 | 92 | 1016.0 |
| 20260831081031 | 71 | 152 | 1.0 | 5.0 | 0.00 | 0.44 | 0.00 | 92 | 1016.0 |
| 20260831080923 | 71 | 152 | 1.0 | 5.0 | 0.00 | 0.44 | 0.00 | 92 | 1016.0 |
| 20260831080834 | 71 | 152 | 1.0 | 5.0 | 0.00 | 0.44 | 0.00 | 92 | 1016.0 |
| 20260831080747 | 71 | 152 | 1.0 | 5.0 | 0.00 | 0.44 | 0.00 | 92 | 1016.0 |
| 20260831080658 | 71 | 152 | 2.0 | 5.0 | 0.00 | 0.44 | 0.00 | 92 | 1016.1 |
| 20260831080528 | 71 | 152 | 1.0 | 5.0 | 0.00 | 0.44 | 0.00 | 92 | 1016.1 |
| 20260831080425 | 71 | 152 | 1.0 | 5.0 | 0.00 | 0.44 | 0.00 | 92 | 1016.2 |
| 20260831080337 | 71 | 156 | 1.0 | 5.0 | 0.00 | 0.44 | 0.00 | 92 | 1016.1 |
| 20260831080224 | 71 | 155 | 2.0 | 5.0 | 0.00 | 0.44 | 0.00 | 92 | 1016.0 |
| 20260831080146 | 71 | 155 | 3.0 | 5.0 | 0.00 | 0.44 | 0.00 | 92 | 1016.1 |
| 20260831080037 | 71 | 159 | 2.0 | 5.0 | 0.00 | 0.44 | 0.00 | 92 | 1016.2 |
| 20260831075950 | 71 | 145 | 2.0 | 4.0 | 0.00 | 0.44 | 0.00 | 92 | 1016.2 |
| 20260831075902 | 71 | 145 | 1.0 | 3.0 | 0.00 | 0.44 | 0.00 | 91 | 1016.2 |
| 20260831075753 | 71 | 145 | 1.0 | 2.0 | 0.00 | 0.44 | 0.00 | 91 | 1016.2 |
| 20260831075624 | 71 | 145 | 0.0 | 1.0 | 0.00 | 0.44 | 0.00 | 91 | 1016.3 |
| 20260831075535 | 72 | 145 | 0.0 | 1.0 | 0.00 | 0.44 | 0.00 | 91 | 1016.3 |
| 20260831075432 | 72 | 145 | 0.0 | 1.0 | 0.00 | 0.44 | 0.00 | 91 | 1016.3 |
| 20260831075324 | 72 | 145 | 0.0 | 1.0 | 0.00 | 0.44 | 0.00 | 91 | 1016.4 |
| 20260831075234 | 72 | 145 | 0.0 | 3.0 | 0.00 | 0.44 | 0.00 | 91 | 1016.3 |
| 20260831075146 | 72 | 145 | 0.0 | 3.0 | 0.00 | 0.44 | 0.00 | 91 | 1016.3 |
| 20260831075057 | 72 | 145 | 0.0 | 4.0 | 0.00 | 0.44 | 0.00 | 91 | 1016.4 |
| 20260831074928 | 72 | 145 | 0.0 | 4.0 | 0.00 | 0.44 | 0.00 | 91 | 1016.5 |
| 20260831074841 | 72 | 145 | 0.0 | 4.0 | 0.00 | 0.44 | 0.00 | 91 | 1016.3 |
| 20260831074752 | 72 | 145 | 0.0 | 4.0 | 0.00 | 0.44 | 0.00 | 92 | 1016.4 |
| 20260831074654 | 72 | 145 | 0.0 | 4.0 | 0.00 | 0.44 | 0.00 | 92 | 1016.4 |
| 20260831074544 | 72 | 145 | 1.0 | 4.0 | 0.00 | 0.44 | 0.00 | 91 | 1016.2 |
| 20260831074459 | 72 | 145 | 2.0 | 4.0 | 0.00 | 0.44 | 0.00 | 91 | 1016.2 |
| 20260831074331 | 72 | 145 | 3.0 | 4.0 | 0.00 | 0.44 | 0.00 | 91 | 1016.2 |
| 20260831074242 | 72 | 145 | 3.0 | 4.0 | 0.00 | 0.44 | 0.00 | 91 | 1016.2 |
| 20260831074133 | 72 | 145 | 2.0 | 3.0 | 0.00 | 0.44 | 0.00 | 91 | 1016.2 |
| 20260831074025 | 72 | 145 | 1.0 | 3.0 | 0.00 | 0.44 | 0.00 | 91 | 1016.2 |
| 20260831073938 | 72 | 145 | 0.0 | 3.0 | 0.00 | 0.44 | 0.00 | 91 | 1016.3 |
| 20260831073829 | 72 | 145 | 1.0 | 4.0 | 0.00 | 0.44 | 0.00 | 91 | 1016.3 |
| 20260831073741 | 72 | 145 | 1.0 | 4.0 | 0.00 | 0.44 | 0.00 | 91 | 1016.3 |
| 20260831073636 | 72 | 145 | 2.0 | 4.0 | 0.00 | 0.44 | 0.00 | 91 | 1016.3 |
| 20260831073548 | 72 | 145 | 2.0 | 4.0 | 0.00 | 0.44 | 0.00 | 91 | 1016.4 |
| 20260831073438 | 72 | 145 | 2.0 | 4.0 | 0.00 | 0.44 | 0.00 | 91 | 1016.3 |
| 20260831073330 | 72 | 144 | 2.0 | 4.0 | 0.00 | 0.44 | 0.00 | 91 | 1016.4 |
| 20260831073241 | 72 | 144 | 2.0 | 4.0 | 0.00 | 0.44 | 0.00 | 91 | 1016.4 |
| 20260831073202 | 72 | 144 | 2.0 | 4.0 | 0.00 | 0.44 | 0.00 | 91 | 1016.4 |
| 20260831073033 | 72 | 140 | 2.0 | 4.0 | 0.00 | 0.44 | 0.00 | 90 | 1016.3 |
| 20260831072946 | 72 | 140 | 2.0 | 4.0 | 0.00 | 0.44 | 0.00 | 90 | 1016.4 |
| 20260831072838 | 72 | 140 | 2.0 | 4.0 | 0.00 | 0.44 | 0.00 | 91 | 1016.4 |
| 20260831072730 | 72 | 140 | 1.0 | 4.0 | 0.00 | 0.44 | 0.00 | 91 | 1016.4 |
| 20260831072626 | 72 | 159 | 0.0 | 0.0 | 0.00 | 0.44 | 0.00 | 90 | 1016.5 |
| 20260831072540 | 72 | 167 | 0.0 | 0.0 | 0.00 | 0.44 | 0.00 | 90 | 1016.5 |
| 20260831072451 | 72 | 196 | 0.0 | 0.0 | 0.00 | 0.44 | 0.00 | 90 | 1016.5 |
| 20260831072323 | 72 | 196 | 0.0 | 0.0 | 0.00 | 0.44 | 0.00 | 90 | 1016.5 |
| 20260831072236 | 72 | 196 | 0.0 | 0.0 | 0.00 | 0.44 | 0.00 | 90 | 1016.4 |
| 20260831072127 | 72 | 196 | 0.0 | 0.0 | 0.00 | 0.44 | 0.00 | 90 | 1016.5 |
| 20260831072040 | 72 | 196 | 0.0 | 0.0 | 0.00 | 0.44 | 0.00 | 90 | 1016.5 |
| 20260831071932 | 72 | 196 | 0.0 | 0.0 | 0.00 | 0.44 | 0.00 | 90 | 1016.4 |
| 20260831071828 | 72 | 196 | 0.0 | 0.0 | 0.00 | 0.44 | 0.00 | 90 | 1016.5 |
| 20260831071740 | 72 | 196 | 0.0 | 0.0 | 0.00 | 0.44 | 0.00 | 90 | 1016.6 |
| 20260831071703 | 72 | 196 | 0.0 | 0.0 | 0.00 | 0.44 | 0.00 | 90 | 1016.6 |
| 20260831071535 | 72 | 196 | 0.0 | 0.0 | 0.00 | 0.44 | 0.00 | 90 | 1016.6 |
| 20260831071448 | 72 | 196 | 0.0 | 0.0 | 0.00 | 0.44 | 0.00 | 90 | 1016.5 |
| 20260831071340 | 72 | 282 | 0.0 | 0.0 | 0.00 | 0.44 | 0.00 | 90 | 1016.5 |
| 20260831071251 | 72 | 282 | 0.0 | 0.0 | 0.00 | 0.44 | 0.00 | 90 | 1016.5 |
| 20260831071204 | 72 | 282 | 0.0 | 0.0 | 0.00 | 0.44 | 0.00 | 90 | 1016.6 |
| 20260831071035 | 72 | 282 | 0.0 | 0.0 | 0.00 | 0.44 | 0.00 | 90 | 1016.5 |
| 20260831070927 | 72 | 282 | 0.0 | 0.0 | 0.00 | 0.44 | 0.00 | 90 | 1016.5 |
| 20260831070823 | 73 | 282 | 0.0 | 0.0 | 0.00 | 0.44 | 0.00 | 90 | 1016.6 |
| 20260831070735 | 72 | 282 | 0.0 | 0.0 | 0.00 | 0.44 | 0.00 | 90 | 1016.6 |
| 20260831070648 | 73 | 282 | 0.0 | 0.0 | 0.00 | 0.44 | 0.00 | 90 | 1016.5 |
| 20260831070538 | 73 | 282 | 0.0 | 0.0 | 0.00 | 0.44 | 0.00 | 90 | 1016.6 |
| 20260831070430 | 73 | 282 | 0.0 | 0.0 | 0.00 | 0.44 | 0.00 | 90 | 1016.5 |
| 20260831070342 | 73 | 282 | 0.0 | 0.0 | 0.00 | 0.44 | 0.00 | 90 | 1016.5 |
| 20260831070242 | 73 | 282 | 0.0 | 1.0 | 0.00 | 0.44 | 0.00 | 90 | 1016.5 |
| 20260831070145 | 73 | 282 | 0.0 | 1.0 | 0.00 | 0.44 | 0.00 | 90 | 1016.5 |
| 20260831070036 | 73 | 282 | 0.0 | 2.0 | 0.00 | 0.44 | 0.00 | 90 | 1016.4 |
| 20260831065932 | 73 | 282 | 0.0 | 2.0 | 0.00 | 0.44 | 0.00 | 90 | 1016.5 |
| 20260831065844 | 73 | 282 | 0.0 | 2.0 | 0.00 | 0.44 | 0.00 | 89 | 1016.5 |
| 20260831065753 | 73 | 282 | 0.0 | 2.0 | 0.00 | 0.44 | 0.00 | 89 | 1016.4 |
| 20260831065623 | 73 | 282 | 0.0 | 2.0 | 0.00 | 0.44 | 0.00 | 89 | 1016.4 |
| 20260831065535 | 73 | 282 | 0.0 | 3.0 | 0.00 | 0.44 | 0.00 | 89 | 1016.3 |
| 20260831065448 | 73 | 282 | 0.0 | 3.0 | 0.00 | 0.44 | 0.00 | 89 | 1016.3 |
| 20260831065359 | 73 | 282 | 0.0 | 3.0 | 0.00 | 0.44 | 0.00 | 89 | 1016.4 |
| 20260831065230 | 73 | 282 | 0.0 | 3.0 | 0.00 | 0.44 | 0.00 | 89 | 1016.3 |
| 20260831065142 | 73 | 282 | 0.0 | 3.0 | 0.00 | 0.44 | 0.00 | 89 | 1016.3 |
| 20260831065034 | 73 | 282 | 0.0 | 3.0 | 0.00 | 0.44 | 0.00 | 89 | 1016.2 |
| 20260831064930 | 73 | 282 | 0.0 | 3.0 | 0.00 | 0.44 | 0.00 | 89 | 1016.2 |
| 20260831064842 | 73 | 282 | 1.0 | 3.0 | 0.00 | 0.44 | 0.00 | 89 | 1016.2 |
| 20260831064754 | 73 | 282 | 1.0 | 3.0 | 0.00 | 0.44 | 0.00 | 89 | 1016.1 |
| 20260831064656 | 73 | 152 | 1.0 | 3.0 | 0.00 | 0.44 | 0.00 | 89 | 1016.1 |
| 20260831064547 | 73 | 272 | 0.0 | 3.0 | 0.00 | 0.44 | 0.00 | 89 | 1016.2 |
| 20260831064500 | 73 | 169 | 1.0 | 3.0 | 0.00 | 0.44 | 0.00 | 89 | 1016.2 |
| 20260831064351 | 73 | 196 | 1.0 | 3.0 | 0.00 | 0.44 | 0.00 | 89 | 1016.2 |
| 20260831064303 | 73 | 163 | 1.0 | 3.0 | 0.00 | 0.44 | 0.00 | 89 | 1016.1 |
| 20260831064135 | 73 | 154 | 1.0 | 2.0 | 0.00 | 0.44 | 0.00 | 89 | 1016.1 |
| 20260831064048 | 73 | 212 | 0.0 | 2.0 | 0.00 | 0.44 | 0.00 | 89 | 1016.1 |
| 20260831064001 | 73 | 161 | 0.0 | 3.0 | 0.00 | 0.44 | 0.00 | 89 | 1016.1 |
| 20260831063857 | 73 | 207 | 0.0 | 3.0 | 0.00 | 0.44 | 0.00 | 89 | 1016.1 |
| 20260831063727 | 73 | 142 | 0.0 | 3.0 | 0.00 | 0.44 | 0.00 | 89 | 1016.1 |
| 20260831063639 | 73 | 142 | 0.0 | 3.0 | 0.00 | 0.44 | 0.00 | 89 | 1016.1 |
| 20260831063531 | 73 | 142 | 0.0 | 4.0 | 0.00 | 0.44 | 0.00 | 89 | 1016.0 |
| 20260831063336 | 73 | 175 | 1.0 | 4.0 | 0.00 | 0.44 | 0.00 | 89 | 1016.0 |
| 20260831063226 | 73 | 169 | 0.0 | 4.0 | 0.00 | 0.44 | 0.00 | 89 | 1016.1 |
| 20260831063149 | 73 | 148 | 0.0 | 4.0 | 0.00 | 0.44 | 0.00 | 89 | 1016.1 |
| 20260831063040 | 73 | 148 | 1.0 | 4.0 | 0.00 | 0.44 | 0.00 | 88 | 1016.0 |
| 20260831062955 | 73 | 148 | 1.0 | 4.0 | 0.00 | 0.44 | 0.00 | 89 | 1016.0 |
| 20260831062907 | 73 | 154 | 1.0 | 4.0 | 0.00 | 0.44 | 0.00 | 88 | 1016.0 |
| 20260831062758 | 73 | 167 | 1.0 | 4.0 | 0.00 | 0.44 | 0.00 | 88 | 1016.0 |
| 20260831062649 | 73 | 217 | 1.0 | 2.0 | 0.00 | 0.44 | 0.00 | 88 | 1016.0 |
| 20260831062541 | 73 | 217 | 0.0 | 2.0 | 0.00 | 0.44 | 0.00 | 88 | 1016.0 |
| 20260831062434 | 73 | 232 | 0.0 | 2.0 | 0.00 | 0.44 | 0.00 | 88 | 1016.0 |
| 20260831062325 | 73 | 232 | 0.0 | 3.0 | 0.00 | 0.44 | 0.00 | 88 | 1016.0 |
| 20260831062237 | 74 | 232 | 1.0 | 3.0 | 0.00 | 0.44 | 0.00 | 88 | 1015.9 |
| 20260831062128 | 74 | 259 | 1.0 | 3.0 | 0.00 | 0.44 | 0.00 | 88 | 1016.0 |
| 20260831062024 | 74 | 184 | 1.0 | 3.0 | 0.00 | 0.44 | 0.00 | 88 | 1016.0 |
| 20260831061935 | 74 | 180 | 1.0 | 3.0 | 0.00 | 0.44 | 0.00 | 88 | 1016.0 |
| 20260831061847 | 74 | 129 | 1.0 | 3.0 | 0.00 | 0.44 | 0.00 | 88 | 1016.1 |
| 20260831061759 | 74 | 251 | 1.0 | 3.0 | 0.00 | 0.44 | 0.00 | 88 | 1016.1 |
| 20260831061700 | 74 | 172 | 0.0 | 3.0 | 0.00 | 0.44 | 0.00 | 88 | 1016.1 |
| 20260831061531 | 74 | 217 | 2.0 | 3.0 | 0.00 | 0.44 | 0.00 | 88 | 1016.0 |
| 20260831061423 | 74 | 226 | 1.0 | 3.0 | 0.00 | 0.44 | 0.00 | 88 | 1016.0 |
| 20260831061334 | 74 | 239 | 1.0 | 4.0 | 0.00 | 0.44 | 0.00 | 88 | 1016.0 |
| 20260831061227 | 74 | 158 | 1.0 | 4.0 | 0.00 | 0.44 | 0.00 | 88 | 1015.9 |
| 20260831061122 | 74 | 203 | 1.0 | 4.0 | 0.00 | 0.44 | 0.00 | 88 | 1016.0 |
| 20260831061034 | 74 | 173 | 1.0 | 4.0 | 0.00 | 0.44 | 0.00 | 88 | 1016.0 |
| 20260831060927 | 74 | 154 | 0.0 | 5.0 | 0.00 | 0.44 | 0.00 | 88 | 1016.1 |
| 20260831060840 | 74 | 176 | 0.0 | 5.0 | 0.00 | 0.44 | 0.00 | 88 | 1016.0 |
| 20260831060731 | 74 | 163 | 1.0 | 5.0 | 0.00 | 0.44 | 0.00 | 88 | 1016.1 |
| 20260831060644 | 74 | 166 | 1.0 | 5.0 | 0.00 | 0.44 | 0.00 | 88 | 1016.1 |
| 20260831060534 | 74 | 197 | 1.0 | 5.0 | 0.00 | 0.44 | 0.00 | 88 | 1016.0 |
| 20260831060446 | 74 | 184 | 1.0 | 5.0 | 0.00 | 0.44 | 0.00 | 88 | 1016.0 |
| 20260831060359 | 74 | 184 | 1.0 | 5.0 | 0.00 | 0.44 | 0.00 | 88 | 1016.0 |
| 20260831060312 | 74 | 184 | 1.0 | 5.0 | 0.00 | 0.44 | 0.00 | 88 | 1016.0 |
| 20260831060211 | 74 | 223 | 2.0 | 7.0 | 0.00 | 0.44 | 0.00 | 88 | 1016.0 |
| 20260831060047 | 74 | 159 | 1.0 | 7.0 | 0.00 | 0.44 | 0.00 | 88 | 1016.0 |
| 20260831055959 | 74 | 150 | 1.0 | 7.0 | 0.00 | 0.44 | 0.00 | 88 | 1016.0 |
| 20260831055850 | 74 | 167 | 0.0 | 7.0 | 0.00 | 0.44 | 0.00 | 88 | 1015.9 |
| 20260831055741 | 74 | 165 | 0.0 | 9.0 | 0.00 | 0.44 | 0.00 | 88 | 1016.0 |
| 20260831055633 | 74 | 165 | 1.0 | 9.0 | 0.00 | 0.44 | 0.00 | 88 | 1016.0 |
| 20260831055523 | 74 | 169 | 2.0 | 11.0 | 0.00 | 0.44 | 0.00 | 89 | 1015.9 |
| 20260831055436 | 74 | 148 | 2.0 | 11.0 | 0.00 | 0.44 | 0.00 | 89 | 1015.9 |
| 20260831055329 | 74 | 157 | 2.0 | 11.0 | 0.00 | 0.44 | 0.00 | 89 | 1016.0 |
| 20260831055240 | 74 | 155 | 2.0 | 11.0 | 0.00 | 0.44 | 0.00 | 89 | 1015.9 |
| 20260831055137 | 74 | 155 | 3.0 | 11.0 | 0.00 | 0.44 | 0.00 | 89 | 1016.0 |
| 20260831055028 | 73 | 151 | 3.0 | 11.0 | 0.00 | 0.44 | 0.00 | 89 | 1015.9 |
| 20260831054940 | 73 | 164 | 3.0 | 11.0 | 0.00 | 0.44 | 0.00 | 89 | 1015.8 |
| 20260831054832 | 73 | 146 | 4.0 | 11.0 | 0.00 | 0.44 | 0.00 | 89 | 1015.9 |
| 20260831054733 | 73 | 157 | 5.0 | 11.0 | 0.00 | 0.44 | 0.00 | 89 | 1015.9 |
| 20260831054625 | 73 | 160 | 3.0 | 7.0 | 0.00 | 0.44 | 0.00 | 89 | 1015.9 |
| 20260831054515 | 73 | 173 | 2.0 | 6.0 | 0.00 | 0.44 | 0.00 | 89 | 1016.0 |
| 20260831054406 | 73 | 164 | 1.0 | 6.0 | 0.00 | 0.44 | 0.00 | 89 | 1016.1 |
| 20260831054255 | 73 | 176 | 1.0 | 5.0 | 0.00 | 0.44 | 0.00 | 90 | 1016.2 |
| 20260831054130 | 73 | 148 | 1.0 | 5.0 | 0.00 | 0.44 | 0.00 | 89 | 1016.2 |
| 20260831054042 | 73 | 165 | 1.0 | 5.0 | 0.00 | 0.44 | 0.00 | 89 | 1016.2 |
| 20260831053932 | 73 | 152 | 2.0 | 5.0 | 0.00 | 0.44 | 0.00 | 89 | 1016.2 |
| 20260831053824 | 73 | 196 | 1.0 | 5.0 | 0.00 | 0.44 | 0.00 | 89 | 1016.3 |
| 20260831053736 | 73 | 149 | 1.0 | 4.0 | 0.00 | 0.44 | 0.00 | 89 | 1016.3 |
| 20260831053648 | 73 | 169 | 1.0 | 3.0 | 0.00 | 0.44 | 0.00 | 89 | 1016.4 |
| 20260831053558 | 73 | 190 | 1.0 | 7.0 | 0.00 | 0.44 | 0.00 | 89 | 1016.4 |
| 20260831053430 | 73 | 164 | 1.0 | 7.0 | 0.00 | 0.44 | 0.00 | 90 | 1016.4 |
| 20260831053341 | 73 | 164 | 1.0 | 7.0 | 0.00 | 0.44 | 0.00 | 90 | 1016.4 |
| 20260831053242 | 73 | 154 | 1.0 | 7.0 | 0.00 | 0.44 | 0.00 | 90 | 1016.5 |
| 20260831053146 | 73 | 155 | 1.0 | 7.0 | 0.00 | 0.44 | 0.00 | 90 | 1016.5 |
| 20260831053036 | 73 | 166 | 1.0 | 7.0 | 0.00 | 0.44 | 0.00 | 90 | 1016.5 |
| 20260831052928 | 72 | 155 | 2.0 | 7.0 | 0.00 | 0.44 | 0.00 | 90 | 1016.5 |
| 20260831052841 | 72 | 156 | 3.0 | 7.0 | 0.00 | 0.44 | 0.00 | 91 | 1016.5 |
| 20260831052733 | 72 | 155 | 3.0 | 7.0 | 0.00 | 0.44 | 0.00 | 91 | 1016.5 |
| 20260831052644 | 72 | 153 | 1.0 | 3.0 | 0.00 | 0.44 | 0.00 | 91 | 1016.5 |
| 20260831052556 | 72 | 148 | 2.0 | 3.0 | 0.00 | 0.44 | 0.00 | 91 | 1016.5 |
| 20260831052429 | 72 | 148 | 2.0 | 3.0 | 0.00 | 0.44 | 0.00 | 91 | 1016.7 |
| 20260831052341 | 72 | 249 | 1.0 | 3.0 | 0.00 | 0.44 | 0.00 | 91 | 1016.5 |
| 20260831052238 | 72 | 188 | 1.0 | 3.0 | 0.00 | 0.44 | 0.00 | 91 | 1016.6 |
| 20260831052129 | 72 | 150 | 0.0 | 2.0 | 0.00 | 0.44 | 0.00 | 91 | 1016.6 |
| 20260831052041 | 72 | 150 | 0.0 | 1.0 | 0.00 | 0.44 | 0.00 | 91 | 1016.7 |
| 20260831051954 | 72 | 150 | 0.0 | 0.0 | 0.00 | 0.44 | 0.00 | 91 | 1016.7 |
| 20260831051905 | 72 | 150 | 0.0 | 0.0 | 0.00 | 0.44 | 0.00 | 91 | 1016.7 |
| 20260831051754 | 72 | 150 | 0.0 | 0.0 | 0.00 | 0.44 | 0.00 | 91 | 1016.7 |
| 20260831051718 | 72 | 150 | 0.0 | 0.0 | 0.00 | 0.44 | 0.00 | 91 | 1016.7 |
| 20260831051610 | 72 | 150 | 0.0 | 0.0 | 0.00 | 0.44 | 0.00 | 90 | 1016.6 |
| 20260831051501 | 72 | 150 | 0.0 | 0.0 | 0.00 | 0.44 | 0.00 | 90 | 1016.8 |
| 20260831051331 | 72 | 150 | 0.0 | 0.0 | 0.00 | 0.44 | 0.00 | 90 | 1016.7 |
| 20260831051228 | 72 | 150 | 0.0 | 0.0 | 0.00 | 0.44 | 0.00 | 90 | 1016.7 |
| 20260831051139 | 72 | 150 | 0.0 | 0.0 | 0.00 | 0.44 | 0.00 | 90 | 1016.8 |
| 20260831051031 | 72 | 150 | 0.0 | 0.0 | 0.00 | 0.44 | 0.00 | 90 | 1016.8 |
| 20260831050942 | 72 | 150 | 0.0 | 0.0 | 0.00 | 0.44 | 0.00 | 90 | 1016.8 |
| 20260831050833 | 72 | 150 | 0.0 | 0.0 | 0.00 | 0.44 | 0.00 | 90 | 1016.8 |
| 20260831050726 | 72 | 150 | 0.0 | 0.0 | 0.00 | 0.44 | 0.00 | 90 | 1016.8 |
| 20260831050639 | 73 | 150 | 0.0 | 0.0 | 0.00 | 0.44 | 0.00 | 90 | 1016.8 |
| 20260831050531 | 73 | 150 | 0.0 | 0.0 | 0.00 | 0.44 | 0.00 | 90 | 1016.8 |
| 20260831050427 | 73 | 150 | 0.0 | 0.0 | 0.00 | 0.44 | 0.00 | 90 | 1016.8 |
| 20260831050340 | 73 | 150 | 0.0 | 0.0 | 0.00 | 0.44 | 0.00 | 90 | 1016.8 |
| 20260831050231 | 73 | 150 | 0.0 | 0.0 | 0.00 | 0.44 | 0.00 | 90 | 1016.8 |
| 20260831050154 | 73 | 150 | 0.0 | 0.0 | 0.00 | 0.44 | 0.00 | 90 | 1016.8 |
| 20260831050026 | 73 | 150 | 0.0 | 0.0 | 0.00 | 0.44 | 0.00 | 90 | 1016.7 |
| 20260831045937 | 73 | 150 | 0.0 | 0.0 | 0.00 | 0.44 | 0.00 | 90 | 1016.7 |
| 20260831045850 | 73 | 150 | 0.0 | 1.0 | 0.00 | 0.44 | 0.00 | 89 | 1016.7 |
| 20260831045802 | 73 | 150 | 0.0 | 3.0 | 0.00 | 0.44 | 0.00 | 89 | 1016.7 |
| 20260831045632 | 73 | 150 | 0.0 | 3.0 | 0.00 | 0.44 | 0.00 | 89 | 1016.7 |
| 20260831045528 | 73 | 150 | 0.0 | 3.0 | 0.00 | 0.44 | 0.00 | 89 | 1016.7 |
| 20260831045440 | 73 | 150 | 0.0 | 3.0 | 0.00 | 0.44 | 0.00 | 89 | 1016.7 |
| 20260831045331 | 73 | 150 | 0.0 | 3.0 | 0.00 | 0.44 | 0.00 | 89 | 1016.7 |
| 20260831045224 | 73 | 150 | 0.0 | 3.0 | 0.00 | 0.44 | 0.00 | 89 | 1016.6 |
| 20260831045137 | 73 | 150 | 0.0 | 3.0 | 0.00 | 0.44 | 0.00 | 89 | 1016.6 |
| 20260831045028 | 73 | 150 | 1.0 | 3.0 | 0.00 | 0.44 | 0.00 | 89 | 1016.5 |
| 20260831044941 | 73 | 150 | 1.0 | 3.0 | 0.00 | 0.44 | 0.00 | 89 | 1016.5 |
| 20260831044833 | 73 | 150 | 1.0 | 2.0 | 0.00 | 0.44 | 0.00 | 89 | 1016.5 |
| 20260831044730 | 73 | 150 | 1.0 | 2.0 | 0.00 | 0.44 | 0.00 | 89 | 1016.6 |
| 20260831044651 | 73 | 150 | 0.0 | 2.0 | 0.00 | 0.44 | 0.00 | 89 | 1016.6 |
| 20260831044542 | 73 | 150 | 0.0 | 1.0 | 0.00 | 0.44 | 0.00 | 89 | 1016.5 |
| 20260831044435 | 73 | 150 | 0.0 | 0.0 | 0.00 | 0.44 | 0.00 | 89 | 1016.5 |
| 20260831044327 | 73 | 150 | 0.0 | 0.0 | 0.00 | 0.44 | 0.00 | 89 | 1016.5 |
| 20260831044240 | 73 | 150 | 0.0 | 0.0 | 0.00 | 0.44 | 0.00 | 89 | 1016.5 |
| 20260831044133 | 73 | 150 | 0.0 | 1.0 | 0.00 | 0.44 | 0.00 | 89 | 1016.6 |
| 20260831044024 | 73 | 150 | 0.0 | 1.0 | 0.00 | 0.44 | 0.00 | 89 | 1016.5 |
| 20260831043937 | 73 | 150 | 0.0 | 1.0 | 0.00 | 0.44 | 0.00 | 89 | 1016.6 |
| 20260831043832 | 73 | 150 | 0.0 | 1.0 | 0.00 | 0.44 | 0.00 | 89 | 1016.5 |
| 20260831043744 | 73 | 150 | 0.0 | 1.0 | 0.00 | 0.44 | 0.00 | 89 | 1016.6 |
| 20260831043635 | 73 | 150 | 0.0 | 1.0 | 0.00 | 0.44 | 0.00 | 89 | 1016.6 |
| 20260831043527 | 73 | 150 | 0.0 | 3.0 | 0.00 | 0.44 | 0.00 | 89 | 1016.5 |
| 20260831043440 | 73 | 150 | 0.0 | 3.0 | 0.00 | 0.44 | 0.00 | 89 | 1016.5 |
| 20260831043333 | 73 | 150 | 0.0 | 3.0 | 0.00 | 0.44 | 0.00 | 89 | 1016.5 |
| 20260831043243 | 73 | 150 | 0.0 | 3.0 | 0.00 | 0.44 | 0.00 | 89 | 1016.6 |
| 20260831043205 | 73 | 150 | 0.0 | 3.0 | 0.00 | 0.44 | 0.00 | 89 | 1016.6 |
| 20260831043055 | 73 | 150 | 0.0 | 5.0 | 0.00 | 0.44 | 0.00 | 89 | 1016.6 |
| 20260831042930 | 73 | 150 | 0.0 | 5.0 | 0.00 | 0.44 | 0.00 | 89 | 1016.6 |
| 20260831042842 | 73 | 150 | 1.0 | 5.0 | 0.00 | 0.44 | 0.00 | 89 | 1016.5 |
| 20260831042730 | 73 | 150 | 1.0 | 5.0 | 0.00 | 0.44 | 0.00 | 89 | 1016.5 |
| 20260831042623 | 73 | 150 | 0.0 | 5.0 | 0.00 | 0.44 | 0.00 | 89 | 1016.5 |
| 20260831042535 | 73 | 150 | 1.0 | 5.0 | 0.00 | 0.44 | 0.00 | 89 | 1016.5 |
| 20260831042425 | 73 | 150 | 2.0 | 5.0 | 0.00 | 0.44 | 0.00 | 89 | 1016.4 |
| 20260831042337 | 73 | 150 | 2.0 | 5.0 | 0.00 | 0.44 | 0.00 | 89 | 1016.4 |
| 20260831042248 | 73 | 150 | 1.0 | 3.0 | 0.00 | 0.44 | 0.00 | 89 | 1016.4 |
| 20260831042140 | 73 | 150 | 1.0 | 3.0 | 0.00 | 0.44 | 0.00 | 89 | 1016.4 |
| 20260831042031 | 73 | 150 | 1.0 | 2.0 | 0.00 | 0.44 | 0.00 | 89 | 1016.4 |
| 20260831041926 | 73 | 150 | 1.0 | 2.0 | 0.00 | 0.44 | 0.00 | 89 | 1016.5 |
| 20260831041839 | 73 | 150 | 0.0 | 2.0 | 0.00 | 0.44 | 0.00 | 89 | 1016.5 |
| 20260831041752 | 73 | 150 | 1.0 | 2.0 | 0.00 | 0.44 | 0.00 | 89 | 1016.6 |
| 20260831041642 | 73 | 150 | 1.0 | 2.0 | 0.00 | 0.44 | 0.00 | 89 | 1016.5 |
| 20260831041511 | 73 | 150 | 0.0 | 2.0 | 0.00 | 0.44 | 0.00 | 89 | 1016.5 |
| 20260831041402 | 73 | 150 | 0.0 | 0.0 | 0.00 | 0.44 | 0.00 | 89 | 1016.5 |
| 20260831041315 | 73 | 150 | 0.0 | 0.0 | 0.00 | 0.44 | 0.00 | 89 | 1016.7 |
| 20260831041205 | 73 | 150 | 0.0 | 0.0 | 0.00 | 0.44 | 0.00 | 89 | 1016.7 |
| 20260831041036 | 73 | 150 | 0.0 | 0.0 | 0.00 | 0.44 | 0.00 | 89 | 1016.7 |
| 20260831040927 | 73 | 150 | 0.0 | 0.0 | 0.00 | 0.44 | 0.00 | 89 | 1016.7 |
| 20260831040823 | 73 | 150 | 0.0 | 0.0 | 0.00 | 0.44 | 0.00 | 89 | 1016.7 |
| 20260831040735 | 73 | 150 | 0.0 | 0.0 | 0.00 | 0.44 | 0.00 | 89 | 1016.7 |
| 20260831040646 | 73 | 150 | 0.0 | 0.0 | 0.00 | 0.44 | 0.00 | 90 | 1016.7 |
| 20260831040538 | 73 | 150 | 0.0 | 0.0 | 0.00 | 0.44 | 0.00 | 89 | 1016.6 |
| 20260831040450 | 73 | 150 | 0.0 | 0.0 | 0.00 | 0.44 | 0.00 | 90 | 1016.7 |
| 20260831040340 | 73 | 150 | 0.0 | 0.0 | 0.00 | 0.44 | 0.00 | 90 | 1016.7 |
| 20260831040230 | 73 | 150 | 0.0 | 1.0 | 0.00 | 0.44 | 0.44 | 90 | 1016.7 |
| 20260831040151 | 73 | 150 | 0.0 | 1.0 | 0.00 | 0.44 | 0.44 | 90 | 1016.7 |
| 20260831040042 | 73 | 150 | 0.0 | 1.0 | 0.00 | 0.44 | 0.44 | 90 | 1016.8 |
| 20260831035925 | 74 | 150 | 0.0 | 2.0 | 0.00 | 0.44 | 0.44 | 90 | 1016.8 |
| 20260831035838 | 73 | 150 | 0.0 | 2.0 | 0.00 | 0.44 | 0.44 | 90 | 1016.7 |
| 20260831035735 | 73 | 150 | 0.0 | 2.0 | 0.00 | 0.44 | 0.44 | 90 | 1016.7 |
| 20260831035628 | 73 | 150 | 0.0 | 2.0 | 0.00 | 0.44 | 0.44 | 90 | 1016.7 |
| 20260831035539 | 73 | 150 | 0.0 | 2.0 | 0.00 | 0.44 | 0.44 | 90 | 1016.7 |
| 20260831035430 | 73 | 150 | 0.0 | 2.0 | 0.00 | 0.44 | 0.44 | 90 | 1016.7 |
| 20260831035341 | 73 | 150 | 0.0 | 2.0 | 0.00 | 0.44 | 0.44 | 90 | 1016.7 |
| 20260831035234 | 73 | 150 | 0.0 | 2.0 | 0.00 | 0.44 | 0.44 | 90 | 1016.7 |
| 20260831035146 | 73 | 150 | 1.0 | 2.0 | 0.00 | 0.44 | 0.44 | 90 | 1016.6 |
| 20260831035058 | 73 | 150 | 1.0 | 2.0 | 0.00 | 0.44 | 0.44 | 90 | 1016.7 |
| 20260831034933 | 73 | 148 | 1.0 | 2.0 | 0.00 | 0.44 | 0.44 | 90 | 1016.6 |
| 20260831034825 | 73 | 192 | 0.0 | 1.0 | 0.00 | 0.44 | 0.44 | 90 | 1016.6 |
| 20260831034737 | 73 | 192 | 0.0 | 1.0 | 0.00 | 0.44 | 0.44 | 90 | 1016.6 |
| 20260831034700 | 73 | 202 | 0.0 | 0.0 | 0.00 | 0.44 | 0.44 | 90 | 1016.6 |
| 20260831034531 | 73 | 227 | 0.0 | 0.0 | 0.00 | 0.44 | 0.44 | 90 | 1016.7 |
| 20260831034444 | 73 | 227 | 0.0 | 0.0 | 0.00 | 0.44 | 0.44 | 90 | 1016.7 |
| 20260831034355 | 73 | 227 | 0.0 | 0.0 | 0.00 | 0.44 | 0.44 | 90 | 1016.7 |
| 20260831034226 | 73 | 227 | 0.0 | 0.0 | 0.00 | 0.44 | 0.44 | 90 | 1016.8 |
| 20260831034138 | 73 | 227 | 0.0 | 0.0 | 0.00 | 0.44 | 0.44 | 90 | 1016.7 |
| 20260831034034 | 73 | 227 | 0.0 | 0.0 | 0.00 | 0.44 | 0.44 | 90 | 1016.7 |
| 20260831033926 | 73 | 227 | 0.0 | 0.0 | 0.00 | 0.44 | 0.44 | 90 | 1016.7 |
| 20260831033839 | 73 | 227 | 0.0 | 0.0 | 0.00 | 0.44 | 0.44 | 90 | 1016.7 |
| 20260831033731 | 73 | 227 | 0.0 | 2.0 | 0.00 | 0.44 | 0.44 | 90 | 1016.7 |
| 20260831033623 | 73 | 227 | 0.0 | 2.0 | 0.00 | 0.44 | 0.44 | 90 | 1016.7 |
| 20260831033535 | 73 | 227 | 0.0 | 2.0 | 0.00 | 0.44 | 0.44 | 90 | 1016.7 |
| 20260831033447 | 73 | 227 | 0.0 | 2.0 | 0.00 | 0.44 | 0.44 | 90 | 1016.8 |
| 20260831033359 | 73 | 227 | 0.0 | 2.0 | 0.00 | 0.44 | 0.44 | 90 | 1016.7 |
| 20260831033228 | 74 | 227 | 0.0 | 2.0 | 0.00 | 0.44 | 0.44 | 90 | 1016.6 |
| 20260831033154 | 74 | 227 | 0.0 | 2.0 | 0.00 | 0.44 | 0.44 | 90 | 1016.6 |
| 20260831033046 | 74 | 227 | 0.0 | 2.0 | 0.00 | 0.44 | 0.44 | 90 | 1016.7 |
| 20260831032958 | 74 | 227 | 1.0 | 2.0 | 0.00 | 0.44 | 0.44 | 90 | 1016.7 |
| 20260831032849 | 74 | 227 | 1.0 | 2.0 | 0.00 | 0.44 | 0.44 | 90 | 1016.6 |
| 20260831032801 | 74 | 227 | 0.0 | 1.0 | 0.00 | 0.44 | 0.44 | 89 | 1016.6 |
| 20260831032651 | 74 | 227 | 0.0 | 0.0 | 0.00 | 0.44 | 0.44 | 89 | 1016.7 |
| 20260831032542 | 74 | 227 | 0.0 | 0.0 | 0.00 | 0.44 | 0.44 | 89 | 1016.6 |
| 20260831032455 | 74 | 227 | 0.0 | 0.0 | 0.00 | 0.44 | 0.44 | 89 | 1016.7 |
| 20260831032325 | 74 | 227 | 0.0 | 0.0 | 0.00 | 0.44 | 0.44 | 89 | 1016.6 |
| 20260831032237 | 74 | 227 | 0.0 | 0.0 | 0.00 | 0.44 | 0.44 | 89 | 1016.6 |
| 20260831032129 | 74 | 227 | 0.0 | 0.0 | 0.00 | 0.44 | 0.44 | 89 | 1016.7 |
| 20260831032044 | 74 | 227 | 0.0 | 0.0 | 0.00 | 0.44 | 0.44 | 89 | 1016.6 |
| 20260831031957 | 74 | 227 | 0.0 | 0.0 | 0.00 | 0.44 | 0.44 | 89 | 1016.6 |
| 20260831031908 | 74 | 227 | 0.0 | 0.0 | 0.00 | 0.44 | 0.44 | 89 | 1016.6 |
| 20260831031759 | 74 | 227 | 0.0 | 0.0 | 0.00 | 0.44 | 0.44 | 89 | 1016.6 |
| 20260831031721 | 74 | 227 | 0.0 | 0.0 | 0.00 | 0.44 | 0.44 | 89 | 1016.6 |
| 20260831031532 | 74 | 227 | 0.0 | 1.0 | 0.00 | 0.44 | 0.44 | 89 | 1016.6 |
| 20260831031425 | 74 | 227 | 0.0 | 2.0 | 0.00 | 0.44 | 0.44 | 89 | 1016.6 |
| 20260831031337 | 74 | 227 | 0.0 | 2.0 | 0.00 | 0.44 | 0.44 | 89 | 1016.7 |
| 20260831031228 | 74 | 227 | 0.0 | 2.0 | 0.00 | 0.44 | 0.44 | 89 | 1016.6 |
| 20260831031141 | 74 | 227 | 0.0 | 3.0 | 0.00 | 0.44 | 0.44 | 89 | 1016.6 |
| 20260831031058 | 74 | 227 | 0.0 | 3.0 | 0.00 | 0.44 | 0.44 | 89 | 1016.6 |
| 20260831030929 | 74 | 227 | 0.0 | 3.0 | 0.00 | 0.44 | 0.44 | 89 | 1016.6 |
| 20260831030841 | 74 | 227 | 0.0 | 3.0 | 0.00 | 0.44 | 0.44 | 89 | 1016.5 |
| 20260831030732 | 74 | 227 | 0.0 | 3.0 | 0.00 | 0.44 | 0.44 | 89 | 1016.6 |
| 20260831030625 | 74 | 227 | 1.0 | 3.0 | 0.00 | 0.44 | 0.44 | 89 | 1016.6 |
| 20260831030536 | 74 | 230 | 1.0 | 3.0 | 0.00 | 0.44 | 0.44 | 89 | 1016.6 |
| 20260831030427 | 74 | 229 | 1.0 | 3.0 | 0.00 | 0.44 | 0.44 | 89 | 1016.6 |
| 20260831030339 | 74 | 229 | 1.0 | 4.0 | 0.00 | 0.44 | 0.44 | 89 | 1016.6 |
| 20260831030249 | 74 | 246 | 1.0 | 4.0 | 0.00 | 0.44 | 0.44 | 89 | 1016.6 |
| 20260831030214 | 74 | 249 | 0.0 | 4.0 | 0.00 | 0.44 | 0.44 | 89 | 1016.6 |
| 20260831030024 | 74 | 249 | 1.0 | 4.0 | 0.00 | 0.44 | 0.44 | 89 | 1016.7 |
| 20260831025936 | 74 | 251 | 1.0 | 7.0 | 0.00 | 0.44 | 0.44 | 89 | 1016.7 |
| 20260831025847 | 74 | 169 | 1.0 | 7.0 | 0.00 | 0.44 | 0.44 | 89 | 1016.7 |
| 20260831025759 | 74 | 240 | 1.0 | 7.0 | 0.00 | 0.44 | 0.44 | 89 | 1016.7 |
| 20260831025712 | 74 | 232 | 1.0 | 7.0 | 0.00 | 0.44 | 0.44 | 89 | 1016.7 |
| 20260831025602 | 74 | 244 | 2.0 | 7.0 | 0.00 | 0.44 | 0.44 | 89 | 1016.8 |
| 20260831025433 | 74 | 252 | 2.0 | 7.0 | 0.00 | 0.44 | 0.44 | 89 | 1016.8 |
| 20260831025325 | 74 | 215 | 2.0 | 7.0 | 0.00 | 0.44 | 0.44 | 89 | 1016.8 |
| 20260831025236 | 74 | 309 | 3.0 | 7.0 | 0.00 | 0.44 | 0.44 | 89 | 1016.7 |
| 20260831025132 | 74 | 240 | 3.0 | 7.0 | 0.00 | 0.44 | 0.44 | 89 | 1016.8 |
| 20260831025044 | 74 | 217 | 3.0 | 4.0 | 0.00 | 0.44 | 0.44 | 89 | 1016.8 |
| 20260831024934 | 74 | 224 | 1.0 | 4.0 | 0.00 | 0.44 | 0.44 | 89 | 1016.8 |
| 20260831024827 | 74 | 238 | 1.0 | 3.0 | 0.00 | 0.44 | 0.44 | 89 | 1016.7 |
| 20260831024740 | 74 | 238 | 2.0 | 3.0 | 0.00 | 0.44 | 0.44 | 89 | 1016.8 |
| 20260831024703 | 74 | 238 | 1.0 | 3.0 | 0.00 | 0.44 | 0.44 | 89 | 1016.8 |
| 20260831024554 | 74 | 235 | 1.0 | 4.0 | 0.00 | 0.44 | 0.44 | 89 | 1016.6 |
| 20260831024505 | 74 | 236 | 1.0 | 4.0 | 0.00 | 0.44 | 0.44 | 89 | 1016.6 |
| 20260831024358 | 74 | 234 | 1.0 | 4.0 | 0.00 | 0.44 | 0.44 | 89 | 1016.7 |
| 20260831024228 | 74 | 234 | 1.0 | 4.0 | 0.00 | 0.44 | 0.44 | 89 | 1016.6 |
| 20260831024124 | 74 | 221 | 2.0 | 4.0 | 0.00 | 0.44 | 0.44 | 89 | 1016.6 |
| 20260831024036 | 74 | 213 | 2.0 | 4.0 | 0.00 | 0.44 | 0.44 | 89 | 1016.7 |
| 20260831023929 | 74 | 237 | 2.0 | 4.0 | 0.00 | 0.44 | 0.44 | 89 | 1016.7 |
| 20260831023842 | 74 | 244 | 1.0 | 4.0 | 0.00 | 0.44 | 0.44 | 89 | 1016.7 |
| 20260831023734 | 74 | 233 | 2.0 | 4.0 | 0.00 | 0.44 | 0.44 | 89 | 1016.7 |
| 20260831023625 | 74 | 245 | 2.0 | 4.0 | 0.00 | 0.44 | 0.44 | 89 | 1016.6 |
| 20260831023537 | 74 | 251 | 2.0 | 4.0 | 0.00 | 0.44 | 0.44 | 89 | 1016.6 |
| 20260831023427 | 74 | 242 | 2.0 | 4.0 | 0.00 | 0.44 | 0.44 | 89 | 1016.6 |
| 20260831023343 | 74 | 241 | 2.0 | 4.0 | 0.00 | 0.44 | 0.44 | 89 | 1016.5 |
| 20260831023232 | 74 | 211 | 1.0 | 5.0 | 0.00 | 0.44 | 0.44 | 89 | 1016.6 |
| 20260831023156 | 74 | 247 | 1.0 | 5.0 | 0.00 | 0.44 | 0.44 | 89 | 1016.6 |
| 20260831023026 | 74 | 234 | 1.0 | 5.0 | 0.00 | 0.44 | 0.44 | 89 | 1016.4 |
| 20260831022939 | 74 | 240 | 1.0 | 5.0 | 0.00 | 0.44 | 0.44 | 89 | 1016.5 |
| 20260831022851 | 74 | 222 | 1.0 | 6.0 | 0.00 | 0.44 | 0.44 | 89 | 1016.5 |
| 20260831022802 | 74 | 200 | 1.0 | 6.0 | 0.00 | 0.44 | 0.44 | 89 | 1016.4 |
| 20260831022632 | 74 | 246 | 2.0 | 6.0 | 0.00 | 0.44 | 0.44 | 89 | 1016.5 |
| 20260831022524 | 74 | 234 | 2.0 | 6.0 | 0.00 | 0.44 | 0.44 | 89 | 1016.4 |
| 20260831022436 | 74 | 245 | 2.0 | 6.0 | 0.00 | 0.44 | 0.44 | 89 | 1016.5 |
| 20260831022332 | 74 | 235 | 2.0 | 6.0 | 0.00 | 0.44 | 0.44 | 89 | 1016.4 |
| 20260831022224 | 74 | 246 | 1.0 | 6.0 | 0.00 | 0.44 | 0.44 | 89 | 1016.4 |
| 20260831022136 | 74 | 211 | 2.0 | 6.0 | 0.00 | 0.44 | 0.44 | 89 | 1016.4 |
| 20260831022027 | 74 | 236 | 3.0 | 6.0 | 0.00 | 0.44 | 0.44 | 89 | 1016.4 |
| 20260831021940 | 74 | 180 | 2.0 | 5.0 | 0.00 | 0.44 | 0.44 | 89 | 1016.5 |
| 20260831021831 | 74 | 232 | 1.0 | 4.0 | 0.00 | 0.44 | 0.44 | 90 | 1016.4 |
| 20260831021723 | 74 | 217 | 2.0 | 4.0 | 0.00 | 0.44 | 0.44 | 90 | 1016.4 |
| 20260831021644 | 74 | 250 | 2.0 | 4.0 | 0.00 | 0.44 | 0.44 | 90 | 1016.4 |
| 20260831021539 | 74 | 255 | 2.0 | 4.0 | 0.00 | 0.44 | 0.44 | 90 | 1016.4 |
| 20260831021430 | 74 | 259 | 1.0 | 4.0 | 0.00 | 0.44 | 0.44 | 90 | 1016.3 |
| 20260831021344 | 73 | 10 | 1.0 | 4.0 | 0.00 | 0.44 | 0.44 | 90 | 1016.4 |
| 20260831021236 | 73 | 48 | 1.0 | 4.0 | 0.00 | 0.44 | 0.44 | 90 | 1016.2 |
| 20260831021129 | 73 | 38 | 1.0 | 4.0 | 0.00 | 0.44 | 0.44 | 90 | 1016.3 |
| 20260831021042 | 73 | 106 | 2.0 | 4.0 | 0.00 | 0.44 | 0.44 | 90 | 1016.2 |
| 20260831020933 | 73 | 275 | 2.0 | 4.0 | 0.00 | 0.44 | 0.44 | 90 | 1016.3 |
| 20260831020845 | 73 | 63 | 2.0 | 5.0 | 0.00 | 0.44 | 0.44 | 90 | 1016.3 |
| 20260831020735 | 73 | 237 | 1.0 | 5.0 | 0.00 | 0.44 | 0.44 | 90 | 1016.3 |
| 20260831020646 | 73 | 271 | 1.0 | 5.0 | 0.00 | 0.44 | 0.44 | 90 | 1016.3 |
| 20260831020601 | 73 | 130 | 1.0 | 5.0 | 0.00 | 0.44 | 0.44 | 90 | 1016.3 |
| 20260831020431 | 73 | 256 | 2.0 | 5.0 | 0.00 | 0.44 | 0.44 | 89 | 1016.4 |
| 20260831020324 | 73 | 245 | 2.0 | 5.0 | 0.00 | 0.44 | 0.44 | 89 | 1016.3 |
| 20260831020235 | 73 | 277 | 2.0 | 5.0 | 0.00 | 0.44 | 0.44 | 89 | 1016.2 |
| 20260831020157 | 73 | 229 | 2.0 | 5.0 | 0.00 | 0.44 | 0.44 | 89 | 1016.2 |
| 20260831020027 | 73 | 225 | 2.0 | 5.0 | 0.00 | 0.44 | 0.44 | 90 | 1016.2 |
| 20260831015939 | 73 | 325 | 1.0 | 6.0 | 0.00 | 0.44 | 0.44 | 90 | 1016.3 |
| 20260831015830 | 73 | 272 | 2.0 | 6.0 | 0.00 | 0.44 | 0.44 | 90 | 1016.2 |
| 20260831015725 | 73 | 199 | 2.0 | 6.0 | 0.00 | 0.44 | 0.44 | 90 | 1016.2 |
| 20260831015637 | 73 | 269 | 2.0 | 6.0 | 0.00 | 0.44 | 0.44 | 90 | 1016.2 |
| 20260831015529 | 73 | 198 | 3.0 | 6.0 | 0.00 | 0.44 | 0.44 | 90 | 1016.2 |
| 20260831015442 | 73 | 225 | 4.0 | 6.0 | 0.00 | 0.44 | 0.44 | 90 | 1016.2 |
| 20260831015355 | 73 | 238 | 3.0 | 6.0 | 0.00 | 0.44 | 0.44 | 90 | 1016.2 |
| 20260831015308 | 73 | 232 | 2.0 | 6.0 | 0.00 | 0.44 | 0.44 | 90 | 1016.1 |
| 20260831015219 | 73 | 252 | 2.0 | 6.0 | 0.00 | 0.44 | 0.44 | 90 | 1016.0 |
| 20260831015110 | 73 | 215 | 3.0 | 5.0 | 0.00 | 0.44 | 0.44 | 90 | 1016.1 |
| 20260831014957 | 73 | 247 | 2.0 | 5.0 | 0.00 | 0.44 | 0.44 | 90 | 1016.0 |
| 20260831014826 | 73 | 242 | 2.0 | 5.0 | 0.00 | 0.44 | 0.44 | 91 | 1016.0 |
| 20260831014736 | 73 | 148 | 3.0 | 5.0 | 0.00 | 0.44 | 0.44 | 91 | 1016.0 |
| 20260831014659 | 73 | 254 | 3.0 | 5.0 | 0.00 | 0.44 | 0.44 | 91 | 1016.0 |
| 20260831014535 | 73 | 248 | 3.0 | 5.0 | 0.00 | 0.44 | 0.44 | 91 | 1016.0 |
| 20260831014427 | 73 | 252 | 2.0 | 5.0 | 0.00 | 0.44 | 0.44 | 90 | 1016.0 |
| 20260831014340 | 73 | 234 | 2.0 | 5.0 | 0.00 | 0.44 | 0.44 | 90 | 1016.0 |
| 20260831014252 | 73 | 248 | 3.0 | 5.0 | 0.00 | 0.44 | 0.44 | 91 | 1016.0 |
| 20260831014203 | 73 | 174 | 2.0 | 5.0 | 0.00 | 0.44 | 0.44 | 91 | 1016.1 |
| 20260831014034 | 73 | 119 | 3.0 | 5.0 | 0.00 | 0.44 | 0.44 | 91 | 1016.1 |
| 20260831013926 | 73 | 237 | 2.0 | 5.0 | 0.00 | 0.44 | 0.44 | 91 | 1016.1 |
| 20260831013838 | 72 | 237 | 2.0 | 5.0 | 0.00 | 0.44 | 0.44 | 91 | 1016.1 |
| 20260831013735 | 72 | 250 | 3.0 | 5.0 | 0.00 | 0.44 | 0.44 | 91 | 1016.0 |
| 20260831013626 | 72 | 231 | 3.0 | 6.0 | 0.00 | 0.44 | 0.44 | 91 | 1016.1 |
| 20260831013536 | 72 | 209 | 3.0 | 6.0 | 0.00 | 0.44 | 0.44 | 91 | 1016.1 |
| 20260831013427 | 72 | 229 | 3.0 | 6.0 | 0.00 | 0.44 | 0.44 | 91 | 1016.1 |
| 20260831013340 | 72 | 238 | 3.0 | 6.0 | 0.00 | 0.44 | 0.44 | 91 | 1016.0 |
| 20260831013231 | 72 | 215 | 3.0 | 6.0 | 0.00 | 0.44 | 0.44 | 91 | 1016.1 |
| 20260831013153 | 72 | 240 | 3.0 | 6.0 | 0.00 | 0.44 | 0.44 | 91 | 1016.1 |
| 20260831013043 | 72 | 223 | 3.0 | 6.0 | 0.00 | 0.44 | 0.44 | 91 | 1016.2 |
| 20260831012934 | 72 | 246 | 3.0 | 6.0 | 0.00 | 0.44 | 0.44 | 91 | 1016.1 |
| 20260831012830 | 72 | 225 | 3.0 | 5.0 | 0.00 | 0.44 | 0.44 | 91 | 1016.1 |
| 20260831012742 | 72 | 239 | 3.0 | 5.0 | 0.00 | 0.44 | 0.44 | 91 | 1016.2 |
| 20260831012654 | 72 | 209 | 3.0 | 5.0 | 0.00 | 0.44 | 0.44 | 91 | 1016.0 |
| 20260831012545 | 72 | 253 | 3.0 | 5.0 | 0.00 | 0.44 | 0.44 | 91 | 1016.0 |
| 20260831012457 | 72 | 225 | 3.0 | 5.0 | 0.00 | 0.44 | 0.44 | 91 | 1016.0 |
| 20260831012347 | 72 | 242 | 3.0 | 5.0 | 0.00 | 0.44 | 0.44 | 91 | 1016.1 |
| 20260831012259 | 72 | 225 | 3.0 | 5.0 | 0.00 | 0.44 | 0.44 | 91 | 1016.0 |
| 20260831012149 | 72 | 244 | 2.0 | 5.0 | 0.00 | 0.44 | 0.44 | 91 | 1016.1 |
| 20260831012040 | 72 | 238 | 2.0 | 6.0 | 0.00 | 0.44 | 0.44 | 91 | 1016.0 |
| 20260831011932 | 72 | 251 | 3.0 | 6.0 | 0.00 | 0.44 | 0.44 | 91 | 1016.0 |
| 20260831011845 | 72 | 235 | 3.0 | 6.0 | 0.00 | 0.44 | 0.44 | 91 | 1016.0 |
| 20260831011735 | 72 | 240 | 3.0 | 6.0 | 0.00 | 0.44 | 0.44 | 91 | 1016.1 |
| 20260831011701 | 72 | 248 | 3.0 | 6.0 | 0.00 | 0.44 | 0.44 | 91 | 1016.1 |
| 20260831011532 | 72 | 250 | 3.0 | 6.0 | 0.00 | 0.44 | 0.44 | 91 | 1015.9 |
| 20260831011444 | 72 | 242 | 3.0 | 6.0 | 0.00 | 0.44 | 0.44 | 91 | 1016.0 |
| 20260831011335 | 72 | 242 | 3.0 | 6.0 | 0.00 | 0.44 | 0.44 | 91 | 1016.0 |
| 20260831011226 | 72 | 242 | 3.0 | 7.0 | 0.00 | 0.44 | 0.44 | 91 | 1016.0 |
| 20260831011137 | 72 | 244 | 3.0 | 5.0 | 0.00 | 0.44 | 0.44 | 91 | 1015.9 |
| 20260831011050 | 72 | 253 | 3.0 | 5.0 | 0.00 | 0.44 | 0.44 | 91 | 1015.9 |
| 20260831011003 | 72 | 249 | 3.0 | 5.0 | 0.00 | 0.44 | 0.44 | 91 | 1016.0 |
| 20260831010853 | 72 | 211 | 3.0 | 5.0 | 0.00 | 0.44 | 0.44 | 91 | 1015.9 |
| 20260831010804 | 72 | 232 | 3.0 | 5.0 | 0.00 | 0.44 | 0.44 | 91 | 1015.9 |
| 20260831010636 | 72 | 239 | 3.0 | 5.0 | 0.00 | 0.44 | 0.44 | 91 | 1016.0 |
| 20260831010548 | 72 | 228 | 3.0 | 5.0 | 0.00 | 0.44 | 0.44 | 91 | 1015.9 |
| 20260831010439 | 72 | 239 | 3.0 | 5.0 | 0.00 | 0.44 | 0.44 | 92 | 1015.9 |
| 20260831010351 | 72 | 243 | 3.0 | 5.0 | 0.00 | 0.44 | 0.44 | 92 | 1015.9 |
| 20260831010240 | 72 | 228 | 3.0 | 6.0 | 0.00 | 0.44 | 0.44 | 92 | 1015.9 |
| 20260831010204 | 72 | 219 | 3.0 | 6.0 | 0.00 | 0.44 | 0.44 | 92 | 1015.9 |
| 20260831010055 | 71 | 257 | 3.0 | 6.0 | 0.00 | 0.44 | 0.44 | 92 | 1015.9 |
| 20260831005945 | 71 | 203 | 3.0 | 6.0 | 0.00 | 0.44 | 0.44 | 92 | 1015.8 |
| 20260831005857 | 71 | 244 | 3.0 | 6.0 | 0.00 | 0.44 | 0.44 | 92 | 1015.9 |
| 20260831005750 | 71 | 248 | 3.0 | 6.0 | 0.00 | 0.44 | 0.44 | 92 | 1015.8 |
| 20260831005640 | 71 | 264 | 3.0 | 6.0 | 0.00 | 0.44 | 0.44 | 92 | 1015.8 |
| 20260831005551 | 71 | 213 | 3.0 | 6.0 | 0.00 | 0.44 | 0.44 | 92 | 1015.9 |
| 20260831005426 | 71 | 240 | 3.0 | 5.0 | 0.00 | 0.44 | 0.44 | 92 | 1015.9 |
| 20260831005337 | 71 | 234 | 3.0 | 5.0 | 0.00 | 0.44 | 0.44 | 92 | 1015.8 |
| 20260831005229 | 71 | 246 | 3.0 | 5.0 | 0.00 | 0.44 | 0.44 | 92 | 1015.8 |
| 20260831005141 | 71 | 248 | 3.0 | 5.0 | 0.00 | 0.44 | 0.44 | 92 | 1015.8 |
| 20260831005032 | 71 | 232 | 3.0 | 5.0 | 0.00 | 0.44 | 0.44 | 92 | 1015.8 |
| 20260831004925 | 71 | 226 | 3.0 | 5.0 | 0.00 | 0.44 | 0.44 | 92 | 1015.8 |
| 20260831004838 | 71 | 254 | 3.0 | 5.0 | 0.00 | 0.44 | 0.44 | 92 | 1015.8 |
| 20260831004729 | 71 | 235 | 3.0 | 5.0 | 0.00 | 0.44 | 0.44 | 92 | 1015.8 |
| 20260831004649 | 70 | 226 | 2.0 | 4.0 | 0.00 | 0.44 | 0.44 | 92 | 1015.8 |
| 20260831004526 | 71 | 240 | 2.0 | 4.0 | 0.00 | 0.44 | 0.44 | 92 | 1015.8 |
| 20260831004439 | 70 | 223 | 2.0 | 4.0 | 0.00 | 0.44 | 0.44 | 92 | 1015.8 |
| 20260831004331 | 70 | 208 | 2.0 | 4.0 | 0.00 | 0.44 | 0.44 | 92 | 1015.8 |
| 20260831004241 | 70 | 208 | 2.0 | 4.0 | 0.00 | 0.44 | 0.44 | 92 | 1015.7 |
| 20260831004134 | 70 | 246 | 2.0 | 4.0 | 0.00 | 0.44 | 0.44 | 92 | 1015.8 |
| 20260831004046 | 70 | 256 | 2.0 | 4.0 | 0.00 | 0.44 | 0.44 | 92 | 1015.8 |
| 20260831003938 | 70 | 235 | 2.0 | 4.0 | 0.00 | 0.44 | 0.44 | 92 | 1015.8 |
| 20260831003828 | 70 | 202 | 2.0 | 4.0 | 0.00 | 0.44 | 0.44 | 92 | 1015.8 |
| 20260831003740 | 70 | 242 | 3.0 | 4.0 | 0.00 | 0.44 | 0.44 | 92 | 1015.7 |
| 20260831003655 | 70 | 242 | 3.0 | 4.0 | 0.00 | 0.44 | 0.44 | 92 | 1015.7 |
| 20260831003525 | 70 | 239 | 2.0 | 4.0 | 0.00 | 0.44 | 0.44 | 92 | 1015.8 |
| 20260831003435 | 70 | 238 | 2.0 | 4.0 | 0.00 | 0.44 | 0.44 | 92 | 1015.7 |
| 20260831003329 | 70 | 243 | 3.0 | 4.0 | 0.00 | 0.44 | 0.44 | 92 | 1015.7 |
| 20260831003239 | 70 | 238 | 3.0 | 4.0 | 0.00 | 0.44 | 0.44 | 92 | 1015.6 |
| 20260831003201 | 70 | 242 | 3.0 | 4.0 | 0.00 | 0.44 | 0.44 | 92 | 1015.6 |
| 20260831003033 | 70 | 242 | 3.0 | 5.0 | 0.00 | 0.44 | 0.44 | 92 | 1015.7 |
| 20260831002945 | 70 | 242 | 3.0 | 5.0 | 0.00 | 0.44 | 0.44 | 92 | 1015.7 |
| 20260831002857 | 70 | 261 | 2.0 | 5.0 | 0.00 | 0.44 | 0.44 | 92 | 1015.7 |
| 20260831002732 | 70 | 229 | 2.0 | 7.0 | 0.00 | 0.44 | 0.44 | 92 | 1015.7 |
| 20260831002644 | 70 | 286 | 2.0 | 7.0 | 0.00 | 0.44 | 0.44 | 92 | 1015.7 |
| 20260831002535 | 70 | 241 | 2.0 | 7.0 | 0.00 | 0.44 | 0.44 | 92 | 1015.6 |
| 20260831002427 | 70 | 241 | 3.0 | 7.0 | 0.00 | 0.44 | 0.44 | 92 | 1015.6 |
| 20260831002338 | 70 | 234 | 3.0 | 7.0 | 0.00 | 0.44 | 0.44 | 92 | 1015.8 |
| 20260831002249 | 70 | 207 | 3.0 | 7.0 | 0.00 | 0.44 | 0.44 | 92 | 1015.7 |
| 20260831002201 | 70 | 250 | 4.0 | 7.0 | 0.00 | 0.44 | 0.44 | 92 | 1015.6 |
| 20260831002051 | 70 | 210 | 4.0 | 7.0 | 0.00 | 0.44 | 0.44 | 92 | 1015.6 |
| 20260831002002 | 70 | 244 | 4.0 | 7.0 | 0.00 | 0.44 | 0.44 | 92 | 1015.6 |
| 20260831001830 | 70 | 278 | 3.0 | 7.0 | 0.00 | 0.44 | 0.44 | 92 | 1015.6 |
| 20260831001726 | 70 | 241 | 3.0 | 7.0 | 0.00 | 0.44 | 0.44 | 92 | 1015.6 |
| 20260831001648 | 70 | 235 | 3.0 | 9.0 | 0.00 | 0.44 | 0.44 | 92 | 1015.7 |
| 20260831001539 | 70 | 242 | 3.0 | 9.0 | 0.00 | 0.44 | 0.44 | 92 | 1015.7 |
| 20260831001451 | 70 | 244 | 4.0 | 9.0 | 0.00 | 0.44 | 0.44 | 92 | 1015.7 |
| 20260831001341 | 70 | 250 | 4.0 | 9.0 | 0.00 | 0.44 | 0.44 | 92 | 1015.6 |
| 20260831001234 | 70 | 243 | 3.0 | 9.0 | 0.00 | 0.44 | 0.44 | 92 | 1015.6 |
| 20260831001127 | 70 | 239 | 3.0 | 9.0 | 0.00 | 0.44 | 0.44 | 92 | 1015.7 |
| 20260831001039 | 70 | 239 | 3.0 | 9.0 | 0.00 | 0.44 | 0.44 | 92 | 1015.7 |
| 20260831000951 | 70 | 246 | 3.0 | 9.0 | 0.00 | 0.44 | 0.44 | 92 | 1015.7 |
| 20260831000902 | 70 | 202 | 3.0 | 9.0 | 0.00 | 0.44 | 0.44 | 93 | 1015.7 |
| 20260831000739 | 70 | 234 | 3.0 | 7.0 | 0.00 | 0.44 | 0.44 | 93 | 1015.7 |
| 20260831000630 | 70 | 263 | 3.0 | 7.0 | 0.00 | 0.44 | 0.44 | 93 | 1015.6 |
| 20260831000542 | 70 | 192 | 3.0 | 7.0 | 0.00 | 0.44 | 0.44 | 93 | 1015.7 |
| 20260831000454 | 70 | 242 | 3.0 | 5.0 | 0.01 | 0.44 | 0.44 | 93 | 1015.6 |
| 20260831000344 | 70 | 243 | 3.0 | 5.0 | 0.01 | 0.44 | 0.44 | 93 | 1015.5 |
| 20260831000255 | 70 | 245 | 2.0 | 5.0 | 0.01 | 0.44 | 0.44 | 93 | 1015.7 |
| 20260831000156 | 70 | 227 | 3.0 | 5.0 | 0.01 | 0.44 | 0.44 | 93 | 1015.7 |
| 20260831000026 | 70 | 217 | 2.0 | 5.0 | 0.01 | 0.44 | 0.44 | 93 | 1015.6 |
| 20260830235938 | 70 | 219 | 2.0 | 5.0 | 0.01 | 0.44 | 0.44 | 93 | 1015.7 |
| 20260830235829 | 70 | 238 | 2.0 | 5.0 | 0.01 | 0.44 | 0.44 | 93 | 1015.7 |
| 20260830235725 | 70 | 244 | 3.0 | 5.0 | 0.01 | 0.44 | 0.44 | 93 | 1015.8 |
| 20260830235638 | 70 | 233 | 3.0 | 5.0 | 0.01 | 0.44 | 0.44 | 93 | 1015.7 |
| 20260830235530 | 70 | 244 | 2.0 | 5.0 | 0.01 | 0.44 | 0.44 | 93 | 1015.6 |
| 20260830235440 | 70 | 255 | 1.0 | 3.0 | 0.01 | 0.44 | 0.44 | 93 | 1015.6 |
| 20260830235333 | 70 | 290 | 0.0 | 4.0 | 0.01 | 0.44 | 0.44 | 93 | 1015.6 |
| 20260830235224 | 70 | 240 | 0.0 | 4.0 | 0.01 | 0.44 | 0.44 | 93 | 1015.6 |
| 20260830235136 | 70 | 240 | 0.0 | 4.0 | 0.01 | 0.44 | 0.44 | 93 | 1015.7 |
| 20260830235027 | 70 | 240 | 0.0 | 5.0 | 0.01 | 0.44 | 0.44 | 93 | 1015.8 |
| 20260830234943 | 70 | 189 | 1.0 | 5.0 | 0.02 | 0.44 | 0.44 | 93 | 1015.9 |
| 20260830234855 | 70 | 189 | 1.0 | 5.0 | 0.02 | 0.44 | 0.44 | 93 | 1015.9 |
| 20260830234805 | 70 | 241 | 1.0 | 5.0 | 0.02 | 0.44 | 0.44 | 93 | 1016.1 |
| 20260830234706 | 70 | 136 | 1.0 | 5.0 | 0.02 | 0.44 | 0.44 | 93 | 1016.1 |
| 20260830234557 | 70 | 229 | 1.0 | 5.0 | 0.02 | 0.44 | 0.44 | 93 | 1016.0 |
| 20260830234427 | 70 | 191 | 0.0 | 5.0 | 0.02 | 0.44 | 0.44 | 93 | 1016.0 |
| 20260830234339 | 70 | 191 | 1.0 | 5.0 | 0.02 | 0.44 | 0.44 | 93 | 1016.1 |
| 20260830234231 | 70 | 191 | 2.0 | 5.0 | 0.02 | 0.44 | 0.44 | 93 | 1016.2 |
| 20260830234143 | 70 | 150 | 2.0 | 5.0 | 0.02 | 0.44 | 0.44 | 93 | 1016.3 |
| 20260830234034 | 70 | 172 | 1.0 | 5.0 | 0.02 | 0.44 | 0.44 | 93 | 1016.3 |
| 20260830233930 | 70 | 242 | 1.0 | 5.0 | 0.03 | 0.44 | 0.44 | 94 | 1016.4 |
| 20260830233823 | 70 | 242 | 1.0 | 5.0 | 0.03 | 0.44 | 0.44 | 94 | 1016.6 |
| 20260830233735 | 70 | 242 | 2.0 | 5.0 | 0.03 | 0.44 | 0.44 | 94 | 1016.5 |
| 20260830233626 | 70 | 242 | 2.0 | 5.0 | 0.03 | 0.44 | 0.44 | 94 | 1016.6 |
| 20260830233539 | 70 | 214 | 2.0 | 5.0 | 0.03 | 0.44 | 0.44 | 94 | 1016.6 |
| 20260830233432 | 70 | 221 | 3.0 | 5.0 | 0.03 | 0.44 | 0.44 | 94 | 1016.6 |
| 20260830233325 | 70 | 241 | 3.0 | 8.0 | 0.03 | 0.44 | 0.44 | 94 | 1016.7 |
| 20260830233210 | 70 | 252 | 2.0 | 8.0 | 0.03 | 0.44 | 0.44 | 94 | 1016.6 |
| 20260830233100 | 70 | 252 | 3.0 | 8.0 | 0.03 | 0.44 | 0.44 | 94 | 1016.6 |
| 20260830232950 | 70 | 252 | 2.0 | 8.0 | 0.04 | 0.44 | 0.44 | 94 | 1016.6 |
| 20260830232841 | 70 | 236 | 3.0 | 8.0 | 0.04 | 0.44 | 0.44 | 94 | 1016.7 |
| 20260830232733 | 70 | 236 | 4.0 | 8.0 | 0.04 | 0.44 | 0.44 | 94 | 1016.6 |
| 20260830232625 | 70 | 251 | 4.0 | 8.0 | 0.04 | 0.44 | 0.44 | 94 | 1016.7 |
| 20260830232536 | 70 | 226 | 3.0 | 8.0 | 0.04 | 0.44 | 0.44 | 94 | 1016.7 |
| 20260830232429 | 70 | 252 | 3.0 | 8.0 | 0.05 | 0.44 | 0.44 | 94 | 1016.7 |
| 20260830232340 | 70 | 257 | 3.0 | 8.0 | 0.05 | 0.44 | 0.44 | 94 | 1016.7 |
| 20260830232232 | 70 | 244 | 3.0 | 8.0 | 0.05 | 0.44 | 0.44 | 94 | 1016.8 |
| 20260830232127 | 70 | 248 | 3.0 | 8.0 | 0.06 | 0.44 | 0.44 | 94 | 1016.7 |
| 20260830232040 | 70 | 259 | 2.0 | 8.0 | 0.06 | 0.44 | 0.44 | 94 | 1016.8 |
| 20260830231933 | 70 | 259 | 3.0 | 8.0 | 0.07 | 0.44 | 0.44 | 94 | 1016.8 |
| 20260830231825 | 70 | 236 | 3.0 | 8.0 | 0.07 | 0.44 | 0.44 | 94 | 1016.7 |
| 20260830231737 | 70 | 252 | 3.0 | 8.0 | 0.07 | 0.44 | 0.44 | 94 | 1016.7 |
| 20260830231659 | 70 | 268 | 2.0 | 5.0 | 0.07 | 0.44 | 0.44 | 94 | 1016.7 |
| 20260830231552 | 70 | 225 | 2.0 | 4.0 | 0.07 | 0.44 | 0.44 | 94 | 1016.7 |
| 20260830231503 | 70 | 247 | 2.0 | 3.0 | 0.07 | 0.44 | 0.44 | 94 | 1016.8 |
| 20260830231335 | 70 | 254 | 2.0 | 3.0 | 0.07 | 0.44 | 0.44 | 94 | 1016.7 |
| 20260830231230 | 70 | 245 | 1.0 | 3.0 | 0.07 | 0.44 | 0.44 | 94 | 1016.7 |
| 20260830231142 | 70 | 245 | 0.0 | 2.0 | 0.07 | 0.44 | 0.44 | 94 | 1016.7 |
| 20260830231054 | 70 | 167 | 0.0 | 0.0 | 0.07 | 0.44 | 0.44 | 94 | 1016.7 |
| 20260830230925 | 70 | 167 | 0.0 | 0.0 | 0.07 | 0.44 | 0.44 | 94 | 1016.7 |
| 20260830230837 | 70 | 167 | 0.0 | 0.0 | 0.07 | 0.44 | 0.44 | 94 | 1016.5 |
| 20260830230730 | 70 | 167 | 0.0 | 0.0 | 0.07 | 0.44 | 0.44 | 94 | 1016.6 |
| 20260830230642 | 70 | 167 | 0.0 | 0.0 | 0.07 | 0.44 | 0.44 | 94 | 1016.6 |
| 20260830230533 | 70 | 167 | 0.0 | 0.0 | 0.06 | 0.43 | 0.43 | 94 | 1016.6 |
| 20260830230429 | 70 | 167 | 0.0 | 0.0 | 0.06 | 0.43 | 0.43 | 94 | 1016.5 |
| 20260830230342 | 70 | 167 | 0.0 | 0.0 | 0.06 | 0.43 | 0.43 | 94 | 1016.5 |
| 20260830230252 | 70 | 167 | 0.0 | 0.0 | 0.07 | 0.43 | 0.43 | 94 | 1016.5 |
| 20260830230154 | 70 | 167 | 0.0 | 0.0 | 0.07 | 0.43 | 0.43 | 94 | 1016.5 |
| 20260830230025 | 70 | 167 | 0.0 | 0.0 | 0.07 | 0.43 | 0.43 | 94 | 1016.5 |
| 20260830225937 | 70 | 167 | 0.0 | 0.0 | 0.07 | 0.43 | 0.43 | 94 | 1016.5 |
| 20260830225848 | 70 | 167 | 0.0 | 0.0 | 0.08 | 0.43 | 0.43 | 94 | 1016.4 |
| 20260830225740 | 70 | 167 | 0.0 | 0.0 | 0.08 | 0.43 | 0.43 | 94 | 1016.5 |
| 20260830225633 | 70 | 167 | 0.0 | 0.0 | 0.08 | 0.43 | 0.43 | 94 | 1016.5 |
| 20260830225525 | 70 | 167 | 0.0 | 0.0 | 0.09 | 0.43 | 0.43 | 94 | 1016.5 |
| 20260830225440 | 70 | 167 | 0.0 | 0.0 | 0.09 | 0.43 | 0.43 | 94 | 1016.5 |
| 20260830225333 | 70 | 167 | 0.0 | 0.0 | 0.09 | 0.43 | 0.43 | 94 | 1016.5 |
| 20260830225225 | 70 | 167 | 0.0 | 0.0 | 0.10 | 0.43 | 0.43 | 94 | 1016.5 |
| 20260830225137 | 70 | 167 | 0.0 | 0.0 | 0.10 | 0.43 | 0.43 | 94 | 1016.5 |
| 20260830225029 | 70 | 167 | 0.0 | 0.0 | 0.09 | 0.42 | 0.42 | 93 | 1016.5 |
| 20260830224941 | 70 | 167 | 0.0 | 0.0 | 0.10 | 0.42 | 0.42 | 93 | 1016.5 |
| 20260830224832 | 70 | 167 | 0.0 | 0.0 | 0.10 | 0.42 | 0.42 | 93 | 1016.5 |
| 20260830224724 | 70 | 167 | 0.0 | 0.0 | 0.10 | 0.42 | 0.42 | 93 | 1016.5 |
| 20260830224650 | 70 | 167 | 0.0 | 0.0 | 0.10 | 0.42 | 0.42 | 93 | 1016.5 |
| 20260830224541 | 70 | 167 | 0.0 | 0.0 | 0.10 | 0.42 | 0.42 | 93 | 1016.5 |
| 20260830224433 | 70 | 167 | 0.0 | 0.0 | 0.10 | 0.42 | 0.42 | 93 | 1016.6 |
| 20260830224325 | 70 | 167 | 0.0 | 0.0 | 0.11 | 0.42 | 0.42 | 93 | 1016.6 |
| 20260830224237 | 70 | 269 | 0.0 | 0.0 | 0.11 | 0.42 | 0.42 | 93 | 1016.6 |
| 20260830224128 | 71 | 217 | 0.0 | 2.0 | 0.11 | 0.42 | 0.42 | 93 | 1016.6 |
| 20260830224040 | 71 | 217 | 0.0 | 2.0 | 0.11 | 0.42 | 0.42 | 93 | 1016.7 |
| 20260830223932 | 71 | 240 | 0.0 | 2.0 | 0.10 | 0.41 | 0.41 | 93 | 1016.6 |
| 20260830223829 | 71 | 240 | 0.0 | 2.0 | 0.11 | 0.41 | 0.41 | 93 | 1016.5 |
| 20260830223742 | 71 | 240 | 0.0 | 2.0 | 0.11 | 0.41 | 0.41 | 93 | 1016.6 |
| 20260830223632 | 71 | 233 | 0.0 | 2.0 | 0.11 | 0.41 | 0.41 | 93 | 1016.7 |
| 20260830223544 | 71 | 233 | 0.0 | 2.0 | 0.11 | 0.41 | 0.41 | 93 | 1016.7 |
| 20260830223457 | 71 | 233 | 0.0 | 2.0 | 0.11 | 0.41 | 0.41 | 93 | 1016.7 |
| 20260830223349 | 71 | 164 | 0.0 | 2.0 | 0.11 | 0.41 | 0.41 | 93 | 1016.7 |
| 20260830223238 | 71 | 164 | 0.0 | 2.0 | 0.12 | 0.41 | 0.41 | 93 | 1016.7 |
| 20260830223201 | 71 | 209 | 0.0 | 2.0 | 0.12 | 0.41 | 0.41 | 92 | 1016.7 |
| 20260830223031 | 71 | 209 | 0.0 | 2.0 | 0.11 | 0.40 | 0.40 | 92 | 1016.8 |
| 20260830222942 | 71 | 209 | 0.0 | 2.0 | 0.12 | 0.40 | 0.40 | 92 | 1016.7 |
| 20260830222838 | 71 | 209 | 0.0 | 3.0 | 0.12 | 0.40 | 0.40 | 92 | 1016.9 |
| 20260830222730 | 71 | 209 | 0.0 | 3.0 | 0.12 | 0.40 | 0.40 | 92 | 1016.9 |
| 20260830222642 | 71 | 209 | 1.0 | 3.0 | 0.13 | 0.40 | 0.40 | 92 | 1016.9 |
| 20260830222533 | 71 | 209 | 0.0 | 3.0 | 0.13 | 0.40 | 0.40 | 92 | 1016.9 |
| 20260830222445 | 71 | 209 | 0.0 | 4.0 | 0.12 | 0.39 | 0.39 | 92 | 1016.9 |
| 20260830222357 | 71 | 209 | 1.0 | 4.0 | 0.12 | 0.39 | 0.39 | 92 | 1016.9 |
| 20260830222227 | 71 | 209 | 2.0 | 5.0 | 0.11 | 0.38 | 0.39 | 91 | 1016.9 |
| 20260830222139 | 71 | 209 | 2.0 | 5.0 | 0.12 | 0.38 | 0.38 | 91 | 1017.0 |
| 20260830222031 | 71 | 234 | 2.0 | 5.0 | 0.12 | 0.38 | 0.38 | 91 | 1017.0 |
| 20260830221948 | 71 | 241 | 2.0 | 5.0 | 0.11 | 0.37 | 0.37 | 91 | 1017.1 |
| 20260830221839 | 71 | 241 | 2.0 | 5.0 | 0.11 | 0.37 | 0.37 | 91 | 1017.0 |
| 20260830221742 | 71 | 241 | 3.0 | 5.0 | 0.11 | 0.37 | 0.37 | 91 | 1017.0 |
| 20260830221644 | 71 | 242 | 2.0 | 5.0 | 0.11 | 0.37 | 0.37 | 91 | 1017.0 |
| 20260830221535 | 71 | 265 | 3.0 | 5.0 | 0.11 | 0.37 | 0.37 | 91 | 1017.0 |
| 20260830221427 | 71 | 249 | 3.0 | 5.0 | 0.11 | 0.37 | 0.37 | 91 | 1016.9 |
| 20260830221339 | 71 | 266 | 2.0 | 5.0 | 0.11 | 0.37 | 0.37 | 91 | 1016.9 |
| 20260830221231 | 72 | 294 | 2.0 | 5.0 | 0.11 | 0.37 | 0.37 | 91 | 1016.8 |
| 20260830221123 | 72 | 266 | 2.0 | 5.0 | 0.11 | 0.37 | 0.37 | 91 | 1016.9 |
| 20260830221039 | 72 | 248 | 2.0 | 5.0 | 0.11 | 0.37 | 0.37 | 90 | 1016.8 |
| 20260830220931 | 72 | 248 | 2.0 | 5.0 | 0.11 | 0.37 | 0.37 | 90 | 1016.8 |
| 20260830220823 | 72 | 241 | 2.0 | 5.0 | 0.11 | 0.37 | 0.37 | 90 | 1016.6 |
| 20260830220734 | 72 | 151 | 2.0 | 5.0 | 0.12 | 0.37 | 0.37 | 90 | 1016.7 |
| 20260830220647 | 72 | 118 | 2.0 | 5.0 | 0.12 | 0.37 | 0.37 | 90 | 1016.7 |
| 20260830220559 | 72 | 260 | 2.0 | 5.0 | 0.12 | 0.37 | 0.37 | 90 | 1016.7 |
| 20260830220429 | 72 | 206 | 2.0 | 5.0 | 0.12 | 0.37 | 0.37 | 90 | 1016.8 |
| 20260830220343 | 72 | 248 | 2.0 | 5.0 | 0.13 | 0.37 | 0.37 | 90 | 1016.7 |
| 20260830220234 | 72 | 248 | 1.0 | 5.0 | 0.12 | 0.36 | 0.36 | 90 | 1016.8 |
| 20260830220159 | 72 | 221 | 2.0 | 5.0 | 0.12 | 0.36 | 0.36 | 90 | 1016.8 |
| 20260830220031 | 72 | 185 | 2.0 | 6.0 | 0.12 | 0.36 | 0.36 | 90 | 1016.9 |
| 20260830215942 | 72 | 202 | 1.0 | 6.0 | 0.13 | 0.36 | 0.36 | 90 | 1017.0 |
| 20260830215834 | 72 | 159 | 1.0 | 8.0 | 0.12 | 0.35 | 0.35 | 90 | 1017.1 |